     2              OBSERVATION DATA    GPS                 RINEX VERSION / TYPE
ASRINEXO V2.4.4 UX USGS 27-APR-98 15:19                     PGM / RUN BY / DATE
                                                            COMMENT
Original Marker Name: juru Jurupa_3_1973_NGS                COMMENT
Campaign Name: usgs.cajon.monit                             COMMENT
4-Character Station Name: JURU                              COMMENT
6-Character Antenna Code: DMRCHT                            COMMENT
Vertical Measurement Point: BCR                             COMMENT
Vertical Offset to Rinex Ref. Point: 0.0348                 COMMENT
Radial Measurement Point: ECF                               COMMENT
Radial Offset to Rinex Ref. Point: 0.1897                   COMMENT
Antenna Height from Field Measurement: 0.6790 m             COMMENT
Additional Antenna Identification Info.:                    COMMENT
Turborogue and Ashtech Choke Ring                           COMMENT
Original XYZ: -2438834.7579 -4696359.5427 3549786.4926      COMMENT
New XYZ position is based on association with SCEC monument COMMENT
E1D0Q7I6+0013. Position of that monument is believed to be  COMMENT
valid to within 1 m horizontally; vertical accuracy         COMMENT
should be no worse than 3-times this value.                 COMMENT
                                                            COMMENT
Revised Rinex header created by UCSD GPS archive for        COMMENT
GSAC on 10-Nov-1999 (1999:314) 23:37:34 GMT                 COMMENT
For assistance contact dagnew@ucsd.edu or hjohnson@ucsd.edu COMMENT
                                                            COMMENT
JURU JURUPA_3_1973_NGS                                      MARKER NAME
GDH US GEOLOGICAL SURVEY                                    OBSERVER / AGENCY
591 ASHTECH Z-XII3 1E95                                     REC # / TYPE / VERS
329 DORNE-MARGOL. TYPE T                                    ANT # / TYPE
 -2438784.0000 -4696307.0000  3549781.0000                  APPROX POSITION XYZ
        0.6172        0.0000        0.0000                  ANTENNA: DELTA H/E/N
     1     1     0                                          WAVELENGTH FACT L1/2
     5    C1    L1    L2    P1    P2                        # / TYPES OF OBSERV
    30                                                      INTERVAL
  1998     4    24    16    36   30.000000                  TIME OF FIRST OBS
  1998     4    24    22    30   30.000000                  TIME OF LAST OBS
                                                            END OF HEADER
 98  4 24 16 36 30.0000000  0  7 19  2 15 27 26  7 13
  23617928.766      274885.76349    204523.93549  23617929.3684   23617935.2404
  21319347.558      -90333.77749    -66655.36149  21319347.2334   21319352.2634
  23535820.790      -63673.63749    -46040.81549  23535819.3314   23535825.8784
  20846628.356      101285.47749     74399.10849  20846628.4294   20846633.0384
  22786400.475      -28043.57349                  22786400.633    22786405.0294
  20424949.206     -208883.17749   -153992.50549  20424949.3524   20424954.2594
  22768510.115      263430.65349    197242.37049  22768510.9384   22768514.2084
 98  4 24 16 37  0.0000000  0  7 19  2 15 27 26  7 13
  23630549.858      341209.39949    256204.57849  23630550.0914   23630556.9754
  21315048.313     -112926.62149    -84260.18349  21315047.8194   21315053.0564
  23531848.209      -84544.25249    -62303.70049  23531847.8914   23531854.2974
  20851161.084      125104.40649     92959.29849  20851161.0224   20851165.9034
  22777920.139     -226493.39659    -62768.69249  22777920.4644   22777924.6984
  20415105.575     -260612.43949   -194301.01449  20415105.4874   20415110.3634
  22781352.564      330918.04649    249829.90249  22781352.1284   22781356.8894
 98  4 24 16 37 30.0000000  0  7 19  2 15 27 26  7 13
  23643099.224      407155.69749    307590.98849  23643099.2234   23643105.8774
  21310668.322     -135943.49149   -102195.40449  21310667.9124   21310672.7974
  23527874.496     -105428.57249    -78577.36449  23527874.4414   23527881.0254
  20855669.820      148797.70149    111421.59649  20855669.9004   20855674.6104
  22769431.385     -271101.48249    -97528.22649  22769431.7204   22769436.6774
  20405240.287     -312455.04849   -234697.83749  20405239.9764   20405245.0384
  22794121.909      398021.25149    302118.03949  22794122.5674   22794126.6694
 98  4 24 16 38  0.0000000  0  7 19  2 15 27 26  7 13
  23655593.461      472812.78749    358752.25149  23655593.3144   23655600.4014
  21306224.007     -159298.78249   -120394.33549  21306223.6084   21306228.5944
  23523914.238     -126241.11849    -94794.93949  23523913.7934   23523920.3824
  20860172.384      172458.63349    129858.66649  20860172.5134   20860176.9864
  22760948.368     -315679.87749   -132264.63449  22760949.0034   22760953.5174
  20395370.776     -364319.80649   -275111.92849  20395370.5394   20395375.7314
  22806832.063      464813.43349    354163.83049  22806832.3884   22806836.4564
 98  4 24 16 38 30.0000000  0  7 19  2 15 27 26  7 13
  23668038.772      538213.11849    409713.66049  23668039.0184   23668045.7054
  21301719.390     -182970.79349   -138840.05949  21301718.8374   21301723.8444
  23519973.609     -146949.67249   -110931.48949  23519974.0114   23519979.4624
  20864675.388      196121.83749    148297.51349  20864675.4564   20864679.9834
  22752475.267     -360206.44449   -166960.66049  22752475.3094   22752479.8404
  20385503.527     -416172.72149   -315516.78949  20385503.2004   20385508.3124
  22819488.073      531321.09549    405987.90949  22819489.4764   22819492.8594
 98  4 24 16 39  0.0000000  0  7 19  2 15 27 26  7 13
  23680450.263      603435.95449    460536.53849  23680450.5754   23680457.4584
  21297167.698     -206890.07849   -157478.46849  21297167.2684   21297172.1974
  23516068.548     -167471.36149   -126922.41649  23516068.1054   23516074.3824
  20869194.623      219870.37049    166802.86049  20869194.4374   20869198.9654
  22744026.764     -404603.99049   -201556.14449  22744026.7384   22744031.4414
  20375656.484     -467919.35749   -355838.83549  20375656.1874   20375661.2554
  22832101.128      597603.08649    457636.14449  22832101.2354   22832106.5684
 98  4 24 16 39 30.0000000  0  7 19  2 15 27 26  7 13
  23692811.547      668395.13249    511153.96049  23692812.3974   23692819.3574
  21292552.555     -231142.97849   -176376.83849  21292552.0234   21292557.0974
  23512185.016     -187879.54149   -142824.89749  23512184.4734   23512191.1864
  20873714.240      243620.90349    185309.74549  20873714.4084   20873718.9154
  22735591.413     -448932.02549   -236097.47049  22735591.6874   22735596.2484
  20365814.222     -519640.93949   -396141.35949  20365814.0604   20365819.1174
  22844655.362      663575.66949    509043.29149  22844655.6444   22844659.5874
 98  4 24 16 40  0.0000000  0  7 19  2 15 27 26  7 13
  23705129.874      733127.91549    561594.96549  23705130.3604   23705136.8884
  21287879.435     -255700.35049   -195512.44949  21287878.9484   21287884.0874
  23508331.939     -208127.57649   -158602.59249  23508331.6914   23508338.0304
  20878243.677      267423.01249    203856.82949  20878243.5834   20878248.5194
  22727180.343     -493132.23049   -270539.18849  22727180.4704   22727185.1954
  20355985.724     -571290.20349   -436387.52849  20355985.3954   20355990.5374
  22857158.185      729278.17949    560239.98149  22857158.0394   22857163.9124
 98  4 24 16 40 30.0000000  0  7 19  2 15 27 26  7 13
  23717407.249      797645.62549    611868.40049  23717408.0004   23717414.4324
  21283152.164     -280542.38649   -214869.88549  21283151.7614   21283156.9794
  23504513.842     -228192.42149   -174237.53649  23504513.7744   23504519.3934
  20882788.106      291304.08949    222465.44049  20882787.8674   20882792.7094
  22718798.900     -537176.79949   -304859.62549  22718798.9934   22718803.1704
  20346175.329     -622844.42049   -476559.64249  20346175.0464   20346180.2434
  22869610.862      794716.90449    611231.12549  22869611.6274   22869615.2664
 98  4 24 16 41  0.0000000  0  7 19  2 15 27 26  7 13
  23729650.401      861983.25249    662001.49849  23729650.4154   23729657.3704
  21278378.791     -305626.88149   -234416.25149  21278378.5554   21278383.6844
  23500737.838     -248035.72249   -189699.85049  23500736.7784   23500744.2174
  20887353.258      315293.91249    241158.79849  20887353.1964   20887357.9194
  22710454.393     -581027.71749   -339029.17849  22710454.7794   22710459.0194
  20336389.443     -674269.83649   -516631.38949  20336389.0714   20336394.2994
  22882018.686      859920.26649    662038.86649  22882019.0484   22882024.3674
 98  4 24 16 41 30.0000000  0  7 19  2 15 27 26  7 13
  23741855.096      926118.99949    711977.26749  23741856.4654   23741863.2904
  21273559.020     -330955.06949   -254152.50749  21273558.7324   21273563.6254
  23497000.578     -267675.30249   -205003.42849  23497000.2854   23497006.1104
  20891935.560      339373.85149    259922.35649  20891935.4344   20891940.2234
  22702143.346     -624702.60049   -373061.55649  22702143.6934   22702148.3584
  20326621.618     -725600.36549   -556629.20149  20326621.2634   20326626.3684
  22894380.138      924879.54849    712656.41349  22894381.1404   22894385.6564
 98  4 24 16 42  0.0000000  0  7 19  2 15 27 26  7 13
  23754023.560      990064.06149    761804.45349  23754025.5804   23754031.0414
  21268693.763     -356522.37849   -274075.09049  21268693.5504   21268698.3554
  23493301.377     -287114.80349   -220151.09649  23493300.7864   23493306.9114
  20896536.916      363553.99949    278763.99649  20896536.7994   20896541.6654
  22693863.889     -668211.91549   -406964.91749  22693864.3554   22693868.6734
  20316873.276     -776828.09549   -596546.90749  20316872.6124   20316877.7524
  22906694.458      989591.53549    763081.25549  22906695.2654   22906699.9594
 98  4 24 16 42 30.0000000  0  7 19  2 15 27 26  7 13
  23766150.712     1053791.74649    811462.25549  23766150.5964   23766157.2184
  21263778.880     -382350.45549   -294200.86749  21263778.3934   21263783.4914
  23489632.379     -306395.39249   -235174.92249  23489632.3464   23489638.0784
  20901146.888      387779.32949    297640.85149  20901146.7974   20901151.7594
  22685606.433     -711605.33149   -440777.98149  22685606.9014   22685610.9754
  20307135.925     -827998.20049   -636419.71849  20307135.7424   20307140.6424
  22918955.545     1054023.53949    813287.92749  22918955.8774   22918961.2454
 98  4 24 16 43  0.0000000  0  7 19  2 15 27 26  7 13
  23778248.665     1117366.11049    861000.57449  23778249.5604   23778256.3734
  21258824.966     -408383.57949   -314486.41949  21258824.6824   21258829.6854
  23486004.758     -325458.75649   -250029.50749  23486002.0694   23486007.5864
  20905774.494      412097.17749    316589.79649  20905774.5134   20905779.2454
  22677380.430     -754833.45949   -474462.23549  22677381.1064   22677385.1574
  20297420.135     -879055.50749   -676204.62549  20297419.8594   20297424.8174
  22931177.085     1118247.47849    863332.47149  22931178.6854   22931183.2024
 98  4 24 16 43 30.0000000  0  7 19  2 15 27 26  7 13
  23790326.163     1180833.05549    910455.21249  23790326.7004   23790333.5114
  21253839.126     -434584.49949   -334902.72649  21253838.6244   21253843.7954
  23482426.682     -344261.65349   -264681.10449  23482425.0954   23482434.5804
  20910430.143      436562.54549    335653.67949  20910429.9614   20910434.8974
  22669193.502     -797856.06949   -507986.34549  22669193.6544   22669198.2304
  20287734.220     -929955.54549   -715866.99049  20287733.8944   20287738.9584
  22943366.472     1182302.68249    913245.53849  22943366.9584   22943371.1434
 98  4 24 16 44  0.0000000  0  7 19  2 15 27 26  7 13
  23802393.271     1244245.56349    959867.40749  23802393.2264   23802400.8824
  21248827.919     -460918.79949   -355422.96349  21248827.6534   21248832.5524
  23478906.264     -362761.96149   -279096.93949  23478905.8624   23478911.7224
  20915122.660      461221.75249    354868.64649  20915122.7624   20915127.2914
  22661053.791     -840630.47549   -541317.03449  22661053.7794   22661058.6424
  20278086.605     -980654.49549   -755372.65949  20278086.1534   20278091.1314
  22955529.377     1246219.08049    963050.44449  22955529.1184   22955535.4774
 98  4 24 16 44 30.0000000  0  7 19  2 15 27 26  7 13
  23814454.919     1307629.26749   1009257.16449  23814455.0464   23814462.8584
  21243797.042     -487356.37849   -376023.68149  21243796.7464   21243801.7684
  23475449.992     -380924.94649   -293249.92349  23475449.3754   23475455.7344
  20919856.404      486097.40549    374252.26349  20919856.3354   20919861.1144
  22652966.275     -883130.87349   -574434.24049  22652966.6684   22652971.1134
  20268480.700    -1031133.94349   -794707.28949  20268480.2634   20268485.3404
  22967671.960     1310028.35349   1012771.87749  22967672.4514   22967677.4254
 98  4 24 16 45  0.0000000  0  7 19  2 15 27 26  7 13
  23826513.080     1370994.73049   1058632.70949  23826512.6694   23826520.1954
  21238744.914     -513905.71049   -396711.47449  21238744.4634   21238749.4744
  23472058.834     -398745.93649   -307136.41749  23472058.2724   23472064.3064
  20924634.301      511205.11149    393816.68749  20924634.2174   20924639.1084
  22644932.863     -925346.82149   -607329.78749  22644933.0994   22644938.0774
  20258915.172    -1081401.10249   -833876.50149  20258914.6954   20258919.8444
  22979792.229     1373720.43449   1062401.98949  22979792.9104   22979796.9434
 98  4 24 16 45 30.0000000  0  7 19  2 15 27 26  7 13
  23838568.406     1434345.94449   1107997.15049  23838568.9424   23838575.1284
  21233674.503     -540550.92649   -417473.98049  21233674.0434   21233679.1884
  23468733.784     -416219.62749   -320752.27749  23468732.8544   23468738.7134
  20929457.280      536549.81049    413565.77449  20929457.2784   20929462.0394
  22636957.132     -967259.64249   -639989.12649  22636957.7204   22636962.3184
  20249391.841    -1131446.89349   -872873.21249  20249391.4584   20249396.3384
  22991890.625     1437297.53349   1111942.49849  22991890.9454   22991895.8474
 98  4 24 16 45 59.9990000  0  7 19  2 15 27 26  7 13
  23850623.528     1497695.56449   1157360.34449  23850625.0664   23850631.4914
  21228590.720     -567266.46649   -438291.29149  21228590.4034   21228595.1904
  23465478.995     -433323.77249   -334080.18349  23465478.5474   23465484.3524
  20934326.281      562136.57549    433503.47749  20934326.2084   20934331.0674
  22629043.354    -1008847.03349   -672394.89249  22629043.8894   22629047.9354
  20239916.872    -1181238.35449   -911671.75449  20239916.4274   20239921.4484
  23003972.301     1500786.65149   1161414.45149  23003972.7014   23003977.7844
 98  4 24 16 46 29.9990000  0  7 19  2 15 27 26  7 13
  23862680.978     1561057.07049   1206732.78849  23862682.2094   23862687.8794
  21223497.579     -594031.28749   -459147.00249  21223497.1694   21223501.9844
  23462298.907     -450035.68349   -347102.45449  23462298.2594   23462305.1254
  20939244.178      587980.07149    453641.24649  20939244.0034   20939248.8584
  22621194.702    -1050092.28549   -704534.04549  22621195.1724   22621200.0454
  20230496.395    -1230743.38049   -950247.09549  20230496.0494   20230500.9224
  23016041.778     1564211.79949   1210836.54249  23016042.6154   23016047.5394
 98  4 24 16 46 59.9990000  0  7 19  2 15 27 26  7 13
  23874734.402     1624397.45449   1256088.78249  23874734.8254   23874742.6474
  21218392.792     -620857.22149   -480050.33149  21218392.5434   21218397.3624
  23459189.890     -466373.89449   -359833.53649  23459189.4414   23459196.2224
  20944205.796      614053.51049    473958.19249  20944205.4484   20944210.3994
  22613409.628    -1091003.22249   -736412.69149  22613409.7124   22613414.5474
  20221131.468    -1279956.53949   -988595.00749  20221130.9824   20221136.0594
  23028093.551     1627544.01649   1260186.23849  23028094.0324   23028099.3044
 98  4 24 16 47 29.9990000  0  7 19  2 15 27 26  7 13
  23886784.515     1687720.47949   1305431.24549  23886785.3734   23886792.8164
  21213284.210     -647703.13149   -500969.22749  21213283.8994   21213288.9224
  23456157.309     -482310.43949   -372251.63049  23456157.0704   23456163.1034
  20949214.420      640374.02249    494467.66149  20949214.2914   20949219.1994
  22605691.056    -1131564.83849   -768019.14849  22605691.6754   22605696.3104
  20211829.990    -1328836.03049  -1026682.92149  20211829.4124   20211834.6904
  23040135.857     1690826.44849   1309497.13349  23040135.5264   23040141.4274
 98  4 24 16 47 59.9990000  0  7 19  2 15 27 26  7 13
  23898841.760     1751080.67849   1354802.68649  23898842.1564   23898849.2894
  21208180.717     -674522.07049   -521867.10849  21208180.2924   21208185.4924
  23453211.552     -497790.51349   -384314.04549  23453211.0704   23453217.7484
  20954282.980      667009.34049    515222.43049  20954282.8524   20954287.7634
  22598048.562    -1171726.38649   -799313.87049  22598049.1264   22598053.3194
  20202600.049    -1377339.56649  -1064477.88449  20202599.6114   20202604.7964
  23052179.164     1754114.23849   1358812.20049  23052179.4784   23052184.8064
 98  4 24 16 48 29.9990000  0  7 19  2 15 27 26  7 13
  23910902.693     1814460.44249   1404189.37849  23910903.8264   23910911.2014
  21203079.001     -701331.95249   -542757.92849  21203078.6944   21203083.7184
  23450348.505     -512836.29549   -396038.03049  23450347.2424   23450354.2564
  20959406.940      693935.67649    536203.96949  20959406.7854   20959411.7584
  22590481.134    -1211493.57949   -830301.29249  22590481.3454   22590485.7764
  20193433.434    -1425510.40049  -1102013.60149  20193433.0074   20193438.1534
  23064220.443     1817391.21049   1408118.85149  23064221.9914   23064226.2394
 98  4 24 16 48 59.9990000  0  7 19  2 15 27 26  7 13
  23922974.872     1877899.46749   1453622.23349  23922975.1494   23922982.3144
  21197985.464     -728098.68649   -563615.12749  21197985.1304   21197990.3504
  23447575.635     -527408.00249   -407392.61949  23447575.3314   23447581.5004
  20964595.706      721202.79749    557451.03749  20964595.7424   20964600.6704
  22582997.544    -1250819.99549   -860945.25749  22582998.0164   22583002.3064
  20184334.386    -1473326.29049  -1139272.73649  20184334.0064   20184339.0604
  23076268.030     1880701.24949   1457451.23249  23076268.4624   23076273.8484
 98  4 24 16 49 29.9990000  0  7 19  2 15 27 26  7 13
  23935062.592     1941420.44449   1503118.95249  23935062.4514   23935070.6824
  21192898.616     -754830.29049   -584444.95149  21192898.2524   21192903.2424
  23444892.798     -541506.26749   -418378.29449  23444891.7994   23444897.5854
  20969851.623      748822.60849    578972.94149  20969851.6744   20969856.6404
  22575598.701    -1289701.13249   -891242.25049  22575599.3184   22575603.5384
  20175298.589    -1520809.90149  -1176272.95149  20175298.2624   20175303.4344
  23088320.131     1944035.02449   1506802.14749  23088320.1494   23088326.2914
 98  4 24 16 49 59.9990000  0  7 19  2 15 27 26  7 13
  23947170.494     2005047.01949   1552697.93049  23947171.4284   23947178.6534
  21187817.854     -781529.97749   -605249.90949  21187817.4894   21187822.6504
  23442300.299     -555129.81649   -428994.06449  23442299.3444   23442305.9644
  20975176.098      776802.71949    600775.59149  20975176.1084   20975181.2184
  22568288.489    -1328116.77649   -921176.52649  22568289.0594   22568293.7434
  20166326.393    -1567959.41549  -1213012.83349  20166325.9834   20166330.9594
  23100371.594     2007365.19549   1556150.22449  23100371.3564   23100376.3634
 98  4 24 16 50 29.9990000  0  8 19  2 15 27 26  7  4 13
  23959287.892     2068723.87449   1602316.10049  23959288.2904   23959296.7084
  21182734.884     -808241.17949   -626063.84049  21182734.5684   21182739.5234
  23439788.328     -568330.41649   -439280.24549  23439788.0724   23439793.7034
  20980557.442      805081.66849    622811.11449  20980557.3824   20980562.4284
  22561054.770    -1366130.25849   -950797.42549  22561055.1574   22561059.0494
  20157409.206    -1614819.50849  -1249527.19049  20157408.6564   20157413.8004
  24476222.557    -3281750.11049  -2213661.09149  24476222.7344   24476230.2194
  23112408.013     2070616.47849   1605436.84549  23112408.7424   23112414.0914
 98  4 24 16 50 59.9990000  0  8 19  2 15 27 26  7  4 13
  23971414.530     2132449.20349   1651972.03949  23971414.7754   23971421.5184
  21177651.368     -834955.32149   -646880.06449  21177650.8974   21177656.0474
  23437357.319     -581105.86349   -449235.16249  23437357.2654   23437363.3474
  20985998.538      833674.70149    645091.38049  20985998.5854   20986003.5914
  22553894.358    -1403758.67949   -980118.27949  22553894.7344   22553899.1764
  20148550.838    -1661370.40949  -1285800.61949  20148550.4494   20148555.3244
  24449662.208    -3421324.86849  -2322420.46549  24449662.2314   24449670.6434
  23124424.432     2133762.99849   1654641.82349  23124424.7844   23124430.3864
 98  4 24 16 51 29.9990000  0  8 19  2 15 27 26  7  4 13
  23983556.460     2196254.83949   1701690.54249  23983556.6094   23983564.3934
  21172572.702     -861644.12049   -667676.53549  21172572.3534   21172577.3584
  23435011.812     -593431.78249   -458839.79349  23435012.2594   23435017.3364
  20991502.627      862598.65949    667629.50349  20991502.3854   20991507.4754
  22546809.581    -1440989.47449  -1009129.29949  22546809.5294   22546814.2924
  20139758.669    -1707573.62849  -1321803.12649  20139758.1664   20139763.4424
  24423060.659    -3561116.10549  -2431348.52449  24423059.9374   24423068.6994
  23136423.817     2196819.49349   1703776.65249  23136424.9064   23136429.4984
 98  4 24 16 51 59.9990000  0  8 19  2 15 27 26  7  4 13
  23995708.170     2260111.92749   1751449.13449  23995707.8574   23995716.7774
  21167501.916     -888291.39249   -688440.64949  21167501.5144   21167506.5764
  23432754.153     -605296.07949   -468084.72049  23432754.5524   23432759.0084
  20997070.877      891860.00049    690430.52949  20997070.6404   20997075.8094
  22539799.038    -1477829.90749  -1037836.13549  22539799.7514   22539804.7074
  20131035.303    -1753415.38149  -1357523.97149  20131034.8054   20131039.8304
  24396421.893    -3701102.90749  -2540428.97149  24396421.4294   24396431.0694
  23148409.968     2259806.48349   1752857.32249  23148410.6394   23148416.2584
 98  4 24 16 52 29.9990000  0  8 19  2 15 27 26  7  4 13
  24007862.676     2323983.24649   1801218.79649  24007863.4224   24007870.7124
  21162436.511     -914910.31949   -709182.67549  21162436.2204   21162441.1504
  23430582.608     -616707.60549   -476976.83549  23430582.6154   23430588.8264
  21002700.318      921442.91449    713482.12549  21002700.2034   21002705.2704
  22532858.124    -1514304.59849  -1066257.98749  22532858.2074   22532863.0634
  20122378.797    -1798905.69149  -1392970.96949  20122378.3574   20122383.5434
  24369743.843    -3841295.83949  -2649670.05549  24369742.8384   24369752.2354
  23160383.379     2322726.43949   1801885.75549  23160383.5404   23160388.7744
 98  4 24 16 52 59.9990000  0  8 19  2 15 27 26  7  4 13
  24020019.746     2387868.05349   1850998.97949  24020020.9954   24020028.0804
  21157374.489     -941511.65049   -729910.98549  21157373.9854   21157379.2314
  23428497.237     -627666.13649   -485515.96449  23428496.4494   23428502.5394
  21008389.146      951337.81549    736776.82449  21008389.2754   21008394.2794
  22525989.099    -1550401.76949  -1094385.65349  22525989.6924   22525993.7004
  20113790.830    -1844035.81349  -1428137.29249  20113790.4434   20113795.6514
  24343027.604    -3981689.82349  -2759067.78849  24343028.2124   24343035.5724
  23172348.019     2385600.52249   1850878.43949  23172348.2274   23172353.5884
 98  4 24 16 53 29.9990000  0  8 19  2 15 27 26  7  4 13
  24032178.257     2451760.50449   1900785.12449  24032178.7794   24032187.2744
  21152316.738     -968090.32649   -750621.64549  21152316.3664   21152321.5164
  23426498.185     -638171.42949   -493701.93349  23426497.0444   23426504.1454
  21014134.949      981531.93749    760304.68349  21014134.8874   21014139.7574
  22519194.402    -1586108.39349  -1122209.00249  22519194.8064   22519199.5584
  20105270.315    -1888811.58249  -1463027.50149  20105269.8014   20105274.9404
  24316278.296    -4122257.28849  -2868600.69249  24316276.9224   24316285.4664
  23184307.976     2448450.12949   1899852.04649  23184307.8784   23184314.2204
 98  4 24 16 53 59.9990000  0  8 19  2 15 27 26  7  4 13
  24044339.763     2515668.99649   1950583.75549  24044340.0704   24044348.9564
  21147267.565     -994623.89449   -771297.15549  21147267.1724   21147272.0134
  23424587.612     -648211.72749   -501525.55949  23424587.9054   23424593.8424
  21019940.698     1012041.32949    784078.20349  21019940.6684   21019945.8444
  22512478.384    -1621401.31849  -1149709.98749  22512478.6454   22512483.3294
  20096818.401    -1933226.64349  -1497636.63549  20096817.8724   20096822.9024
  24289500.240    -4262976.40649  -2978251.77349  24289500.2094   24289509.3944
  23196268.800     2511304.20649   1948829.15249  23196269.2074   23196274.7534
 98  4 24 16 54 29.9990000  0  8 19  2 15 27 26  7  4 13
  24056519.882     2579675.67849   2000458.89249  24056520.5474   24056528.2074
  21142234.314    -1021073.82649   -791907.49549  21142233.6564   21142238.8914
  23422772.100     -657752.55449   -508959.97149  23422771.6434   23422779.0824
  21025813.329     1042902.03149    808125.47549  21025813.4824   21025818.1954
  22505850.880    -1656229.18149  -1176848.58749  22505851.5534   22505856.3964
  20088443.989    -1977234.52649  -1531928.49549  20088443.6804   20088448.7534
  24262699.262    -4403816.18949  -3087996.87549  24262698.4034   24262706.5214
  23208236.070     2574192.14749   1997832.62049  23208235.8734   23208240.8574
 98  4 24 16 54 59.9990000  0  8 19  2 15 27 26  7  4 13
  24068726.039     2643818.38749   2050440.02849  24068726.9274   24068735.4764
  21137223.239    -1047407.04349   -812426.88649  21137222.8954   21137228.0674
  23421056.153     -666770.14549   -515986.68549  23421055.4214   23421061.8034
  21031759.965     1074151.65649    832475.79749  21031760.0164   21031764.7294
  22499317.652    -1690561.82949  -1203601.30449  22499318.2364   22499322.5144
  20080150.891    -2020815.07849  -1565887.36049  20080150.3414   20080155.4114
  24235879.809    -4544752.92549  -3197817.56249  24235879.8694   24235888.1224
  23220212.543     2637128.29649   2046873.66549  23220213.6314   23220219.7164
 98  4 24 16 55 29.9990000  0  8 19  2 15 27 26  7  4 13
  24080951.868     2708064.80249   2100501.97349  24080952.3744   24080960.8114
  21132229.456    -1073649.69149   -832875.71149  21132228.9524   21132234.4274
  23419433.534     -675297.11749   -522631.08649  23419432.6144   23419439.4144
  21037779.704     1105785.38449    857125.41049  21037779.8784   21037784.7034
  22492871.330    -1724437.70749  -1229998.10549  22492872.1594   22492876.2674
  20071930.730    -2064012.01549  -1599547.31249  20071930.3924   20071935.4974
  24209034.621    -4685824.75549  -3307743.49949  24209034.2944   24209042.9244
  23232187.659     2700057.49949   2095909.29549  23232188.8704   23232193.6504
 98  4 24 16 55 59.9990000  0  8 19  2 15 27 26  7  4 13
  24093196.365     2772409.39749   2150640.42549  24093197.7264   24093205.6774
  21127248.511    -1099824.75549   -853271.86549  21127248.2304   21127253.4394
  23417903.923     -683335.35549   -528894.66249  23417903.1634   23417908.7254
  21043875.209     1137817.20749    882085.24349  21043875.0484   21043880.4354
  22486508.508    -1757874.66449  -1256052.88549  22486509.1544   22486513.3824
  20063781.653    -2106835.87149  -1632916.54649  20063781.3734   20063786.3794
  24182161.610    -4827042.69749  -3417783.29249  24182162.2174   24182168.3454
  23244157.730     2762960.12949   2144924.21749  23244158.4444   23244163.9184
 98  4 24 16 56 29.9990000  0  8 19  2 15 27 26  7  4 13
  24105453.858     2836822.31149   2200832.09849  24105453.6324   24105462.9604
  21122274.594    -1125963.11349   -873639.42249  21122274.1344   21122279.3954
  23416463.380     -690905.53749   -534793.52549  23416462.7804   23416468.9544
  21050040.423     1170215.62049    907330.73049  21050040.6404   21050045.2244
  22480223.534    -1790902.52149  -1281788.88649  22480223.9154   22480229.0574
  20055699.169    -2149309.69549  -1666013.03049  20055698.8194   20055703.9864
  24155258.304    -4968419.79649  -3527947.10649  24155258.9624   24155265.5114
  23256113.584     2825788.06249   2193880.92549  23256114.1674   23256118.9824
 98  4 24 16 56 59.9990000  0  8 19  2 15 27 26  7  4 13
  24117716.425     2901261.97649   2251044.60049  24117717.8414   24117724.9994
  21117305.273    -1152076.96849   -893987.88049  21117304.9544   21117310.0454
  23415111.127     -698011.68549   -540330.78749  23415110.8964   23415116.0484
  21056273.407     1202970.02149    932853.60749  21056273.1754   21056278.6314
  22474013.446    -1823536.97449  -1307218.33949  22474013.8944   22474019.0224
  20047680.206    -2191449.60149  -1698849.31549  20047679.6704   20047684.8304
  24128327.910    -5109939.47449  -3638222.00249  24128327.9164   24128335.6494
  23268054.135     2888535.51949   2242774.93149  23268054.9314   23268060.5844
 98  4 24 16 57 29.9990000  0  8 19  2 15 27 26  7  4 13
  24129984.829     2965731.99049   2301280.79149  24129985.5294   24129994.8144
  21112337.678    -1178181.99949   -914329.46349  21112337.2434   21112342.5674
  23413847.450     -704652.48349   -545505.44949  23413847.6614   23413851.6834
  21062571.495     1236066.55949    958643.07949  21062571.5154   21062576.6384
  22467876.573    -1855786.48149  -1332347.83249  22467876.8734   22467881.5764
  20039725.017    -2233254.51149  -1731424.56549  20039724.4674   20039729.7694
  24101372.011    -5251593.03349  -3748601.23749  24101371.7184   24101380.2194
  23279981.116     2951211.91049   2291613.56949  23279981.7544   23279987.8854
 98  4 24 16 57 59.9990000  0  8 19  2 15 27 26  7  4 13
  24142262.778     3030252.19649   2351556.07549  24142262.3304   24142271.3744
  21107375.464    -1204258.66749   -934648.94749  21107375.1084   21107380.4014
  23412675.853     -710809.64749   -550303.25149  23412675.6524   23412680.8434
  21068932.098     1269491.39549    984688.36549  21068932.0024   21068936.8334
  22461818.125    -1887623.67449  -1357156.03449  22461818.3674   22461822.9874
  20031838.636    -2274697.76849  -1763718.00649  20031838.2174   20031843.4354
  24074394.600    -5393359.56649  -3859068.48749  24074394.8634   24074402.2344
  23291900.456     3013848.30049   2340421.01649  23291901.2924   23291905.7124
 98  4 24 16 58 29.9990000  0  8 19  2 15 27 26  7  4 13
  24154551.735     3094830.79749   2401876.84049  24154551.1824   24154562.0554
  21102421.650    -1230291.28349   -954934.10849  21102421.2484   21102426.4604
  23411595.107     -716489.23149   -554728.91849  23411594.3904   23411600.6224
  21075353.055     1303233.63049   1010980.98349  21075352.9274   21075358.3624
  22455840.353    -1919037.31949  -1381634.21349  22455840.8054   22455845.0734
  20024022.986    -2315769.34049  -1795721.82749  20024022.5984   20024027.6634
  24047395.760    -5535238.56649  -3969623.37649  24047395.9744   24047403.2634
  23303810.787     3076437.11149   2389191.40149  23303811.3574   23303817.5814
 98  4 24 16 58 59.9990000  0  8 19  2 15 27 26  7  4 13
  24166847.419     3159444.32249   2452224.82049  24166848.7894   24166857.2914
  21097470.719    -1256308.63849   -975207.38049  21097470.2954   21097475.3554
  23410599.908     -721719.16349   -558804.19149  23410599.5894   23410604.7074
  21081832.453     1337282.82849   1037512.79049  21081832.4314   21081837.2824
  22449939.938    -1950044.17249  -1405795.40749  22449940.3504   22449945.0784
  20016273.967    -2356490.71249  -1827452.76449  20016273.6224   20016278.6114
  24020371.343    -5677252.12249  -4080283.13249  24020370.7634   24020379.8724
  23315708.566     3138959.74549   2437910.19749  23315708.8614   23315714.5344
 98  4 24 16 59 29.9990000  0  8 19  2 15 27 26  7  4 13
  24179160.337     3224148.22249   2502643.20949  24179160.9654   24179170.1894
  21092532.525    -1282259.16149   -995428.57149  21092532.1744   21092537.2924
  23409697.619     -726461.15249   -562499.26249  23409697.3644   23409702.7294
  21088378.935     1371684.78649   1064319.47449  21088378.8794   21088383.8194
  22444127.743    -1980587.43149  -1429595.35949  22444128.3634   22444133.1254
  20008599.583    -2396819.77749  -1858878.00649  20008599.0554   20008604.0574
  23993328.230    -5819363.89049  -4191019.41549  23993328.1654   23993335.6274
  23327601.114     3201454.69249   2486607.42549  23327602.6174   23327607.3314
 98  4 24 16 59 59.9990000  0  8 19  2 15 27 26  7  4 13
  24191480.719     3288891.03049   2553091.89749  24191482.4654   24191489.9014
  21087599.734    -1308181.11049  -1015627.49849  21087599.2094   21087604.6804
  23408879.046     -730762.78249   -565851.21049  23408878.1214   23408884.7864
  21094984.684     1406397.92349   1091368.62849  21094984.7764   21094989.9244
  22438398.239    -2010696.21849  -1453056.76149  22438398.1604   22438403.4474
  20000989.209    -2436812.56549  -1890041.21149  20000988.9434   20000993.9724
  23966258.723    -5961614.22449  -4301863.66349  23966258.7044   23966266.7294
  23339478.220     3263868.67549   2535241.57049  23339478.5054   23339483.8864
 98  4 24 17  0 29.9990000  0  8 19  2 15 27 26  7  4 13
  24203818.356     3353724.17749   2603610.98449  24203818.4754   24203827.8494
  21082682.348    -1334022.10949  -1035763.35149  21082681.8034   21082687.3334
  23408155.526     -734565.11749   -568814.07149  23408154.9924   23408160.8964
  21101662.353     1441489.25849   1118712.49149  21101662.5034   21101667.5194
  22432761.568    -2040317.32549  -1476138.15149  22432762.0624   22432766.9334
  19993451.654    -2476422.83349  -1920906.35749  19993451.3224   19993456.3194
  23939174.563    -6103941.84249  -4412768.16649  23939174.6444   23939181.5654
  23351350.396     3326256.94249   2583855.68249  23351351.6064   23351356.7104
 98  4 24 17  0 59.9990000  0  8 19  2 15 27 26  7  4 13
  24216174.854     3418657.19949   2654207.89549  24216175.2314   24216184.8254
  21077783.314    -1359766.86349  -1055824.20449  21077782.9544   21077788.1444
  23407530.494     -737849.62849   -571373.42849  23407529.3554   23407536.8124
  21108412.208     1476959.77849   1146351.82149  21108412.2104   21108417.5234
  22427219.561    -2069440.79849  -1498831.77349  22427219.8594   22427224.9864
  19985987.541    -2515647.09049  -1951470.70749  19985987.2094   19985992.2234
  23912079.699    -6246325.94549  -4523716.66549  23912079.0424   23912088.0444
  23363223.143     3388648.37449   2632472.23349  23363224.7664   23363229.4294
 98  4 24 17  1 29.9990000  0  8 19  2 15 27 26  7  4 13
  24228547.367     3483674.37949   2704870.38149  24228547.3364   24228557.5354
  21072902.648    -1385414.97349  -1075809.74949  21072902.3634   21072907.6624
  23407001.834     -740627.94649   -573538.37249  23407001.3304   23407005.8894
  21115228.555     1512779.73949   1174263.44449  21115228.5314   21115233.9404
  22421767.328    -2098092.42849  -1521157.73149  22421767.8334   22421772.5194
  19978594.185    -2554499.51649  -1981745.32349  19978593.7574   19978598.8124
  23884969.499    -6388790.33149  -4634727.74249  23884969.5604   23884977.2224
  23375094.684     3451033.56249   2681083.93149  23375095.3184   23375101.4844
 98  4 24 17  1 59.9990000  0  7  2 15 27 26  7  4 13
  21068038.604    -1410975.89449  -1095727.35849  21068038.2914   21068043.3924
  23406568.903     -742902.97149   -575311.12249  23406568.6104   23406573.5414
  21122109.684     1548940.13649   1202440.33949  21122110.1474   21122115.0474
  22416401.202    -2126291.45749  -1543131.01449  22416401.6684   22416406.2914
  19971273.438    -2592970.23449  -2011722.50449  19971272.9454   19971278.0954
  23857841.139    -6531349.86549  -4745812.95449  23857841.1904   23857848.4974
  23386963.578     3513404.50549   2729684.50749  23386963.5624   23386970.6044
 98  4 24 17  2 29.9990000  0  7  2 15 27 26  7  4 13
  21063193.414    -1436437.53249  -1115567.59649  21063192.9854   21063198.0634
  23406231.487     -744676.10849   -576692.80949  23406231.1334   23406235.5114
  21129054.115     1585433.05949   1230876.35249  21129054.0004   21129059.3544
  22411118.467    -2154052.67649  -1564763.13849  22411118.8154   22411123.5874
  19964027.247    -2631049.28249  -2041394.48549  19964026.7524   19964031.8334
  23830694.568    -6674005.39049  -4856972.97749  23830694.5634   23830702.6094
  23398827.152     3575747.26049   2778263.13249  23398827.3994   23398834.0074
 98  4 24 17  2 59.9990000  0  7  2 15 27 26  7  4 13
  21058377.341    -1461746.35349  -1135288.76249  21058376.9994   21058381.7664
  23405998.084     -745902.58849   -577648.51349  23405996.8764   23406002.8514
  21136072.429     1622314.37449   1259614.99849  21136072.7414   21136077.9164
  22405926.368    -2181337.50949  -1586024.05149  22405926.9804   22405931.8124
  19956865.870    -2668682.43649  -2070719.01949  19956865.3704   19956870.5494
  23803539.830    -6816703.89349  -4968166.49949  23803539.4234   23803547.4424
  23410692.251     3638098.30549   2826848.21249  23410693.2744   23410699.5634
 98  4 24 17  3 29.9990000  0  7  2 15 27 26  7  4 13
  21053589.795    -1486905.20749  -1154893.07349  21053589.4334   21053594.6094
  23405869.628     -746577.77749   -578174.64349  23405868.5344   23405875.9704
  21143170.102     1659612.62749   1288678.52849  21143170.0884   21143175.2554
  22400827.441    -2208132.75549  -1606903.47949  22400827.2404   22400832.4384
  19949792.015    -2705855.74549  -2099685.23349  19949791.7074   19949796.5884
  23776377.123    -6959444.60049  -5079392.90849  23776376.6374   23776384.2474
  23422556.920     3700446.80049   2875431.30249  23422559.4794   23422563.6684
 98  4 24 17  3 59.9990000  0  7  2 15 27 26  7  4 13
  21048826.522    -1511936.36949  -1174397.88049  21048826.0314   21048831.1354
  23405840.530     -746730.67449   -578293.79849  23405839.8444   23405845.7074
  21150343.403     1697308.23149   1318051.69049  21150343.2824   21150348.6144
  22395818.868    -2234452.91949  -1627412.71149  22395818.9674   22395824.3674
  19942798.712    -2742605.94749  -2128321.75149  19942798.3584   19942803.4864
  23749205.371    -7102232.89049  -5190656.39449  23749205.4874   23749212.9814
  23434412.594     3762747.98349   2923977.51949  23434413.6934   23434419.7444
 98  4 24 17  4 29.9990000  0  7  2 15 27 26  7  4 13
  21044090.481    -1536824.57749  -1193791.30049  21044090.2394   21044095.2744
  23405911.803     -746356.34649   -578002.12749  23405912.4244   23405917.4514
  21157593.613     1735408.24249   1347739.97049  21157593.5834   21157598.8724
  22390903.029    -2260285.91749  -1647542.33649  22390903.3004   22390908.1634
  19935884.078    -2778942.73849  -2156636.13249  19935883.6754   19935888.6704
  23722030.590    -7245036.99149  -5301932.19549  23722030.9504   23722037.9234
  23446259.765     3825004.38249   2972488.83049  23446260.8314   23446266.4604
 98  4 24 17  4 59.9990000  0  7  2 15 27 26  7  4 13
  21039378.490    -1561586.34049  -1213086.19149  21039378.0724   21039383.2864
  23406080.234     -745471.38549   -577312.58349  23406077.8794   23406089.7104
  21164918.627     1773901.14649   1377734.40049  21164918.4724   21164923.6834
  22386077.676    -2285643.38449  -1667301.40649  22386077.7814   22386083.1704
  19929044.704    -2814884.07549  -2184642.36849  19929044.2704   19929049.4124
  23694850.149    -7387870.82249  -5413231.16449  23694849.8174   23694858.1254
  23458098.191     3887214.96749   3020964.45149  23458099.3064   23458104.2044
 98  4 24 17  5 29.9990000  0  8  2 15  9 27 26  7  4 13
  21034691.583    -1586216.37049  -1232278.42749  21034691.2664   21034696.6374
  23406345.302     -744078.33749   -576227.07849  23406345.0544   23406351.2694
  24291616.924    -4127988.31249  -2853629.11349  24291617.5534   24291622.6974
  21172314.939     1812769.08249   1408021.05949  21172314.8314   21172320.3094
  22381344.197    -2310517.81949  -1686684.09749  22381344.7474   22381349.2164
  19922279.612    -2850435.07249  -2212344.44049  19922279.0934   19922284.1764
  23667665.084    -7530729.02749  -5524549.13449  23667665.0864   23667672.7614
  23469927.433     3949377.33449   3069402.48249  23469928.3674   23469934.9884
 98  4 24 17  5 59.9990000  0  8  2 15  9 27 26  7  4 13
  21030033.785    -1610693.26849  -1251351.34049  21030033.0914   21030038.4814
  23406710.954     -742157.09549   -574730.01049  23406711.2514   23406716.6254
  24265184.269    -4266892.57649  -2961866.16749  24265184.6424   24265190.2264
  21179782.127     1852009.21249   1438597.74449  21179782.2424   21179787.4234
  22376703.925    -2334902.69649  -1705685.31249  22376704.5004   22376709.3114
  19915590.612    -2885586.11549  -2239734.86449  19915590.0344   19915595.1634
  23640480.385    -7673585.03649  -5635865.38849  23640480.4464   23640488.2424
  23481752.876     4011519.60149   3117824.85049  23481753.2604   23481760.9794
 98  4 24 17  6 29.9990000  0  8  2 15  9 27 26  7  4 13
  21025401.655    -1635035.34949  -1270319.19549  21025401.2684   21025406.5244
  23407177.535     -739705.24249   -572819.49149  23407176.6194   23407183.2004
  24238755.727    -4405775.57649  -3070086.64549  24238755.2994   24238761.8344
  21187318.008     1891610.40649   1469455.77549  21187318.1554   21187323.4294
  22372154.684    -2358809.36249  -1724313.89249  22372155.0894   22372160.2284
  19908978.067    -2920335.38849  -2266812.21849  19908977.7814   19908982.6104
  23613295.005    -7816444.74249  -5747184.54249  23613294.9664   23613302.4624
  23493577.478     4073658.16749   3166244.34349  23493577.6154   23493584.4574
 98  4 24 17  6 59.9980000  0  8  2 15  9 27 26  7  4 13
  21020790.302    -1659268.11949  -1289201.87949  21020789.8604   21020794.8604
  23407742.571     -736735.98549   -570505.80149  23407741.4284   23407748.0064
  24212329.793    -4544644.99649  -3178296.55049  24212329.7634   24212335.6314
  21194920.407     1931560.93149   1500586.00349  21194920.2624   21194925.7594
  22367693.219    -2382254.24149  -1742582.64949  22367693.6384   22367698.3154
  19902440.232    -2954691.98749  -2293583.59549  19902439.7584   19902444.8214
  23586105.957    -7959323.70049  -5858518.67349  23586105.3794   23586112.7104
  23505399.683     4135783.76549   3214653.71549  23505399.6004   23505406.6854
 98  4 24 17  7 29.9980000  0  8  2 15  9 27 26  7  4 13
  21016199.098    -1683395.00849  -1308002.05649  21016198.7784   21016204.1554
  23408409.550     -733231.14549   -567774.77749  23408409.9354   23408416.1014
  24185908.580    -4683489.52449  -3286487.03249  24185908.6044   24185914.2164
  21202593.982     1971885.56349   1532007.75549  21202593.8404   21202599.2574
  22363321.754    -2405226.64149  -1760483.23149  22363321.8544   22363326.5614
  19895979.744    -2988642.04449  -2320038.18449  19895979.1104   19895984.0874
  23558914.425    -8102215.73849  -5969863.02249  23558914.3834   23558922.1514
  23517220.721     4197902.72049   3263057.92849  23517220.9574   23517227.2774
 98  4 24 17  7 59.9980000  0  8  2 15  9 27 26  7  4 13
  21011625.025    -1707431.96549  -1326732.16149  21011624.7554   21011630.0854
  23409177.277     -729196.85549   -564631.19149  23409176.7744   23409181.7424
  24159491.681    -4822311.43649  -3394659.88949  24159491.4024   24159497.2404
  21210340.313     2012592.60549   1563727.48649  21210340.4474   21210345.6174
  22359037.379    -2427741.35449  -1778027.18149  22359038.0304   22359043.1664
  19889595.749    -3022190.07849  -2346179.51249  19889595.3004   19889600.4394
  23531721.596    -8245114.67149  -6081212.73049  23531721.6784   23531729.3574
  23529039.174     4260008.57649   3311451.91349  23529039.3754   23529046.2594
 98  4 24 17  8 29.9980000  0  8  2 15  9 27 26  7  4 13
  21007061.949    -1731411.05049  -1345417.16849  21007061.8244   21007066.9764
  23410039.148     -724667.67349   -561101.98349  23410038.0184   23410045.4134
  24133075.709    -4961128.31149  -3502828.83149  24133075.1904   24133081.3554
  21218154.481     2053656.22549   1595725.07349  21218154.4474   21218159.5954
  22354834.522    -2449827.63749  -1795237.28249  22354834.9704   22354839.5284
  19883284.063    -3055358.23149  -2372024.82549  19883283.6794   19883288.7324
  23504523.225    -8388042.77949  -6192585.16049  23504523.4874   23504531.0244
  23540846.932     4322058.01149   3359801.93649  23540848.2604   23540853.8944
 98  4 24 17  8 59.9980000  0  8  2 15  9 27 26  7  4 13
  21002519.582    -1755281.39449  -1364017.44549  21002519.2784   21002524.3124
  23411002.312     -719606.40449   -557158.16349  23411003.2304   23411007.9674
  24106670.467    -5099888.42249  -3610953.53849  24106670.6994   24106676.3804
  21226047.001     2095131.65849   1628043.54849  21226046.8444   21226052.2494
  22350720.997    -2471444.49849  -1812081.60349  22350721.2184   22350726.5284
  19877054.092    -3088096.91749  -2397535.49249  19877053.6624   19877058.7084
  23477327.481    -8530957.00249  -6303946.79849  23477327.4844   23477335.2424
  23552648.219     4384073.30249   3408125.36449  23552649.0504   23552655.6674
 98  4 24 17  9 29.9980000  0  8  2 15  9 27 26  7  4 13
  20997991.475    -1779076.81549  -1382559.34349  20997991.0934   20997996.1394
  23412056.457     -714066.88249   -552841.67149  23412056.1314   23412061.3854
  24080266.433    -5238642.59949  -3719073.62349  24080265.9394   24080271.4264
  21234006.593     2136959.24749   1660636.42649  21234006.6334   21234011.8474
  22346685.741    -2492649.83349  -1828605.25249  22346686.5214   22346691.0774
  19870897.288    -3120451.13749  -2422746.57549  19870896.9144   19870901.9094
  23450126.976    -8673896.28549  -6415327.94649  23450127.3754   23450134.2474
  23564430.669     4445990.08449   3456372.04149  23564431.8234   23564438.1054
 98  4 24 17  9 59.9980000  0  8  2 15  9 27 26  7  4 13
  20993489.919    -1802732.71549  -1400992.52049  20993489.4704   20993494.8144
  23413209.181     -708009.15949   -548121.39049  23413209.3124   23413213.9254
  24053871.762    -5377347.41249  -3827155.24549  24053871.4914   24053878.0054
  21242038.922     2179169.21449   1693527.26549  21242038.9424   21242044.2044
  22342736.988    -2513400.86749  -1844774.91049  22342737.5654   22342742.0084
  19864820.344    -3152385.96749  -2447630.86049  19864820.0014   19864824.9644
  23422931.996    -8816806.36849  -6526686.34449  23422932.0324   23422938.7134
  23576203.429     4507855.74449   3504578.85049  23576203.7444   23576210.7534
 98  4 24 17 10 29.9980000  0  8  2 15  9 27 26  7  4 13
  20989018.191    -1826231.89149  -1419303.57749  20989017.8854   20989023.0034
  23414459.137     -701440.58949   -543003.05849  23414459.4174   23414464.9174
  24027487.525    -5515997.61149  -3935194.34249  24027487.2974   24027492.6494
  21250139.975     2221740.29249   1726699.48949  21250139.9944   21250145.2184
  22338876.263    -2533689.22949  -1860584.03649  22338876.5384   22338882.0154
  19858822.830    -3183902.97349  -2472189.57449  19858822.2934   19858827.4294
  23395738.978    -8959706.35549  -6638036.88849  23395738.8474   23395746.6304
  23587962.657     4569649.99649   3552730.02449  23587963.8224   23587970.2574
 98  4 24 17 10 59.9980000  0  8  2 15  9 27 26  7  4 13
  20984580.174    -1849553.95749  -1437476.62049  20984579.6684   20984585.1794
  23415806.527     -694360.10749   -537485.80349  23415806.8344   23415812.0814
  24001114.376    -5654589.17549  -4043187.70949  24001114.9144   24001119.8394
  21258312.031     2264684.49649   1760162.45849  21258312.0374   21258317.4864
  22335104.611    -2553509.59349  -1876028.48949  22335105.2384   22335109.7584
  19852904.713    -3215002.97349  -2496423.34049  19852904.3304   19852909.4244
  23368547.886    -9102596.08049  -6749379.41349  23368547.1314   23368554.7084
  23599708.499     4631373.93649   3600826.43949  23599708.2224   23599716.9684
 98  4 24 17 11 29.9980000  0  8  2 15  9 27 26  7  4 13
  20980172.854    -1872714.63749  -1455523.91149  20980172.4194   20980177.7184
  23417246.899     -686791.37349   -531588.11049  23417246.7374   23417252.5614
  23974746.754    -5793151.68949  -4151158.47049  23974746.4284   23974752.3904
  21266547.569     2307962.28549   1793885.35649  21266547.5454   21266552.9274
  22331418.831    -2572878.60449  -1891121.23549  22331419.2904   22331424.0784
  19847058.283    -3245726.29449  -2520363.59649  19847057.8384   19847063.0014
  23341354.648    -9245497.21749  -6860730.84949  23341354.9964   23341361.0084
  23611437.588     4693009.83949   3648854.21849  23611438.3514   23611444.8034
 98  4 24 17 11 59.9980000  0  8  2 15  9 27 26  7  4 13
  20975794.327    -1895723.82049  -1473453.15649  20975793.8904   20975798.7734
  23418780.633     -678732.00749   -525308.10649  23418780.3864   23418785.5254
  23948385.097    -5931683.43649  -4259105.24449  23948385.3484   23948390.0054
  21274846.319     2351572.35149   1827867.17749  21274846.3404   21274851.6204
  22327821.795    -2591781.12449  -1905850.49149  22327821.9614   22327826.4474
  19841282.636    -3276077.61149  -2544013.97649  19841282.2464   19841287.3034
  23314158.287    -9388414.53149  -6972094.86849  23314158.3944   23314165.7564
  23623151.417     4754565.73749   3696819.67049  23623151.2734   23623157.5314
 98  4 24 17 12 29.9980000  0  8  2 15  9 27 26  7  4 13
  20971437.958    -1918616.93849  -1491291.95749  20971437.5164   20971442.7154
  23420404.658     -670197.93649   -518658.19949  23420404.8114   23420410.7714
  23922025.160    -6070206.00549  -4367044.87549  23922024.7474   23922031.0134
  21283206.261     2395503.89949   1862099.50249  21283206.4734   21283212.0544
  22324309.922    -2610236.08949  -1920230.99449  22324309.8324   22324315.3204
  19835577.574    -3306058.17649  -2567375.45849  19835577.2264   19835582.2104
  23286958.719    -9531348.85449  -7083472.15649  23286958.2844   23286965.4154
  23634846.804     4816024.84049   3744709.68749  23634847.5854   23634854.8524
 98  4 24 17 12 59.9980000  0  8  2 15  9 27 26  7  4 13
  20967103.811    -1941393.13349  -1509039.64849  20967103.4164   20967108.6574
  23422123.697     -661163.93249   -511618.74049  23422122.8624   23422128.9874
  23895669.761    -6208704.59349  -4474965.80549  23895670.2924   23895675.0324
  21291633.496     2439789.21249   1896607.48549  21291633.3694   21291638.8144
  22320883.947    -2628239.90349  -1934259.95149  22320884.1634   22320889.0284
  19829947.189    -3335646.06249  -2590430.95649  19829946.7644   19829951.8184
  23259764.298    -9674256.07749  -7194828.32349  23259764.3504   23259770.4884
  23646531.452     4877427.37849   3792555.63749  23646531.5474   23646538.1224
 98  4 24 17 13 29.9980000  0  8  2 15  9 27 26  7  4 13
  20962784.331    -1964092.38649  -1526727.38749  20962783.7374   20962788.8674
  23423934.205     -651649.36249   -504204.81149  23423933.6684   23423939.8504
  23869315.681    -6347196.15449  -4582881.27449  23869315.8964   23869321.1364
  21300122.879     2484401.19449   1931370.01549  21300123.0724   21300127.8334
  22317541.030    -2645807.12649  -1947948.71049  22317541.2384   22317546.3524
  19824388.542    -3364856.92449  -2613192.66949  19824387.9224   19824393.0914
  23232573.024    -9817146.65749  -7306171.53649  23232573.5644   23232579.2354
  23658200.790     4938749.42949   3840338.86649  23658201.5384   23658209.1234
 98  4 24 17 13 59.9980000  0  8  2 15  9 27 26  7  4 13
  20958481.870    -1986701.93149  -1544345.22749  20958481.5354   20958486.6934
  23425842.446     -641621.58849   -496390.99749  23425842.5974   23425848.6484
  23842973.580    -6485624.72349  -4690747.65749  23842973.3134   23842979.0744
  21308683.542     2529387.66749   1966424.35949  21308683.6754   21308689.0504
  22314287.294    -2662905.74849  -1961272.33049  22314288.1304   22314292.9354
  19818911.107    -3393640.84849  -2635621.70049  19818910.7144   19818915.7184
  23205394.020    -9959972.74149  -7417464.47249  23205394.2904   23205401.5034
  23669858.960     5000012.65049   3888076.24449  23669857.9184   23669866.9104
 98  4 24 17 14 29.9980000  0  8  2 15  9 27 26  7  4 13
  20954194.777    -2009230.79649  -1561900.19549  20954194.6534   20954199.6404
  23427845.004     -631098.05349   -488190.86349  23427845.3004   23427851.5574
  23816641.194    -6624002.16349  -4798574.21149  23816640.7434   23816646.7674
  21317315.538     2574748.92549   2001770.73549  21317315.8394   21317321.1674
  22311119.271    -2679553.94449  -1974244.96749  22311119.2644   22311124.4684
  19813511.821    -3422014.41049  -2657730.97349  19813511.3324   19813516.5014
  23178225.161   -10102745.64849  -7528715.98649  23178225.1494   23178232.4484
  23681499.300     5061182.52049   3935740.86949  23681499.3394   23681505.7274
 98  4 24 17 14 59.9980000  0  8  2 15  9 27 26  7  4 13
  20949924.888    -2031669.38449  -1579384.81249  20949924.3794   20949929.8244
  23429941.215     -620082.38249   -479607.25849  23429940.6704   23429947.0224
  23790320.613    -6762317.08849  -4906352.03349  23790320.2244   23790325.9894
  21326018.107     2620480.99349   2037406.06049  21326018.3354   21326023.4444
  22308038.902    -2695741.49249  -1986858.65049  22308038.6864   22308044.3884
  19808185.770    -3450002.88949  -2679540.17749  19808185.1294   19808190.1524
  23151061.837   -10245489.60949  -7639944.94649  23151062.0334   23151068.9974
  23693120.109     5122249.41149   3983325.26049  23693121.6034   23693127.9684
 98  4 24 17 15 29.9980000  0  8  2 15  9 27 26  7  4 13
  20945672.084    -2054017.96449  -1596799.30049  20945671.9734   20945676.8584
  23432128.909     -608586.00349   -470649.06449  23432127.9854   23432134.8904
  23764010.906    -6900575.04949  -5014085.48549  23764010.5584   23764016.0844
  21334788.479     2666569.29449   2073318.95949  21334789.0634   21334793.5754
  22305047.194    -2711462.90449  -1999109.12149  22305047.6574   22305052.6174
  19802928.412    -3477630.55549  -2701068.23549  19802927.9684   19802933.0874
  23123902.294   -10388213.72749  -7751158.43649  23123902.3664   23123909.1004
  23704718.491     5183198.71149   4030818.00749  23704719.6144   23704726.3614
 98  4 24 17 15 59.9980000  0  8  2 15  9 27 26  7  4 13
  20941441.790    -2076248.53349  -1614121.83349  20941441.4524   20941446.5374
  23434408.474     -596607.09249   -461314.88849  23434408.4774   23434414.3164
  23737710.670    -7038783.27149  -5121780.16849  23737709.2864   23737715.8464
  21343626.542     2713013.22849   2109508.97149  21343626.3754   21343632.5134
  22302141.944    -2726730.31149  -2011005.81949  22302142.2184   22302147.4984
  19797737.136    -3504911.00849  -2722325.73549  19797736.7024   19797741.7634
  23096745.611   -10530922.64049  -7862360.08849  23096745.7264   23096752.4944
  23716296.468     5244040.32149   4078226.82549  23716296.1004   23716305.1404
 98  4 24 17 16 29.9980000  0  8  2 15  9 27 26  7  4 13
  20937259.246    -2098227.92849  -1631248.63849  20937258.7474   20937264.0124
  23436799.494     -584042.42749   -451524.26649  23436799.3214   23436805.7234
  23711437.200    -7176851.11049  -5229365.46349  23711438.0534   23711443.4914
  21352548.062     2759895.91449   2146040.88049  21352547.9594   21352553.7024
  22299340.000    -2741454.86849  -2022479.51049  22299340.1784   22299344.7154
  19792627.718    -3531761.32249  -2743248.05849  19792627.4294   19792632.4954
  23069609.383   -10673524.27849  -7973478.14449  23069609.5024   23069616.1684
  23727876.855     5304894.36549   4125645.34349  23727877.8324   23727885.5534
 98  4 24 17 16 59.9980000  0  8  2 15  9 27 26  7  4 13
  20933110.570    -2120029.43849  -1648236.83649  20933110.1894   20933115.5774
  23439287.799     -570966.27549   -441335.08849  23439287.5394   23439294.1744
  23685177.415    -7314847.08749  -5336894.75749  23685177.4634   23685182.6364
  21361535.117     2807123.06449   2182841.19749  21361535.0474   21361540.6454
  22296624.912    -2755722.66349  -2033597.28449  22296625.2884   22296630.9304
  19787586.396    -3558253.83449  -2763891.57249  19787585.9094   19787591.0034
  23042481.647   -10816081.08449  -8084561.26349  23042481.7324   23042488.6224
  23739449.302     5365706.66449   4173031.31949  23739449.9414   23739458.2814
 98  4 24 17 17 29.9980000  0  8  2 15  9 27 26  7  4 13
  20928999.195    -2141634.94849  -1665072.31149  20928998.8964   20929004.0534
  23441874.948     -557370.68449   -430741.16249  23441875.2874   23441880.6194
  23658932.211    -7452766.35149  -5444364.28649  23658931.2034   23658936.9814
  21370589.917     2854706.09849   2219918.82249  21370589.9184   21370595.5004
  22293994.643    -2769544.75649  -2044367.75849  22293995.3884   22293999.9644
  19782619.646    -3584353.97049  -2784229.34349  19782619.1884   19782624.2284
  23015368.800   -10958559.60149  -8195583.38449  23015368.7724   23015375.2394
  23751014.833     5426482.73249   4220389.07149  23751016.0844   23751023.9974
 98  4 24 17 17 59.9980000  0  8  2 15  9 27 26  7  4 13
  20924923.391    -2163053.61349  -1681762.19049  20924923.0674   20924928.1864
  23444558.841     -543267.06349   -419751.34649  23444559.5394   23444565.8504
  23632702.092    -7590606.56549  -5551772.21349  23632701.5514   23632707.5554
  21379709.925     2902631.66449   2257263.35149  21379710.1754   21379715.5504
  22291445.053    -2782943.40049  -2054808.27249  22291445.7434   22291450.8384
  19777728.278    -3610058.42849  -2804258.79449  19777727.6844   19777732.9164
  22988269.503   -11100966.97749  -8306550.07149  22988269.6924   22988277.3244
  23762571.399     5487212.06549   4267710.40849  23762572.7234   23762579.9104
 98  4 24 17 18 29.9980000  0  8  2 15  9 27 26  7  4 13
  20920877.301    -2184315.94049  -1698330.24949  20920876.8884   20920881.9864
  23447338.197     -528661.78449   -408370.64249  23447337.7764   23447344.0284
  23606487.724    -7728363.73149  -5659115.42449  23606487.4294   23606492.8244
  21388894.317     2950895.68249   2294871.60949  21388894.1674   21388900.5714
  22288975.932    -2795918.79149  -2064918.99249  22288976.5634   22288981.1584
  19772915.403    -3635350.27949  -2823966.73749  19772914.9364   19772919.9334
  22961186.319   -11243289.89949  -8417450.95349  22961186.1124   22961193.5624
  23774117.015     5547883.57749   4314986.67949  23774118.1804   23774125.7004
 98  4 24 17 18 59.9980000  0  8  2 15  9 27 26  7  4 13
  20916861.843    -2205417.38849  -1714772.94449  20916861.4684   20916866.7764
  23450215.389     -513541.95849   -396588.99249  23450215.1244   23450221.5334
  23580292.593    -7866020.02049  -5766380.02949  23580291.8044   23580297.7064
  21398149.118     2999529.89049   2332768.33649  21398149.2404   21398154.9794
  22286592.575    -2808443.53849  -2074678.54649  22286593.0034   22286597.9324
  19768188.920    -3660188.14149  -2843320.91649  19768188.4984   19768193.5194
  22934124.164   -11385502.15449  -8528265.59749  22934124.3564   22934130.4304
  23785650.748     5608492.84549   4362214.44549  23785651.8264   23785658.7024
 98  4 24 17 19 29.9980000  0  8  2 15  9 27 26  7  4 13
  20912883.156    -2226325.62649  -1731065.08349  20912882.6534   20912887.9514
  23453195.639     -497880.01949   -384384.91649  23453194.8514   23453202.0384
  23554124.933    -8003531.83049  -5873532.04749  23554126.0684   23554131.1274
  21407481.142     3048569.46349   2370980.92949  21407481.5094   21407487.0604
  22284302.592    -2820477.55849  -2084055.71849  22284303.2184   22284308.1114
  19763552.838    -3684550.83449  -2862304.83449  19763552.1784   19763557.3394
  22907086.153   -11527587.48449  -8638981.33249  22907086.4044   22907092.2704
  23797176.060     5669057.80649   4409407.67749  23797177.4374   23797184.3024
 98  4 24 17 19 59.9980000  0  8  2 15  9 27 26  7  4 13
  20908908.680    -2247211.70949  -1747339.96249  20908908.3044   20908913.4214
  23456246.481     -481847.61649   -371892.16649  23456246.2294   23456252.9804
  23527955.899    -8141051.05949  -5980689.84949  23527956.1354   23527960.4264
  21416856.452     3097836.66849   2409370.89949  21416856.7094   21416861.9044
  22282075.714    -2832180.05049  -2093174.55949  22282075.9704   22282081.0304
  19758971.339    -3708626.72649  -2881065.27449  19758970.9294   19758975.9854
  22880037.663   -11669728.05749  -8749740.12349  22880037.5104   22880043.9744
  23808659.996     5729405.32549   4456431.46949  23808659.9684   23808668.4154
 98  4 24 17 20 29.9980000  0  8  2 15  9 27 26  7  4 13
  20904973.974    -2267888.79849  -1763451.98249  20904973.5584   20904979.0044
  23459403.631     -465257.09149   -358964.51449  23459403.7334   23459409.9964
  23501823.217    -8278379.20849  -6087698.76349  23501822.3274   23501828.5774
  21426311.152     3147521.00149   2448085.90649  21426311.2334   21426316.7744
  22279949.584    -2843352.95949  -2101880.74649  22279949.6624   22279955.1974
  19754479.731    -3732230.49449  -2899457.82249  19754479.3794   19754484.4344
  22853014.295   -11811736.68149  -8860396.08949  22853014.9374   22853020.1914
  23820134.329     5789702.23349   4503415.81049  23820136.2934   23820142.6984
 98  4 24 17 20 59.9980000  0  8  2 15  9 27 26  7  4 13
  20901059.241    -2288460.80049  -1779482.12349  20901058.7784   20901064.2364
  23462644.732     -448225.42149   -345693.11649  23462644.4594   23462651.5804
  23475707.307    -8415619.19249  -6194638.97649  23475707.3464   23475712.2364
  21435822.227     3197501.73549   2487031.86749  21435822.2094   21435827.6664
  22277903.482    -2854105.47349  -2110259.34549  22277903.6084   22277908.6544
  19750051.287    -3755502.03249  -2917591.49549  19750050.8444   19750055.8714
  22825992.451   -11953737.15649  -8971045.71849  22825991.8854   22825999.4554
  23831576.264     5849829.22449   4550267.76449  23831576.5234   23831584.9744
 98  4 24 17 21 29.9980000  0  8  2 15  9 27 26  7  4 13
  20897174.957    -2308872.83149  -1795387.61349  20897174.7574   20897179.7484
  23465979.666     -430700.19449   -332037.11549  23465979.0214   23465986.1854
  23449619.566    -8552711.12549  -6301463.83049  23449619.7664   23449624.4444
  21445397.803     3247821.52549   2526242.03849  21445398.1204   21445403.5934
  22275947.125    -2864386.31149  -2118270.41049  22275946.8634   22275952.1254
  19745692.301    -3778408.80349  -2935440.93649  19745691.8924   19745696.9714
  22798983.372   -12095670.65249  -9081643.14849  22798983.1024   22798990.4904
  23842997.793     5909848.92549   4597036.08149  23842997.6264   23843004.9984
 98  4 24 17 21 59.9980000  0  8  2 15  9 27 26  7  4 13
  20893316.994    -2329146.74649  -1811185.47549  20893316.8184   20893322.2014
  23469405.729     -412696.37049   -318008.19349  23469405.9184   23469411.9464
  23423553.042    -8689691.54449  -6408201.77749  23423552.9624   23423558.9904
  21455034.606     3298463.09349   2565702.94549  21455034.2894   21455040.3554
  22274076.287    -2874217.85949  -2125931.37949  22274077.0274   22274081.9234
  19741400.916    -3800960.38049  -2953013.59649  19741400.4834   19741405.5124
  22771988.646   -12237528.33049  -9192181.49249  22771988.8004   22771995.9494
  23854394.428     5969737.67749   4643702.36749  23854395.5864   23854403.0504
 98  4 24 17 22 29.9980000  0  8  2 15  9 27 26  7  4 13
  20889493.791    -2349237.85249  -1826840.89049  20889493.2954   20889498.7614
  23472932.755     -394161.70349   -303565.61449  23472931.7774   23472938.7644
  23397512.044    -8826537.94849  -6514835.31049  23397511.9704   23397518.2714
  21464741.902     3349475.21749   2605452.58849  21464741.8984   21464747.6334
  22272299.369    -2883555.86749  -2133207.76849  22272299.3184   22272304.9354
  19737186.743    -3823106.04649  -2970269.96449  19737186.2104   19737191.2954
  22745020.301   -12379247.57049  -9302611.96549  22745021.0604   22745027.1984
  23865775.476     6029544.60949   4690304.88349  23865776.5774   23865783.8204
 98  4 24 17 22 59.9980000  0  7  2 15  9 27 26  7  4
  20885703.068    -2369158.24349  -1842363.27949  20885702.6294   20885708.0474
  23476556.653     -375117.99149   -288726.38549  23476555.9394   23476562.6204
  23371488.903    -8963290.32349  -6621395.56049  23371488.8754   23371494.2744
  21474516.774     3400842.21449   2645478.75549  21474517.3214   21474522.4074
  22270609.433    -2892436.28849  -2140127.59949  22270609.6584   22270614.5964
  19733044.491    -3844873.69449  -2987231.77449  19733044.1884   19733049.1294
  22718075.899   -12520840.82849  -9412944.27149  22718076.2534   22718081.7064
 98  4 24 17 23 29.9980000  0  7  2 15  9 27 26  7  4
  20881944.314    -2388910.64649  -1857754.76649  20881943.7414   20881949.0734
  23480278.573     -355559.39849   -273485.94349  23480278.3424   23480283.7824
  23345483.632    -9099948.91849  -6727882.73449  23345483.3484   23345488.9534
  21484361.735     3452577.35949   2685791.78949  21484361.5764   21484367.2864
  22269004.933    -2900868.26549  -2146697.98549  22269005.1394   22269010.1184
  19728977.176    -3866247.72249  -3003886.86149  19728976.7244   19728981.8884
  22691158.876   -12662290.04149  -9523164.32649  22691158.4584   22691165.1514
 98  4 24 17 23 59.9980000  0  7  2 15  9 27 26  7  4
  20878216.975    -2408497.95949  -1873017.61249  20878216.6614   20878221.8434
  23484099.336     -335481.51849   -257840.87049  23484098.7774   23484105.8274
  23319496.974    -9236509.81149  -6834293.79349  23319496.9184   23319502.4624
  21494278.892     3504692.07349   2726400.58349  21494278.8004   21494284.7084
  22267485.972    -2908850.44149  -2152917.88249  22267486.4504   22267491.8634
  19724986.635    -3887218.18349  -3020227.48749  19724986.1564   19724991.2684
  22664269.034   -12803596.70649  -9633273.32349  22664269.0534   22664275.6794
 98  4 24 17 24 29.9980000  0  7  2 15  9 27 26  7  4
  20874498.954    -2428036.37049  -1888242.34749  20874498.2764   20874503.8564
  23487995.102     -315009.79949   -241888.91349  23487995.5394   23488000.6324
  23293509.831    -9373072.92349  -6940706.56249  23293509.0794   23293514.8424
  21504247.181     3557075.45449   2767218.73049  21504246.7804   21504252.9894
  22266028.656    -2916508.80749  -2158885.46249  22266029.1594   22266033.6324
  19721049.007    -3907910.47849  -3036351.35549  19721048.4424   19721053.6754
  22637379.690   -12944900.74349  -9743380.27749  22637379.8284   22637385.3484
 98  4 24 17 24 59.9980000  0  7  2 15  9 27 26  7  4
  20870789.214    -2447531.30249  -1903433.21149  20870788.8544   20870794.1924
  23491963.713     -294154.85249   -225638.33549  23491962.6634   23491969.2114
  23267525.779    -9509620.06949  -7047106.89949  23267526.0974   23267530.2964
  21514266.645     3609727.53149   2808246.24649  21514266.1134   21514272.0964
  22264633.707    -2923839.41049  -2164597.64049  22264633.6554   22264639.1054
  19717165.618    -3928317.78549  -3052253.15849  19717165.2314   19717170.4014
  22610489.791   -13086207.83149  -9853489.58949  22610489.6744   22610496.7014
 98  4 24 17 25 29.9980000  0  7  2 15  9 27 26  7  4
  20867108.790    -2466872.08549  -1918503.95649  20867108.1524   20867113.7594
  23496024.417     -272815.68649   -209010.43549  23496023.8314   23496030.9614
  23241566.766    -9646035.50049  -7153404.59249  23241566.3484   23241571.9324
  21524353.035     3662731.77749   2849548.17849  21524352.4814   21524358.4044
  22263323.424    -2930725.03549  -2169963.08149  22263323.5924   22263328.8784
  19713358.106    -3948326.54749  -3067844.40149  19713357.6264   19713362.7464
  22583618.766   -13227415.84349  -9963521.71749  22583619.8454   22583624.8224
 98  4 24 17 25 59.9980000  0  7  2 15  9 27 26  7  4
  20863454.542    -2486075.24349  -1933467.46249  20863454.1314   20863459.4804
  23500169.181     -251034.83749   -192038.37349  23500168.3424   23500175.3504
  23215625.180    -9782358.89949  -7259630.58349  23215624.5284   23215630.8374
  21534496.071     3716033.53349   2891081.93849  21534496.3484   21534501.4784
  22262092.212    -2937195.24349  -2175004.83149  22262092.1644   22262097.9954
  19709618.861    -3967976.45949  -3083156.02949  19709618.4654   19709623.4234
  22556760.072   -13368559.13749 -10073503.40249  22556760.7194   22556766.1864
 98  4 24 17 26 29.9970000  0  7  2 15  9 27 26  7  4
  20859837.593    -2505082.53249  -1948278.34449  20859836.9854   20859842.5404
  23504406.050     -228770.11749   -174689.27649  23504404.6494   23504412.4474
  23189711.850    -9918534.25749  -7365741.21749  23189711.5474   23189716.8914
  21544701.827     3769664.78649   2932872.45049  21544701.4344   21544707.4904
  22260947.332    -2943211.84849  -2179693.11849  22260947.8274   22260952.8154
  19705956.063    -3987224.67249  -3098154.63749  19705955.5114   19705960.5724
  22529927.707   -13509563.78049 -10183377.05749  22529928.0654   22529934.9394
 98  4 24 17 26 59.9970000  0  7  2 15  9 27 26  7  4
  20856252.216    -2523923.59249  -1962959.70749  20856251.7374   20856257.0934
  23508728.419     -206056.20649   -156990.16149  23508727.9564   23508735.0044
  23163817.571   -10054609.55449  -7471773.87849  23163817.4534   23163822.1364
  21554960.726     3823575.44749   2974880.67949  21554960.3314   21554966.8144
  22259881.614    -2948812.28649  -2184057.12149  22259881.8544   22259886.8954
  19702362.439    -4006109.39449  -3112870.01249  19702361.9594   19702367.0504
  22503117.900   -13650450.09649 -10293158.50049  22503118.0764   22503123.3954
 98  4 24 17 27 29.9970000  0  7  2 15  9 27 26  7  4
  20852704.359    -2542567.73649  -1977487.61649  20852703.7244   20852709.2244
  23513140.652     -182869.96449   -138922.98749  23513140.5724   23513146.8194
  23137948.275   -10190553.36749  -7577704.07949  23137948.0024   23137953.9434
  21565276.818     3877786.75949   3017123.18049  21565276.7304   21565282.5074
  22258896.429    -2953989.47849  -2188091.31449  22258896.5574   22258901.4424
  19698838.830    -4024626.09649  -3127298.61449  19698838.3484   19698843.4574
  22476338.095   -13791178.45149 -10402816.86449  22476338.2154   22476344.3644
 98  4 24 17 27 59.9970000  0  7  2 15  9 27 26  7  4
  20849220.313    -2560876.75849  -1991754.39849  20849220.0454   20849225.1264
  23517672.516     -159055.03149   -120365.93249  23517672.9244   23517678.7744
  23112135.106   -10326202.31249  -7683404.51949  23112133.8334   23112139.9494
  21575684.382     3932478.57049   3059740.09849  21575684.2654   21575690.0994
  22258018.562    -2958602.78049  -2191686.12449  22258018.6144   22258023.9434
  19695413.119    -4042628.48749  -3141326.45949  19695412.6204   19695417.7724
  22449618.862   -13931588.37149 -10512227.11449  22449618.6124   22449624.5744
 98  4 24 17 28 29.9970000  0  7  2 15  9 27 26  7  4
  20845754.104    -2579091.86349  -2005947.99449  20845753.6954   20845758.8554
  23522280.816     -134838.68749   -101496.09449  23522280.5844   23522286.7044
  23086336.138   -10461776.39849  -7789046.62049  23086335.6424   23086341.4544
  21586141.860     3987432.59349   3102561.33549  21586142.2254   21586148.0544
  22257203.706    -2962884.88849  -2195022.85449  22257204.2584   22257208.9404
  19692041.130    -4060348.36849  -3155134.16149  19692040.7644   19692045.7954
  22422915.228   -14071916.56149 -10621573.66149  22422914.6894   22422922.2014
 98  4 24 17 28 59.9970000  0  7  2 15  9 27 26  7  4
  20842325.731    -2597108.04949  -2019986.59149  20842325.3884   20842330.6914
  23526986.644     -110109.47349    -82226.60349  23526986.0964   23526992.6544
  23060573.304   -10597160.54349  -7894540.71949  23060573.2174   23060578.7404
  21596671.685     4042766.89849   3145678.89949  21596671.9254   21596677.4764
  22256475.693    -2966710.78949  -2198004.10249  22256476.3024   22256481.2144
  19688744.256    -4077673.61449  -3168634.35949  19688743.8264   19688748.8124
  22396246.072   -14212063.25649 -10730778.79249  22396245.3624   22396252.1654
 98  4 24 17 29 29.9970000  0  7  2 15  9 27 26  7  4
  20838909.841    -2615058.78949  -2033974.18849  20838909.3434   20838914.6054
  23531768.507      -84980.80749    -62645.85649  23531768.1164   23531774.4194
  23034825.699   -10732464.90649  -7999972.64849  23034824.5534   23034830.9124
  21607253.298     4098373.15449   3189008.37149  21607253.2204   21607258.8804
  22255813.873    -2970188.87749  -2200714.32249  22255813.6714   22255819.4224
  19685501.205    -4094715.91949  -3181914.07849  19685500.5524   19685505.7074
  22369589.780   -14352142.49549 -10839931.37149  22369589.7354   22369596.8354
 98  4 24 17 29 59.9970000  0  7  2 15  9 27 26  7  4
  20835516.501    -2632891.03249  -2047869.45549  20835515.9924   20835521.4144
  23536637.706      -59393.19649    -42707.48049  23536637.4054   23536644.4924
  23009105.199   -10867626.95949  -8105293.68049  23009105.2084   23009110.9564
  21617895.155     4154296.29849   3232584.76349  21617895.1334   21617901.1454
  22255233.005    -2973241.45149  -2203092.97449  22255233.3334   22255238.0214
  19682326.103    -4111401.16249  -3194915.57249  19682325.6894   19682330.6434
  22342957.375   -14492095.94149 -10948985.91749  22342956.9834   22342963.4984
 98  4 24 17 30 29.9970000  0  7  2 15  9 27 26  7  4
  20832166.080    -2650497.70349  -2061588.95449  20832165.5424   20832170.9224
  23541610.829      -33259.42049    -22343.52549  23541609.9734   23541616.7054
  22983429.053   -11002556.04949  -8210433.19049  22983429.0634   22983434.0024
  21628611.177     4210609.22149   3276464.87249  21628611.2444   21628617.8984
  22254752.303    -2975767.65249  -2205061.46249  22254752.0764   22254757.3424
  19679238.098    -4127628.89749  -3207560.56149  19679237.5274   19679242.6034
  22316368.011   -14631823.34549 -11057864.33849  22316366.8614   22316374.3974
 98  4 24 17 30 59.9970000  0  7  2 15  9 27 26  7  4
  20828854.633    -2667899.33249  -2075148.67849  20828854.3044   20828859.4254
  23546683.199       -6603.98349     -1573.08749  23546683.3904   23546688.3744
  22957793.202   -11137273.25749  -8315407.59949  22957793.2404   22957798.6144
  21639396.375     4267285.49249   3320628.12249  21639396.0684   21639402.5414
  22254366.716    -2977794.16949  -2206640.59549  22254367.1124   22254372.4034
  19676234.331    -4143413.76349  -3219860.46449  19676233.7874   19676238.9934
  22289820.961   -14771328.72849 -11166569.75449  22289821.0784   22289827.7564
 98  4 24 17 31 29.9970000  0  7  2 15  9 27 26  7  4
  20825578.207    -2685117.11649  -2088565.14849  20825577.6634   20825583.0384
  23551847.392       20533.91749     19573.30449  23551846.9864   23551853.8814
  22932191.494   -11271811.23149  -8420242.34749  22932190.6654   22932197.2594
  21650240.754     4324272.77049   3365033.70949  21650240.8804   21650247.0744
  22254067.295    -2979367.57849  -2207866.66149  22254067.2304   22254072.9474
  19673309.182    -4158785.49049  -3231838.43949  19673308.6524   19673313.8364
  22263310.774   -14910640.43249 -11275124.25749  22263311.4204   22263316.7044
 98  4 24 17 31 59.9970000  0  7  2 15  9 27 26  7  4
  20822324.866    -2702213.64149  -2101887.13049  20822324.1354   20822329.5954
  23557083.938       48052.19449     41016.08449  23557083.6704   23557090.4194
  22906605.708   -11406265.31849  -8525011.73549  22906605.9574   22906611.0204
  21661124.363     4381465.98549   3409599.76549  21661124.5464   21661130.0454
  22253832.672    -2980600.72249  -2208827.58149  22253833.1824   22253837.7874
  19670444.567    -4173839.18449  -3243568.59549  19670444.1654   19670449.2124
  22236816.728   -15049867.26849 -11383612.63349  22236817.4724   22236823.5134
 98  4 24 17 32 29.9970000  0  7  2 15  9 27 26  7  4
  20819122.908    -2719040.07649  -2114998.64949  20819122.2324   20819127.7524
  23562419.978       76093.34249     62866.30849  23562420.4564   23562427.4114
  22881062.244   -11540496.99049  -8629607.80849  22881062.6504   22881067.4404
  21672076.043     4439016.97449   3454444.61249  21672075.9044   21672082.1304
  22253684.918    -2981377.33749  -2209432.75449  22253685.7444   22253690.7154
  19667664.997    -4188445.97349  -3254950.50849  19667664.2494   19667669.3584
  22210367.590   -15188858.24049 -11491917.20849  22210367.7124   22210374.0014
 98  4 24 17 32 59.9970000  0  7  2 15  9 27 26  7  4
  20815951.222    -2735707.42449  -2127986.20149  20815950.5474   20815956.4194
  23567835.442      104552.14749     85041.95849  23567835.2474   23567841.3544
  22855541.520   -11674609.22049  -8734110.81049  22855541.8884   22855547.0884
  21683075.342     4496818.42349   3499484.61849  21683075.3194   21683080.8054
  22253604.515    -2981799.83949  -2209762.00749  22253605.4004   22253609.7594
  19664947.370    -4202726.98949  -3266078.58149  19664946.8714   19664952.0304
  22183944.873   -15327710.61449 -11600113.80349  22183944.9054   22183950.7724
 98  4 24 17 33 29.9970000  0  7  2 15  9 27 26  7  4
  20812802.033    -2752256.50749  -2140881.60349  20812801.5274   20812806.8824
  23573321.544      133381.56249    107506.40049  23573321.3594   23573328.8594
  22830036.001   -11808641.53149  -8838551.54049  22830035.7254   22830041.8434
  21694113.400     4554823.58949   3544683.23749  21694114.2174   21694119.2714
  22253583.100    -2981912.57349  -2209849.87649  22253583.1554   22253588.7894
  19662280.921    -4216739.49149  -3276997.41649  19662280.3974   19662285.6744
  22157539.137   -15466473.82249 -11708240.89949  22157540.0244   22157545.3524
 98  4 24 17 33 59.9970000  0  7  2 15  9 27 26  7  4
  20809657.537    -2768780.84349  -2153757.71249  20809656.8844   20809662.4874
  23578863.733      162505.50549    130200.35549  23578862.2734   23578870.7234
  22804530.283   -11942674.61249  -8942992.87449  22804529.8924   22804535.0774
  21705180.705     4612982.26849   3590001.71049  21705181.2364   21705187.2884
  22253605.780    -2981793.31149  -2209756.96149  22253605.6994   22253611.5324
  19659648.687    -4230571.91449  -3287775.93349  19659647.9794   19659653.1524
  22131136.992   -15605217.92249 -11816353.12149  22131137.3924   22131143.4464
 98  4 24 17 34 29.9970000  0  7  2 15  9 27 26  7  4
  20806543.855    -2785143.34649  -2166507.72949  20806543.3304   20806548.8794
  23584490.927      192076.74149    153242.86049  23584490.0674   23584496.5694
  22779053.525   -12076555.89749  -9047315.92249  22779053.1704   22779059.0744
  21716308.445     4671458.66249   3635567.64949  21716309.1724   21716314.5944
  22253705.492    -2981269.26649  -2209348.65349  22253705.8004   22253710.8854
  19657078.423    -4244078.50549  -3298300.55549  19657077.9184   19657082.9284
  22104771.586   -15743768.88749 -11924314.84149  22104771.3054   22104778.3514
 98  4 24 17 34 59.9970000  0  7  2 15  9 27 26  7  4
  20803466.313    -2801315.91649  -2179109.73749  20803465.9604   20803471.5894
  23590205.985      222109.41649    176644.91349  23590206.2104   23590214.0124
  22753611.633   -12210253.67749  -9151495.95349  22753611.0434   22753618.0904
  21727501.306     4730277.16249   3681400.14549  21727501.8634   21727507.2874
  22253888.899    -2980305.65149  -2208597.81149  22253889.1234   22253894.3144
  19654575.272    -4257232.53249  -3308550.44449  19654574.6514   19654579.8164
  22078443.688   -15882122.38849 -12032122.70349  22078443.7414   22078449.0324
 98  4 24 17 35 29.9970000  0  7  2 15  9 27 26  7  4
  20800427.954    -2817282.64149  -2191551.35449  20800427.6544   20800432.8254
  23596011.478      252617.01249    200417.04049  23596011.8714   23596018.2614
  22728208.002   -12343750.46749  -9255519.40649  22728207.6494   22728213.4304
  21738763.250     4789458.68249   3727515.52749  21738763.1474   21738769.5634
  22254154.346    -2978910.84049  -2207510.97449  22254154.3804   22254159.6664
  19652143.875    -4270009.45749  -3318506.49549  19652143.2744   19652148.4684
  22052154.173   -16020274.67549 -12139773.75049  22052154.1014   22052160.2394
 98  4 24 17 35 59.9970000  0  6  2  9 27 26  7  4
  20797431.153    -2833031.08149  -2203822.87649  20797430.7184   20797436.1754
  22702846.171   -12477027.63649  -9359371.70249  22702845.4774   22702851.1294
  21750096.877     4849017.10049   3773924.59049  21750096.4424   21750103.2924
  22254504.756    -2977069.63849  -2206076.29249  22254505.7664   22254510.1814
  19649786.365    -4282398.26949  -3328160.11849  19649785.9164   19649791.0334
  22025906.952   -16158204.56749 -12247251.52749  22025907.1524   22025913.4504
 98  4 24 17 36 29.9970000  0  6  2  9 27 26  7  4
  20794468.374    -2848600.64149  -2215955.01249  20794468.2294   20794473.4934
  22677519.977   -12610117.40049  -9463077.97149  22677520.0904   22677525.3844
  21761489.946     4908887.76649   3820576.95649  21761490.0244   21761496.6174
  22254931.508    -2974827.06949  -2204328.86049  22254931.7114   22254936.5444
  19647493.885    -4294445.59049  -3337547.64549  19647493.4334   19647498.5654
  21999691.418   -16295967.63749 -12354599.30949  21999691.7404   21999697.6824
 98  4 24 17 36 59.9970000  0  6  2  9 27 26  7  4
  20791543.107    -2863973.25949  -2227933.69549  20791542.7344   20791547.9204
  22652236.057   -12742985.02349  -9566611.14049  22652234.9644   22652240.9454
  21772944.464     4969081.33449   3867480.94049  21772944.4044   21772950.9464
  22255437.585    -2972167.88349  -2202256.80549  22255438.0614   22255443.1934
  19645273.093    -4306116.08849  -3346641.54449  19645272.7514   19645277.7454
  21973511.518   -16433543.65249 -12461801.33549  21973512.0044   21973517.2164
 98  4 24 17 37 29.9970000  0  6  2  9 27 26  7  4
  20788653.253    -2879159.46349  -2239767.10849  20788652.9454   20788658.3814
  22626994.966   -12875627.66849  -9669969.01449  22626994.5384   22626999.9634
  21784458.336     5029586.69749   3914627.87949  21784458.7734   21784465.0554
  22256022.312    -2969095.46349  -2199862.73449  22256022.3264   22256027.5784
  19643123.538    -4317412.17349  -3355443.69049  19643123.0894   19643128.0624
  21947371.634   -16570909.17049 -12568839.33649  21947371.6314   21947377.3804
 98  4 24 17 37 59.9970000  0  6  2  9 27 26  7  4
  20785807.046    -2894116.54749  -2251421.98749  20785806.8954   20785811.8864
  22601805.363   -13007999.80949  -9773116.09549  22601804.8064   22601810.2164
  21796038.115     5090438.36149   3962044.66549  21796037.8674   21796044.4604
  22256698.383    -2965542.69449  -2197094.36449  22256698.4484   22256704.3194
  19641054.102    -4328287.09749  -3363917.65749  19641053.6224   19641058.6664
  21921282.666   -16708007.14349 -12675668.85349  21921282.7024   21921289.0844
 98  4 24 17 38 29.9970000  0  6  2  9 27 26  7  4
  20783002.837    -2908852.80749  -2262904.80149  20783002.3674   20783007.9024
  22576664.671   -13140114.94749  -9876062.92149  22576664.4504   22576670.4414
  21807679.275     5151612.55449   4009712.76549  21807679.9174   21807686.5674
  22257462.489    -2961527.10349  -2193965.36349  22257462.7094   22257468.1694
  19639065.008    -4338739.94349  -3372062.73549  19639064.5884   19639069.6354
  21895244.435   -16844838.31649 -12782290.48349  21895244.6784   21895250.5364
 98  4 24 17 38 59.9970000  0  6  2  9 27 26  7  4
  20780237.175    -2923386.34249  -2274229.64649  20780236.6024   20780242.1554
  22551565.540   -13272011.86149  -9978839.71349  22551566.0964   22551570.2044
  21819375.337     5213075.64149   4057605.98049  21819375.0614   21819381.7914
  22258307.129    -2957088.60449  -2190506.82049  22258306.9554   22258312.2914
  19637150.325    -4348801.62249  -3379903.00749  19637149.8144   19637154.8194
  21869257.165   -16981402.08549 -12888703.74249  21869257.0484   21869263.0964
 98  4 24 17 39 29.9970000  0  6  2  9 27 26  7  4
  20777511.131    -2937711.75249  -2285392.30849  20777511.0384   20777516.4494
  22526504.368   -13403709.16249 -10081460.95049  22526504.1664   22526510.0724
  21831125.285     5274821.79749   4105719.76949  21831125.7864   21831132.2034
  22259229.136    -2952243.58649  -2186731.51049  22259229.4464   22259235.0294
  19635304.694    -4358500.32849  -3387460.44349  19635303.9924   19635309.2734
  21843322.742   -17117688.13949 -12994900.60549  21843322.4534   21843328.6094
 98  4 24 17 39 59.9970000  0  6  2  9 27 26  7  4
  20774827.558    -2951814.19549  -2296381.23749  20774827.0864   20774832.8004
  22501478.812   -13535219.33049 -10183936.37849  22501478.8404   22501483.6294
  21842929.416     5336852.57949   4154055.35149  21842929.5754   21842936.0144
  22260226.316    -2947003.50449  -2182648.35149  22260226.7664   22260232.0844
  19633527.003    -4367842.14649  -3394739.78849  19633526.5824   19633531.7654
  21817442.151   -17253691.27749 -13100877.00949  21817442.2994   21817448.3544
 98  4 24 17 40 29.9970000  0  6  2  9 27 26  7  4
  20772184.941    -2965701.32849  -2307202.39349  20772184.2064   20772189.8394
  22476485.606   -13666559.35949 -10286279.21149  22476485.2334   22476491.0824
  21854784.221     5399149.59349   4202598.37349  21854784.6874   21854791.1004
  22261290.554    -2941410.94949  -2178290.54149  22261290.8794   22261296.5824
  19631809.158    -4376869.60349  -3401774.17349  19631808.7424   19631813.7354
  21791611.050   -17389434.46749 -13206650.86349  21791610.9224   21791616.6894
 98  4 24 17 40 59.9970000  0  6  2  9 27 26  7  4
  20769598.884    -2979291.13349  -2317791.86249  20769598.5864   20769603.7754
  22451540.493   -13797646.48149 -10388424.97849  22451540.7324   22451545.7394
  21866705.179     5461794.13449   4251412.21349  21866705.3354   21866711.5784
  22262435.646    -2935393.80049  -2173601.88149  22262435.9364   22262440.9924
  19630163.384    -4385518.34249  -3408513.45349  19630163.0614   19630168.1104
  21765841.428   -17524854.42749 -13312172.84049  21765841.3624   21765848.0524
 98  4 24 17 41 29.9970000  0  6  2  9 27 26  7  4
  20767066.255    -2992600.20849  -2328162.58449  20767065.6704   20767071.0954
  22426645.495   -13928470.52749 -10490365.76049  22426645.6964   22426650.1804
  21878695.309     5524802.27249   4300509.35549  21878695.1154   21878702.0424
  22263663.142    -2928943.34249  -2168575.58749  22263663.7964   22263668.1574
  19628590.238    -4393785.24649  -3414955.20849  19628589.8704   19628594.8694
  21740128.636   -17659975.88549 -13417462.22649  21740129.0324   21740135.0934
 98  4 24 17 41 59.9970000  0  6  2  9 27 26  7  4
  20764581.361    -3005658.36349  -2338337.76449  20764581.2304   20764586.4774
  22401800.763   -14059030.20049 -10592100.51349  22401799.9474   22401806.2944
  21890750.513     5588152.21849   4349872.84449  21890750.7894   21890756.8134
  22264969.820    -2922076.72649  -2163225.00249  22264969.6324   22264975.2864
  19627086.827    -4401685.96849  -3421111.61649  19627086.3514   19627091.4154
  21714465.151   -17794838.49849 -13522549.90649  21714465.2694   21714470.7394
 98  4 24 17 42 29.9970000  0  6  2  9 27 26  7  4
  20762136.502    -3018506.48949  -2348349.29949  20762136.0624   20762141.3714
  22377005.318   -14189331.16149 -10693633.69349  22377005.7014   22377010.5704
  21902864.550     5651811.20049   4399477.14849  21902865.4024   21902870.9684
  22266354.224    -2914801.62049  -2157556.11049  22266354.3144   22266359.6344
  19625650.997    -4409231.35749  -3426991.14649  19625650.4054   19625655.5084
  21688844.221   -17929477.28649 -13627463.18449  21688844.2864   21688849.5684
 98  4 24 17 42 59.9970000  0  6  2  9 27 26  7  4
  20759710.070    -3031257.44549  -2358285.10949  20759709.6924   20759715.2204
  22352239.599   -14319475.90949 -10795045.14749  22352239.9964   22352244.7104
  21915019.059     5715682.87049   4449247.17549  21915019.3184   21915025.7594
  22267798.984    -2907209.56749  -2151640.25449  22267799.4934   22267805.0474
  19624267.678    -4416500.63349  -3432655.52049  19624267.2824   19624272.3804
  21663246.551   -18063993.68649 -13732281.09449  21663246.8964   21663252.7754
 98  4 24 17 43 29.9970000  0  6  2  9 27 26  7  4
  20757318.078    -3043827.55849  -2368080.01249  20757317.7384   20757323.2604
  22327520.398   -14449376.20849 -10896266.11649  22327520.9694   22327525.0224
  21927232.537     5779864.96449   4499259.07449  21927232.8034   21927239.1334
  22269322.986    -2899201.13049  -2145399.93949  22269322.9494   22269328.8224
  19622954.341    -4423402.39549  -3438033.51949  19622953.8024   19622959.0424
  21637692.683   -18198279.80549 -13836919.57649  21637693.3674   21637699.1144
 98  4 24 17 43 59.9970000  0  6  2  9 27 26  7  4
  20754960.275    -3056217.92349  -2377734.85249  20754959.9904   20754965.0444
  22302846.069   -14579040.32049 -10997303.05449  22302846.0114   22302851.7354
  21939497.446     5844317.24349   4549481.52149  21939497.4324   21939503.6064
  22270922.670    -2890794.76849  -2138849.56149  22270922.5814   22270928.7554
  19621709.882    -4429941.80849  -3443129.17449  19621709.2134   19621714.2294
  21612182.799   -18332335.00349 -13941378.11549  21612182.8274   21612187.7444
 98  4 24 17 44 29.9970000  0  6  2  9 27 26  7  4
  20752632.347    -3068451.38449  -2387267.42049  20752631.9224   20752637.3554
  22278211.479   -14708495.62349 -11098177.26949  22278210.5364   22278216.3944
  21951809.562     5909017.34849   4599897.06949  21951810.0584   21951816.5244
  22272590.971    -2882027.82449  -2132018.20649  22272591.3764   22272596.5054
  19620529.753    -4436143.14349  -3447961.38749  19620529.1404   19620534.2284
  21586714.216   -18466172.78449 -14045667.22749  21586714.1394   21586720.0484
 98  4 24 17 44 59.9970000  0  6  2  9 27 26  7  4
  20750341.195    -3080491.37449  -2396649.23949  20750340.7884   20750346.1264
  22253620.805   -14837720.20749 -11198871.70549  22253621.1094   22253626.7774
  21964175.282     5973999.06949   4650532.05449  21964175.6284   21964181.4564
  22274328.676    -2872896.13949  -2124902.62449  22274329.4234   22274334.3494
  19619415.043    -4442000.98249  -3452525.94149  19619414.6024   19619419.5674
  21561295.616   -18599748.16949 -14149751.87549  21561295.2764   21561301.6384
 98  4 24 17 45 29.9970000  0  6  2  9 27 26  7  4
  20748089.531    -3092324.03849  -2405869.51049  20748089.1974   20748094.7324
  22229076.970   -14966698.93049 -11299374.57849  22229076.2914   22229081.6774
  21976594.019     6039259.53949   4701384.25949  21976594.8304   21976601.1244
  22276137.392    -2863391.48249  -2117496.43249  22276137.5314   22276142.8114
  19618365.343    -4447517.12549  -3456824.24249  19618364.8194   19618370.1564
  21535930.466   -18733042.62849 -14253617.62449  21535930.4964   21535936.2264
 98  4 24 17 45 59.9970000  0  6  2  9 27 26  7  4
  20745883.069    -3103919.16749  -2414904.68449  20745882.5144   20745887.8624
  22204583.312   -15095413.96249 -11399671.96849  22204583.5174   22204588.0834
  21989066.447     6104802.23749   4752456.37449  21989066.4064   21989072.8884
  22278018.295    -2853507.55849  -2109794.71149  22278018.6694   22278024.0274
  19617383.362    -4452677.65949  -3460845.44449  19617382.8784   19617388.1954
  21510620.736   -18866045.91849 -14357256.50049  21510621.0274   21510626.3914
 98  4 24 17 46 29.9960000  0  6  2  9 27 26  7  4
  20743726.159    -3115253.69449  -2423736.79149  20743725.5984   20743731.3504
  22180142.147   -15223853.04449 -11499754.33649  22180141.2584   22180146.7304
  22001595.972     6170644.67949   4803762.04849  22001595.6324   22001603.3134
  22279971.581    -2843243.30549  -2101796.61749  22279972.2364   22279977.4254
  19616468.446    -4457485.74049  -3464592.00249  19616468.0924   19616473.0454
  21485370.205   -18998738.34849 -14460653.13749  21485370.2584   21485376.4114
 98  4 24 17 46 59.9960000  0  6  2  9 27 26  7  4
  20741620.305    -3126320.07249  -2432359.96249  20741619.9154   20741625.5394
  22155749.115   -15352038.91049 -11599639.40149  22155749.1844   22155754.7924
  22014180.680     6236777.22449   4855293.77349  22014181.1604   22014188.2204
  22281998.559    -2832591.57049  -2093496.59849  22281998.6834   22282004.7684
  19615620.393    -4461942.49049  -3468064.80049  19615620.0694   19615625.0644
  21460177.393   -19131127.40249 -14563813.37949  21460177.9484   21460183.6924
 98  4 24 17 47 29.9960000  0  6  2  9 27 26  7  4
  20739554.236    -3137177.45049  -2440820.26349  20739554.0454   20739559.2314
  22131394.856   -15480021.07349 -11699365.72349  22131394.9444   22131399.7074
  22026808.272     6303135.24649   4907001.20549  22026808.0584   22026814.1184
  22284088.699    -2821607.90849  -2084937.92149  22284090.2454   22284094.6084
  19614830.662    -4466092.56949  -3471298.62949  19614830.3264   19614835.3714
  21435030.647   -19263274.26749 -14666784.90649  21435030.9974   21435036.2404
 98  4 24 17 47 59.9960000  0  6  2  9 27 26  7  4
  20737532.248    -3147803.00849  -2449099.93049  20737532.2154   20737537.4164
  22107085.913   -15607765.24649 -11798906.61049  22107085.3434   22107090.9504
  22039484.376     6369748.40149   4958907.42949  22039484.7824   22039491.3944
  22286242.717    -2810288.71449  -2076117.80449  22286243.7154   22286248.4664
  19614103.516    -4469914.00349  -3474276.37649  19614102.9694   19614108.2394
  21409936.461   -19395145.19749 -14769541.41149  21409936.5994   21409942.3124
 98  4 24 17 48 29.9960000  0  6  2  9 27 26  7  4
  20735534.536    -3158301.34149  -2457280.45949  20735534.3984   20735539.5614
  22082807.353   -15735349.75449 -11898323.07049  22082807.0714   22082812.6254
  22052193.381     6436533.99249   5010948.02649  22052194.0044   22052201.2254
  22288442.347    -2798729.63049  -2067110.75549  22288442.3024   22288448.4644
  19613421.576    -4473497.68849  -3477068.86149  19613421.0614   19613426.1904
  21384880.885   -19526813.02949 -14872139.66249  21384881.4154   21384886.5894
 98  4 24 17 48 59.9960000  0  6  2  9 27 26  7  4
  20733575.902    -3168594.25549  -2465300.92749  20733575.4644   20733580.5594
  22058579.870   -15862666.28049 -11997530.70949  22058579.3134   22058585.1744
  22064955.058     6503596.66849   5063204.52049  22064955.1494   22064962.2034
  22290710.532    -2786810.16149  -2057822.88349  22290710.3524   22290715.8694
  19612804.056    -4476742.73949  -3479597.47749  19612803.5494   19612808.8124
  21359886.644   -19658158.54249 -14974486.75449  21359886.7584   21359892.4744
 98  4 24 17 49 29.9960000  0  6  2  9 27 26  7  4
  20731658.579    -3178669.82649  -2473152.03849  20731658.2624   20731663.6074
  22034411.388   -15989672.48849 -12096496.55349  22034411.3644   22034416.0374
  22077774.382     6570961.91949   5115696.79249  22077774.6354   22077780.9094
  22293052.701    -2774502.40549  -2048232.46349  22293053.6804   22293057.7944
  19612254.251    -4479632.05649  -3481848.89949  19612253.9094   19612258.9054
  21334958.075   -19789158.78549 -15076564.81549  21334958.3264   21334963.4074
 98  4 24 17 49 59.9960000  0  6  2  9 27 26  7  4
  20729774.725    -3188569.55449  -2480866.11949  20729774.6364   20729779.6994
  22010291.876   -16116421.27149 -12195261.79549  22010290.9334   22010296.3954
  22090639.806     6638569.59349   5168377.96549  22090640.8584   22090646.9294
  22295459.893    -2761852.53649  -2038375.44749  22295461.0734   22295465.9164
  19611759.322    -4482233.07349  -3483875.66949  19611758.9224   19611763.9624
  21310087.038   -19919856.60549 -15178407.21249  21310086.7344   21310092.8354
 98  4 24 17 50 29.9960000  0  6  2  9 27 26  7  4
  20727918.610    -3198323.66049  -2488466.73749  20727918.0814   20727923.5854
  21986213.359   -16242954.28249 -12293858.90249  21986213.4914   21986218.7974
  22103543.500     6706378.71549   5221216.10249  22103543.5354   22103550.3004
  22297931.198    -2748865.85749  -2028255.98849  22297931.4834   22297937.2244
  19611313.691    -4484574.94849  -3485700.51349  19611313.1904   19611318.3364
  21285267.084   -20050286.05149 -15280040.49849  21285266.8564   21285272.6024
 98  4 24 17 50 59.9960000  0  6  2  9 27 26  7  4
  20726104.690    -3207856.08349  -2495894.60949  20726104.6064   20726109.6624
  21962185.827   -16369219.72449 -12392247.51249  21962186.2954   21962190.9864
  22116494.788     6774437.74349   5274248.97049  22116494.2104   22116502.0474
  22300478.601    -2735479.34849  -2017824.97849  22300479.2694   22300484.8624
  19610928.511    -4486599.11949  -3487277.79149  19610928.0474   19610933.2154
  21260507.193   -20180400.09249 -15381428.00049  21260507.2674   21260512.9134
 98  4 24 17 51 29.9960000  0  6  2  9 27 26  7  4
  20724331.095    -3217176.60649  -2503157.36049  20724330.8544   20724336.2814
  21938202.749   -16495251.48849 -12490454.05449  21938202.9284   21938208.5684
  22129486.716     6842710.42349   5327448.31849  22129486.9154   22129493.4714
  22303089.768    -2721757.95549  -2007133.01349  22303090.5524   22303095.4224
  19610599.042    -4488330.44049  -3488626.87649  19610598.4854   19610603.4374
  21235797.789   -20310248.82049 -15482608.77349  21235797.8034   21235803.0904
 98  4 24 17 51 59.9960000  0  6  2  9 27 26  7  4
  20722602.934    -3226258.62949  -2510234.27449  20722602.5514   20722608.1404
  21914263.841   -16621051.36149 -12588479.89649  21914263.9914   21914269.3604
  22142522.096     6911211.29249   5380825.47349  22142522.0714   22142529.7384
  22305762.854    -2707711.13349  -1996187.47449  22305763.1714   22305768.5064
  19610327.959    -4489755.07949  -3489736.98649  19610327.5334   19610332.4414
  21211144.153   -20439804.23849 -15583560.98549  21211144.3404   21211149.7884
 98  4 24 17 52 29.9960000  0  7  2  9 24 27 26  7  4
  20720909.586    -3235157.52249  -2517168.48749  20720909.3834   20720914.2934
  21890362.027   -16746656.50049 -12686353.99849  21890361.8384   21890366.9494
  23330760.952    -3383153.66049  -2255392.81849  23330760.4814   23330771.2674
  22155592.322     6979895.03449   5434345.14149  22155593.3524   22155599.0534
  22308486.975    -2693396.26449  -1985033.07149  22308487.5654   22308492.5764
  19610109.596    -4490902.97849  -3490631.45549  19610109.2544   19610113.9884
  21186537.303   -20569114.25349 -15684321.97549  21186537.5254   21186542.6424
 98  4 24 17 52 59.9960000  0  7  2  9 24 27 26  7  4
  20719266.032    -3243794.65249  -2523898.73449  20719265.5314   20719270.5994
  21866513.917   -16871979.43149 -12784008.18649  21866513.9174   21866518.0824
  23302566.946    -3531313.69349  -2370841.94649  23302565.4504   23302576.4844
  22168712.869     7048843.05649   5488070.73049  22168713.7994   22168720.2724
  22311272.000    -2678761.13749  -1973629.10749  22311272.2484   22311277.8104
  19609958.399    -4491697.90349  -3491250.87949  19609957.7994   19609962.6874
  21161991.259   -20698104.56449 -15784833.84149  21161991.5384   21161996.6994
 98  4 24 17 53 29.9960000  0  7  2  9 24 27 26  7  4
  20717666.537    -3252200.44549  -2530448.71849  20717666.2584   20717670.8584
  21842717.289   -16997031.68149 -12881451.46749  21842717.5314   21842721.4204
  23274375.660    -3679459.39849  -2486279.90549  23274375.6054   23274385.4594
  22181881.923     7118045.71149   5541994.73049  22181881.6134   22181888.9564
  22314114.639    -2663823.40549  -1961989.34449  22314114.4304   22314120.0174
  19609871.089    -4492156.93349  -3491608.57249  19609870.7394   19609875.4254
  21137505.537   -20826778.06549 -15885098.85749  21137505.9894   21137511.0374
 98  4 24 17 53 59.9960000  0  7  2  9 24 27 26  7  4
  20716095.655    -3260455.81649  -2536881.48849  20716095.3464   20716099.8054
  21818960.460   -17121874.95149 -12978731.89649  21818960.3884   21818965.8954
  23246172.856    -3827665.50449  -2601764.95149  23246173.1094   23246181.9984
  22195084.865     7187426.45549   5596057.50449  22195085.5224   22195091.6474
  22317006.815    -2648625.30649  -1950146.71049  22317007.2174   22317012.0254
  19609833.402    -4492355.59249  -3491763.37149  19609833.0554   19609837.5514
  21113069.289   -20955191.51749 -15985161.22749  21113069.5764   21113074.0584
 98  4 24 17 54 29.9960000  0  7  2  9 24 27 26  7  4
  20714559.967    -3268526.29949  -2543170.19149  20714559.2994   20714564.3974
  21795255.842   -17246443.70549 -13075798.43349  21795256.0084   21795260.9484
  23217964.628    -3975900.32349  -2717272.36949  23217963.3584   23217972.7734
  22208329.950     7257028.66849   5650292.85549  22208330.3834   22208337.3894
  22319959.704    -2633108.04749  -1938055.37349  22319960.2334   22319965.4144
  19609853.945    -4492247.95749  -3491679.50649  19609853.3214   19609858.0224
  21088689.792   -21083306.71449 -16084991.19049  21088689.8844   21088694.6694
 98  4 24 17 54 59.9960000  0  7  2  9 24 27 26  7  4
  20713059.619    -3276410.46149  -2549313.70549  20713059.0484   20713064.2534
  21771604.311   -17370733.29949 -13172647.43349  21771603.8824   21771608.5974
  23189748.461    -4124176.50049  -2832812.01849  23189747.6124   23189757.7544
  22221617.679     7326855.45749   5704703.19049  22221617.8444   22221624.5204
  22322973.810    -2617269.09749  -1925713.36949  22322974.3764   22322980.2464
  19609928.126    -4491858.00849  -3491375.64949  19609927.4904   19609932.4024
  21064369.203   -21211112.04049 -16184579.69649  21064369.1014   21064374.4264
 98  4 24 17 55 29.9960000  0  7  2  9 24 27 26  7  4
  20711595.377    -3284104.94349  -2555309.41649  20711594.9814   20711599.9634
  21748005.799   -17494744.17149 -13269279.24849  21748005.4794   21748009.0354
  23161524.541    -4272493.18549  -2948383.23549  23161523.3214   23161532.8214
  22234945.480     7396893.09949   5759277.83549  22234945.3584   22234952.8384
  22326050.468    -2601101.40049  -1913115.20649  22326050.7574   22326056.6194
  19610054.025    -4491196.49249  -3490860.18349  19610053.4924   19610058.0274
  21040109.932   -21338595.11549 -16283917.09949  21040110.2854   21040114.7874
 98  4 24 17 55 59.9960000  0  7  2  9 24 27 26  7  4
  20710168.135    -3291605.12649  -2561153.72649  20710167.5194   20710172.9314
  21724462.826   -17618463.01249 -13365683.50649  21724463.0174   21724467.3324
  23133293.756    -4420846.14549  -3063982.72849  23133293.0344   23133302.2694
  22248310.654     7467126.89149   5814005.31149  22248310.4354   22248317.3754
  22329188.195    -2584612.89249  -1900267.04649  22329188.4154   22329194.1664
  19610228.690    -4490278.58649  -3490144.93149  19610228.0624   19610233.0624
  21015912.009   -21465755.93849 -16383003.39649  21015911.8174   21015917.3214
 98  4 24 17 56 29.9960000  0  7  2  9 24 27 26  7  4
  20708779.168    -3298904.27449  -2566841.38649  20708778.7914   20708783.9424
  21700976.321   -17741885.17749 -13461856.58749  21700976.1374   21700981.4664
  23105060.081    -4569213.95749  -3179593.79649  23105059.7804   23105068.3464
  22261713.745     7537559.88349   5868888.00949  22261713.6464   22261721.3314
  22332383.640    -2567820.62449  -1887182.20749  22332383.2134   22332388.5694
  19610450.714    -4489111.83749  -3489235.78349  19610450.0584   19610455.0184
  20991777.058   -21592585.53749 -16481831.60449  20991777.4154   20991782.4794
 98  4 24 17 56 59.9960000  0  7  2  9 24 27 26  7  4
  20707422.552    -3306033.30549  -2572396.48349  20707422.2004   20707427.4204
  21677538.201   -17865053.08449 -13557831.54349  21677538.1834   21677542.7004
  23076819.866    -4717616.17249  -3295231.66649  23076818.3714   23076828.6364
  22275145.224     7608142.26849   5923887.11649  22275146.3574   22275153.6624
  22335629.020    -2550765.92249  -1873892.86049  22335628.7664   22335634.6964
  19610712.759    -4487734.61649  -3488162.62649  19610711.9274   19610716.7804
  20967698.474   -21719118.95549 -16580429.01849  20967698.5944   20967703.7194
 98  4 24 17 57 29.9960000  0  7  2  9 24 27 26  7  4
  20706092.381    -3313023.26049  -2577843.20449  20706091.9014   20706097.0344
  21654140.230   -17988009.70349 -13653641.86749  21654139.8614   21654145.2614
  23048568.184    -4866078.80249  -3410916.63049  23048567.5494   23048577.0754
  22288597.909     7678836.29449   5978973.22349  22288597.2654   22288605.5794
  22338917.554    -2533484.89349  -1860427.16549  22338918.5394   22338923.5414
  19611012.315    -4486160.28049  -3486935.87649  19611011.9294   19611016.8354
  20943668.586   -21845396.51749 -16678827.06749  20943668.6104   20943673.5894
 98  4 24 17 57 59.9960000  0  7  2  9 24 27 26  7  4
  20704813.607    -3319743.43149  -2583079.71349  20704813.3464   20704818.7464
  21630810.321   -18110609.00849 -13749173.76149  21630809.9524   21630815.6294
  23020330.517    -5014467.69049  -3526544.12549  23020330.3974   23020338.9894
  22302100.582     7749793.02149   6034264.02049  22302100.3074   22302107.2764
  22342271.955    -2515857.42749  -1846691.51849  22342272.2874   22342277.8334
  19611378.373    -4484236.50449  -3485436.83449  19611377.7964   19611382.8564
  20919714.177   -21971277.26749 -16776915.90349  20919714.1734   20919719.7694
 98  4 24 17 58 29.9960000  0  7  2  9 24 27 26  7  4
  20703572.659    -3326264.62949  -2588161.17949  20703572.1454   20703577.5584
  21607533.743   -18232928.32149 -13844487.48349  21607533.8564   21607537.6704
  22992093.603    -5162852.68549  -3642168.61249  22992092.8854   22992101.3274
  22315641.291     7820949.50849   6089710.46449  22315641.7534   22315648.2294
  22345678.908    -2497953.80249  -1832740.68249  22345678.5894   22345684.9364
  19611803.055    -4482004.77349  -3483697.83149  19611802.3624   19611807.5814
  20895823.248   -22096824.61749 -16874744.95749  20895823.3534   20895828.4774
 98  4 24 17 58 59.9960000  0  7  2  9 24 27 26  7  4
  20702369.950    -3332584.89049  -2593086.06649  20702369.4984   20702374.7604
  21584311.515   -18354962.07949 -13939578.69349  21584311.5424   21584316.2194
  22963854.480    -5311249.26049  -3757802.09549  22963854.2944   22963863.6544
  22329220.923     7892310.54949   6145316.29649  22329221.5724   22329229.0704
  22349138.275    -2479774.84449  -1818575.30249  22349138.9734   22349144.1134
  19612287.483    -4479459.21849  -3481714.28349  19612286.8264   19612291.9634
  20871995.237   -22222041.28249 -16972316.33249  20871995.1584   20872000.7884
 98  4 24 17 59 29.9960000  0  7  2  9 24 27 26  7  4
  20701191.313    -3338778.62749  -2597912.35949  20701190.6544   20701196.4914
  21561131.245   -18476774.94549 -14034497.77149  21561131.1694   21561136.4704
  22935599.511    -5459729.35749  -3873500.66749  22935599.0054   22935607.6944
  22342827.671     7963814.12449   6201033.19649  22342827.6524   22342835.1614
  22352636.574    -2461391.42249  -1804250.59349  22352637.5214   22352643.0144
  19612816.435    -4476679.52949  -3479548.29449  19612816.1104   19612821.1974
  20848219.546   -22346983.22349 -17069673.63549  20848219.4584   20848225.1274
 98  4 24 17 59 59.9960000  0  7  2  9 24 27 26  7  4
  20700054.965    -3344750.17249  -2602565.52349  20700054.6204   20700060.0684
  21538012.240   -18598265.89449 -14129166.01749  21538011.7454   21538017.0204
  22907347.399    -5608194.20149  -3989187.35949  22907346.3844   22907355.2514
  22356476.379     8035538.15649   6256921.87349  22356476.4534   22356484.3934
  22356192.538    -2442704.80249  -1789689.64449  22356192.4304   22356198.8754
  19613404.187    -4473590.77549  -3477141.47949  19613403.7934   19613408.5864
  20824514.436   -22471554.17149 -17166741.85949  20824514.5094   20824520.2594
 98  4 24 18  0 29.9960000  0  7  2  9 24 27 26  7  4
  20698957.747    -3350516.03249  -2607058.42149  20698957.5004   20698962.7084
  21514945.152   -18719484.02849 -14223621.67849  21514944.7544   21514949.8714
  22879093.251    -5756669.69049  -4104882.34949  22879093.2234   22879101.8934
  22370158.170     8107436.02749   6312945.99349  22370158.7714   22370166.2474
  22359802.726    -2423733.15449  -1774906.59449  22359802.7714   22359807.6084
  19614040.231    -4470248.18949  -3474536.87449  19614039.7434   19614044.8074
  20800870.515   -22595803.60149 -17263559.55249  20800870.5374   20800875.6894
 98  4 24 18  0 59.9960000  0  7  2  9 24 27 26  7  4
  20697898.370    -3356083.13049  -2611396.42849  20697898.0934   20697903.4434
  21491925.183   -18840454.51749 -14317884.36449  21491924.7704   21491929.9894
  22850833.659    -5905174.21349  -4220599.97149  22850833.6174   22850842.5644
  22383866.034     8179470.92549   6369076.89549  22383866.2724   22383874.5844
  22363461.521    -2404505.80549  -1759924.27949  22363461.6484   22363467.2044
  19614714.974    -4466702.32749  -3471773.86749  19614714.5764   19614719.5724
  20777283.083   -22719756.20549 -17360145.95049  20777283.3164   20777288.2104
 98  4 24 18  1 29.9960000  0  7  2  9 24 27 26  7  4
  20696895.138    -3361355.40049  -2615504.70149  20696894.5384   20696900.1764
  21468968.972   -18961090.29149 -14411886.24349  21468968.6124   21468973.9964
  22822588.508    -6053602.71349  -4336258.36349  22822588.1314   22822596.5184
  22397615.904     8251726.24149   6425379.54649  22397616.7334   22397623.3654
  22367185.298    -2384937.12249  -1744676.01149  22367185.7304   22367191.6054
  19615446.669    -4462857.21749  -3468777.68749  19615446.1594   19615451.4244
  20753770.242   -22843316.87649 -17456426.94849  20753770.4144   20753775.2604
 98  4 24 18  1 59.9960000  0  7  2  9 24 27 26  7  4
  20695943.164    -3366358.10749  -2619402.92849  20695942.6374   20695947.9794
  21446069.963   -19081425.34549 -14505653.78649  21446069.8654   21446074.4794
  22794349.191    -6202000.90049  -4451893.13149  22794348.7314   22794357.2274
  22411398.872     8324155.50049   6481817.73049  22411400.1714   22411406.9554
  22370963.649    -2365082.15249  -1729204.63649  22370964.0744   22370969.4284
  19616229.014    -4458745.91849  -3465574.08349  19616228.3184   19616233.5534
  20730323.838   -22966528.42049 -17552435.89549  20730324.2154   20730329.2624
 98  4 24 18  2 29.9960000  0  7  2  9 24 27 26  7  4
  20695049.874    -3371052.45349  -2623060.87349  20695049.7054   20695054.8674
  21423237.720   -19201409.40949 -14599147.83749  21423237.4914   21423242.4644
  22766122.635    -6350331.66649  -4567475.37549  22766121.6824   22766130.9254
  22425225.370     8396813.16749   6538433.89249  22425225.2804   22425233.9654
  22374800.926    -2344917.27349  -1713491.79849  22374801.7174   22374807.0794
  19617070.495    -4454324.01349  -3462128.45649  19617070.1654   19617075.1534
  20706954.437   -23089335.30449 -17648129.52849  20706954.7934   20706959.8484
 98  4 24 18  2 59.9960000  0  7  2  9 24 27 26  7  4
  20694192.440    -3375558.31149  -2626571.94749  20694192.0294   20694197.6194
  21400457.066   -19321122.42549 -14692430.67949  21400456.7124   21400461.8444
  22737889.452    -6498697.38949  -4683084.85549  22737889.0874   22737897.9814
  22439077.146     8469603.94249   6595153.76649  22439077.2504   22439085.7914
  22378677.346    -2324546.58749  -1697618.58549  22378677.8844   22378683.2654
  19617954.280    -4449679.68949  -3458509.50749  19617953.9534   19617958.8384
  20683646.901   -23211816.92549 -17743569.70849  20683646.9194   20683652.1084
 98  4 24 18  3 29.9960000  0  7  2  9 24 27 26  7  4
  20693374.516    -3379856.57849  -2629921.26849  20693374.1054   20693379.3614
  21377736.215   -19440521.15649 -14785468.63449  21377736.0714   21377740.2704
  22709657.378    -6647057.19449  -4798689.72949  22709656.6424   22709665.5914
  22452963.860     8542578.02549   6652016.48649  22452963.8474   22452972.9324
  22382601.734    -2303924.12549  -1681549.18149  22382601.5674   22382607.0994
  19618888.722    -4444769.34849  -3454683.27649  19618888.3764   19618893.3784
  20660408.682   -23333934.41849 -17838726.15549  20660408.8074   20660414.2214
 98  4 24 18  3 59.9960000  0  7  2  9 24 27 26  7  4
  20692596.483    -3383945.28049  -2633107.29149  20692596.2944   20692601.4854
  21355078.820   -19559586.19449 -14878246.55649  21355078.6274   21355083.9984
  22681429.581    -6795394.42049  -4914277.01249  22681428.9334   22681437.4424
  22466887.787     8615747.75449   6709031.65149  22466888.6674   22466895.8374
  22386576.824    -2283034.79149  -1665271.82349  22386577.2654   22386583.6004
  19619875.202    -4439585.40849  -3450643.85149  19619874.8434   19619879.8224
  20637243.592   -23455667.39149 -17933582.97949  20637243.5744   20637249.0124
 98  4 24 18  4 29.9960000  0  7  2  9 24 27 26  7  4
  20691846.544    -3387886.32949  -2636178.25349  20691845.8834   20691851.4164
  21332474.729   -19678371.18549 -14970806.26149  21332474.6654   21332479.1894
  22653200.612    -6943737.67349  -5029868.99749  22653199.8164   22653209.5524
  22480841.420     8689073.60649   6766168.46949  22480841.9374   22480849.6464
  22390596.753    -2261909.66749  -1648810.73849  22390597.3924   22390603.1514
  19620905.659    -4434170.34049  -3446424.32249  19620905.0504   19620910.2324
  20614143.212   -23577060.51649 -18028174.98449  20614143.1264   20614148.7594
 98  4 24 18  4 59.9960000  0  7  2  9 24 27 26  7  4
  20691144.551    -3391575.18849  -2639052.70549  20691143.9194   20691149.3484
  21309944.881   -19796766.24449 -15063062.12249  21309944.9924   21309949.6404
  22624992.343    -7091972.51849  -5145376.50849  22624992.0144   22625001.0324
  22494842.307     8762647.83049   6823498.81649  22494842.6644   22494850.8874
  22394681.828    -2240442.71249  -1632083.28449  22394682.5744   22394688.1514
  19622001.288    -4428412.68649  -3441937.84849  19622000.7624   19622006.0434
  20591126.871   -23698012.07049 -18122422.90249  20591127.2794   20591132.4914
 98  4 24 18  5 29.9960000  0  7  2  9 24 27 26  7  4
  20690480.280    -3395066.08549  -2641772.90149  20690479.8494   20690485.4884
  21287478.240   -19914829.00449 -15155059.04849  21287478.5454   21287483.1024
  22596795.542    -7240147.33549  -5260837.24349  22596794.5554   22596804.2084
  22508877.538     8836402.65949   6880969.88649  22508878.4984   22508886.2874
  22398818.247    -2218705.92549  -1615145.58949  22398818.5714   22398824.6114
  19623148.368    -4422384.81449  -3437240.81149  19623148.0074   19623153.0454
  20568183.145   -23818582.28849 -18216373.68549  20568183.2634   20568188.6954
 98  4 24 18  5 59.9950000  0  7  2  9 24 27 26  7  4
  20689846.950    -3398394.43049  -2644366.43649  20689846.6574   20689851.8274
  21265067.889   -20032596.20549 -15246825.66849  21265067.4704   21265072.3624
  22568603.842    -7388295.45549  -5376277.17049  22568603.3314   22568612.3754
  22522937.719     8910288.65949   6938543.16749  22522938.6144   22522945.1744
  22402996.054    -2196751.84649  -1598038.57249  22402996.4784   22403002.5524
  19624337.806    -4416134.36849  -3432370.34249  19624337.4044   19624342.3584
  20545305.192   -23938806.63949 -18310054.95749  20545305.2614   20545310.4174
 98  4 24 18  6 29.9950000  0  7  2  9 24 27 26  7  4
  20689263.990    -3401458.18149  -2646753.78349  20689263.5914   20689268.6774
  21242727.946   -20149993.52149 -15338304.07249  21242727.5064   21242732.9294
  22540433.286    -7536332.22949  -5491630.33349  22540433.4234   22540441.3574
  22537040.686     8984399.28449   6996291.45749  22537041.6014   22537049.0854
  22407232.437    -2174489.89149  -1580691.65149  22407233.4454   22407238.2424
  19625584.939    -4409580.89449  -3427263.74849  19625584.8404   19625589.5754
  20522508.088   -24058606.31549 -18403405.31949  20522508.3834   20522513.2994
 98  4 24 18  6 59.9950000  0  7  2  9 24 27 26  7  4
  20688723.616    -3404298.12249  -2648966.73849  20688722.8554   20688728.6154
  21220451.370   -20267057.94449 -15429523.07449  21220451.3074   21220455.9934
  22512275.097    -7684304.05549  -5606932.88649  22512274.0974   22512282.1364
  22551174.899     9058673.96049   7054167.58849  22551174.3274   22551183.2374
  22411515.561    -2151982.36349  -1563153.36649  22411516.8804   22411522.0214
  19626877.106    -4402790.87249  -3421972.82649  19626876.7664   19626881.3644
  20499782.708   -24178029.01949 -18496461.93349  20499782.6464   20499787.9204
 98  4 24 18  7 29.9950000  0  7  2  9 24 27 26  7  4
  20688234.689    -3406867.84549  -2650969.13749  20688234.4034   20688239.3244
  21198243.857   -20383759.44049 -15520459.27949  21198243.6714   21198248.2864
  22484136.996    -7832170.02649  -5722152.95249  22484136.5064   22484144.9914
  22565348.503     9133155.89549   7112205.21549  22565349.6544   22565357.1584
  22415853.252    -2129188.32949  -1545391.84149  22415854.0374   22415858.9804
  19628217.903    -4395745.30349  -3416482.78049  19628217.2284   19628222.2114
  20477135.176   -24297042.66549 -18589199.80049  20477135.2444   20477140.4904
 98  4 24 18  7 59.9950000  0  7  2  9 24 27 26  7  4
  20687796.683    -3409170.03349  -2652763.06749  20687796.5564   20687801.7014
  21176101.654   -20500117.68849 -15611128.01549  21176101.4504   21176106.1644
  22456014.273    -7979955.45649  -5837310.25849  22456014.2654   22456023.3604
  22579556.887     9207820.38849   7170385.08249  22579557.5984   22579565.8694
  22420242.585    -2106122.75749  -1527418.72149  22420243.7784   22420248.7744
  19629605.110    -4388455.54749  -3410802.45649  19629604.5484   19629609.1814
  20454563.011   -24415660.12649 -18681628.95149  20454563.4204   20454568.1294
 98  4 24 18  8 29.9950000  0  7  2  9 24 27 26  7  4
  20687405.339    -3411226.86349  -2654365.80549  20687404.6684   20687409.9894
  21154022.936   -20616142.17549 -15701536.68349  21154022.5454   21154027.0764
  22427900.487    -8127694.01949  -5952431.03849  22427900.3584   22427908.1024
  22593790.982     9282619.78549   7228670.06549  22593791.0844   22593800.3584
  22424677.272    -2082818.96349  -1509259.97549  22424678.0984   22424682.7154
  19631032.870    -4380952.88949  -3404956.22949  19631032.5194   19631037.2304
  20432061.274   -24533907.61149 -18773769.80449  20432061.4784   20432066.5674
 98  4 24 18  8 59.9950000  0  7  2  9 24 27 26  7  4
  20687063.477    -3413023.44449  -2655765.74849  20687063.2044   20687068.0784
  21132014.295   -20731798.27749 -15791658.30349  21132013.9114   21132019.0604
  22399797.692    -8275374.38449  -6067506.47449  22399797.4534   22399805.2944
  22608049.815     9357549.48449   7287056.58249  22608049.6634   22608058.6834
  22429159.654    -2059264.05949  -1490905.56049  22429160.9554   22429164.9444
  19632503.937    -4373222.91449  -3398932.87649  19632503.3914   19632508.3584
  20409635.010   -24651758.57249 -18865601.68149  20409634.7544   20409640.0464
 98  4 24 18  9 29.9950000  0  7  2  9 24 27 26  7  4
  20686762.490    -3414605.44549  -2656998.48949  20686762.0034   20686767.3804
  21110067.099   -20847131.31549 -15881528.17549  21110066.7954   21110071.1894
  22371697.546    -8423040.80849  -6182571.04849  22371696.8874   22371706.0544
  22622323.821     9432558.93349   7345505.23949  22622324.4014   22622331.7024
  22433679.327    -2035513.28549  -1472398.51949  22433679.5474   22433685.4124
  19634010.545    -4365305.41049  -3392763.39549  19634009.7884   19634014.9034
  20387280.270   -24769233.54249 -18957140.57949  20387280.4294   20387285.4674
 98  4 24 18  9 59.9950000  0  7  2  9 24 27 26  7  4
  20686508.220    -3415941.61749  -2658039.67349  20686507.5394   20686512.8464
  21088188.771   -20962102.72049 -15971116.26449  21088188.4514   21088193.8404
  22343609.090    -8570645.84449  -6297587.79449  22343607.4124   22343616.5684
  22636618.581     9507677.33449   7404038.78549  22636619.2554   22636627.7214
  22438241.517    -2011539.33349  -1453717.57849  22438241.6394   22438247.6754
  19635565.669    -4357133.14549  -3386395.40449  19635565.0214   19635569.9384
  20365008.872   -24886270.26649 -19048337.98249  20365009.1784   20365013.9084
 98  4 24 18 10 29.9950000  0  7  2  9 24 27 26  7  4
  20686289.069    -3417093.14949  -2658936.98949  20686288.3314   20686293.9914
  21066370.178   -21076760.15049 -16060459.69449  21066370.1554   21066375.1124
  22315526.322    -8718221.10349  -6412581.34649  22315525.6134   22315534.5574
  22650926.081     9582863.03249   7462624.76049  22650926.4604   22650935.2484
  22442837.959    -1987385.35149  -1434896.34649  22442838.2964   22442844.3904
  19637159.863    -4348755.56549  -3379867.42549  19637159.4074   19637164.3794
  20342814.678   -25002901.29949 -19139219.26749  20342814.8824   20342819.6864
 98  4 24 18 10 59.9950000  0  7  2  9 24 27 26  7  4
  20686103.499    -3418068.15449  -2659696.75849  20686103.0294   20686108.3084
  21044607.625   -21191123.09149 -16149573.65149  21044607.3224   21044612.3424
  22287451.443    -8865755.26549  -6527542.86749  22287451.2194   22287458.6624
  22665251.018     9658140.33449   7521282.11349  22665251.2334   22665260.7794
  22447467.306    -1963058.14149  -1415940.13849  22447468.0814   22447472.5834
  19638795.288    -4340161.10549  -3373170.45049  19638794.7454   19638799.7174
  20320700.161   -25119113.50949 -19229774.20049  20320700.0624   20320705.1474
 98  4 24 18 11 29.9950000  0  7  2  9 24 27 26  7  4
  20685977.970    -3418727.78049  -2660210.76649  20685977.6564   20685982.8924
  21022927.574   -21305052.32349 -16238349.65249  21022927.4704   21022932.3244
  22259411.529    -9013105.56549  -6642361.12949  22259410.5214   22259420.3384
  22679625.989     9733680.27249   7580144.09449  22679627.1214   22679635.6494
  22452156.001    -1938418.74849  -1396740.66849  22452156.8654   22452161.8674
  19640501.031    -4331197.42349  -3366185.77249  19640500.6544   19640505.6344
  20298690.611   -25234774.03649 -19319899.24949  20298690.6194   20298695.7154
 98  4 24 18 11 59.9950000  0  7  2  9 24 27 26  7  4
  20685876.580    -3419260.43649  -2660625.84449  20685876.5064   20685881.5574
  21001293.835   -21418738.24249 -16326936.06449  21001293.9674   21001298.4574
  22231368.809    -9160470.53549  -6757190.82149  22231368.0844   22231376.1014
  22694014.406     9809291.02749   7639061.27249  22694014.1914   22694024.1344
  22456869.374    -1913650.11549  -1377440.49549  22456869.1234   22456875.2224
  19642239.341    -4322062.50249  -3359067.66349  19642238.7014   19642244.0264
  20276745.609   -25350095.48049 -19409760.07649  20276745.5714   20276750.9204
 98  4 24 18 12 29.9950000  0  7  2  9 24 27 26  7  4
  20685820.135    -3419557.39849  -2660857.27749  20685819.6354   20685825.2854
  20979728.691   -21532063.77749 -16415241.65049  20979728.6364   20979733.0594
  22203339.774    -9307763.13449  -6871964.13349  22203339.2284   22203347.5624
  22708437.510     9885083.72949   7698120.20749  22708437.7164   22708447.8834
  22461626.601    -1888650.97749  -1357960.70449  22461627.1594   22461632.4044
  19644023.690    -4312685.60149  -3351760.99549  19644023.1564   19644028.2504
  20254882.452   -25464987.00549 -19499285.89749  20254882.5774   20254887.4754
 98  4 24 18 12 59.9950000  0  7  2  9 24 27 26  7  4
  20685825.428    -3419529.40549  -2660835.49549  20685825.2414   20685830.3764
  20958249.379   -21644938.05649 -16503195.61449  20958248.9564   20958254.3104
  22175339.341    -9454905.65449  -6986620.49449  22175338.8524   22175347.3204
  22722909.665     9961134.57749   7757380.27649  22722911.3664   22722919.5494
  22466439.356    -1863359.94249  -1338253.47149  22466439.3384   22466445.3674
  19645869.216    -4302987.31749  -3344203.90149  19645868.7084   19645873.7844
  20233110.965   -25579396.82849 -19588436.36949  20233110.9894   20233115.9424
 98  4 24 18 13 29.9950000  0  7  2  9 24 27 26  7  4
  20685873.144    -3419278.49549  -2660639.99549  20685872.4884   20685878.1764
  20936837.165   -21757459.95549 -16590874.99749  20936837.1494   20936841.8424
  22147347.575    -9602003.04449  -7101241.70049  22147347.1414   22147355.6154
  22737405.720    10037310.55449   7816737.86049  22737406.3014   22737415.9084
  22471287.250    -1837884.24549  -1318402.34549  22471287.6114   22471293.2274
  19647752.761    -4293089.13449  -3336491.04249  19647752.3644   19647757.3594
  20211408.877   -25693441.78449 -19677302.52149  20211408.9834   20211413.9514
 98  4 24 18 13 59.9950000  0  7  2  9 24 27 26  7  4
  20685985.836    -3418686.27149  -2660178.54549  20685985.3904   20685990.9394
  20915515.355   -21869506.76049 -16678184.17849  20915515.3704   20915519.9414
  22119390.682    -9748916.73249  -7215719.76249  22119390.4154   22119398.6814
  22751944.944    10113713.27749   7876272.11749  22751944.9464   22751954.7354
  22476192.810    -1812105.44749  -1298315.03649  22476193.7154   22476199.0564
  19649696.383    -4282875.40449  -3328532.30549  19649695.9794   19649701.2354
  20189802.478   -25806984.02349 -19765776.95149  20189802.9704   20189807.7574
 98  4 24 18 14 29.9950000  0  7  2  9 24 27 26  7  4
  20686150.160    -3417822.85749  -2659505.78149  20686149.7374   20686155.2824
  20894272.531   -21981138.69649 -16765170.07749  20894272.3764   20894277.3084
  22091459.803    -9895693.66049  -7330091.25749  22091459.7414   22091467.9864
  22766514.697    10190276.46649   7935931.41349  22766514.8904   22766524.1434
  22481143.800    -1786087.99549  -1278041.75949  22481144.2784   22481149.6504
  19651689.383    -4272402.20749  -3320371.38149  19651688.8494   19651694.0714
  20168280.157   -25920084.35949 -19853907.04049  20168280.2104   20168285.3784
 98  4 24 18 14 59.9950000  0  7  2  9 24 27 26  7  4
  20686334.322    -3416854.97049  -2658751.61449  20686333.8394   20686339.2114
  20873075.372   -22092530.33249 -16851968.73049  20873075.3714   20873079.9594
  22063527.779   -10042476.69849  -7444467.50749  22063527.8084   22063535.6324
  22781083.445    10266834.20549   7995586.47849  22781085.0434   22781094.6594
  22486111.628    -1759982.24949  -1257699.68249  22486111.8394   22486117.7254
  19653704.812    -4261811.18149  -3312118.64449  19653704.4744   19653709.6234
  20146811.507   -26032902.62449 -19941817.33549  20146811.7124   20146816.6794
 98  4 24 18 15 29.9950000  0  7  2  9 24 27 26  7  4
  20686565.637    -3415639.52449  -2657804.53349  20686565.0994   20686570.5674
  20851952.874   -22203529.72149 -16938461.74549  20851952.4744   20851957.6994
  22035622.488   -10189119.64849  -7558734.60649  22035621.7174   22035630.7884
  22795679.575    10343535.72749   8055353.57549  22795680.7994   22795689.1564
  22491129.047    -1733615.64749  -1237154.34649  22491128.8654   22491135.5724
  19655770.038    -4250958.29749  -3303661.85949  19655769.6844   19655774.8594
  20125429.160   -26145267.57349 -20029374.39649  20125429.6154   20125434.6734
 98  4 24 18 15 59.9950000  0  7  2  9 24 27 26  7  4
  20686822.077    -3414291.84149  -2656754.40149  20686821.7814   20686827.0934
  20830883.196   -22314251.44049 -17024738.38749  20830882.8804   20830887.9114
  22007718.890   -10335753.36549  -7672994.51849  22007718.5934   22007726.9424
  22810280.117    10420260.54149   8115138.82149  22810280.7814   22810290.1254
  22496173.891    -1707104.95549  -1216496.72549  22496174.6124   22496180.4754
  19657862.471    -4239962.67849  -3295093.85749  19657862.0554   19657867.0514
  20104111.056   -26257294.81349 -20116668.31149  20104111.1934   20104116.5864
 98  4 24 18 16 29.9950000  0  7  2  9 24 27 26  7  4
  20687128.940    -3412679.56149  -2655498.11149  20687129.0094   20687134.2224
  20809890.541   -22424568.28149 -17110699.54749  20809890.3034   20809895.3044
  21979837.675   -10482269.36449  -7787162.70549  21979838.0454   21979845.1534
  22824907.062    10497124.42049   8175032.41949  22824907.7454   22824916.9594
  22501267.615    -1680337.28949  -1195638.87649  22501268.1464   22501274.0344
  19660003.562    -4228711.21749  -3286326.49849  19660003.0834   19660008.1354
  20082879.832   -26368865.36549 -20203606.36149  20082880.0414   20082885.3934
 98  4 24 18 16 59.9950000  0  7  2  9 24 27 26  7  4
  20687492.785    -3410767.84849  -2654008.47949  20687492.3874   20687497.9974
  20788982.717   -22534439.66149 -17196313.59349  20788982.4774   20788987.6924
  21951982.900   -10628646.71149  -7901222.83849  21951982.0494   21951990.5144
  22839562.926    10574140.01649   8235044.24049  22839564.2394   22839573.0374
  22506412.619    -1653300.27349  -1174571.15149  22506413.3944   22506418.8684
  19662196.645    -4217186.41149  -3277346.13849  19662196.1554   19662201.4044
  20061742.902   -26479940.74149 -20290158.56549  20061743.1444   20061748.2504
 98  4 24 18 17 29.9950000  0  7  2  9 24 27 26  7  4
  20687904.150    -3408606.16149  -2652324.07049  20687903.7924   20687909.1694
  20768150.895   -22643911.36149 -17281616.19649  20768150.7384   20768155.4484
  21924141.668   -10774952.77449  -8015227.43849  21924141.5234   21924149.3514
  22854233.209    10651231.31349   8295115.04449  22854233.5334   22854242.5304
  22511593.366    -1626076.03549  -1153357.52249  22511594.0484   22511600.2904
  19664426.529    -4205468.35449  -3268215.18949  19664426.0714   19664431.1424
  20040690.743   -26590570.41849 -20376363.46649  20040690.9084   20040695.9354
 98  4 24 18 17 59.9950000  0  7  2  9 24 27 26  7  4
  20688373.466    -3406140.07649  -2650402.46749  20688372.7284   20688378.8824
  20747404.579   -22752934.18549 -17366569.02849  20747404.5314   20747409.5444
  21896327.551   -10921116.31649  -8129120.97049  21896326.9884   21896334.8774
  22868928.871    10728456.43949   8355290.14749  22868929.1204   22868939.5804
  22516814.413    -1598639.32149  -1131978.31749  22516814.7834   22516821.4304
  19666704.324    -4193498.51749  -3258888.05349  19666703.8344   19666709.2474
  20019736.561   -26700685.20049 -20462167.15749  20019736.6154   20019741.6194
 98  4 24 18 18 29.9950000  0  8  5  2  9 24 27 26  7  4
  23232754.652    -4236981.91949  -2993936.53249  23232753.7094   23232760.3724
  20688890.821    -3403421.49649  -2648284.12149  20688890.5594   20688896.0404
  20726734.622   -22861555.56049 -17451209.04349  20726734.3504   20726738.7214
  21868536.914   -11067156.36249  -8242918.28749  21868536.2874   21868544.2714
  22883643.584    10805781.32949   8415542.96649  22883644.4034   22883653.7844
  22522064.915    -1571048.03949  -1110478.68749  22522065.0194   22522071.3884
  19669021.213    -4181323.17749  -3249400.78649  19669020.5704   19669025.9004
  19998873.053   -26810323.43349 -20547599.51649  19998873.4284   19998877.9054
 98  4 24 18 18 59.9950000  0  8  5  2  9 24 27 26  7  4
  23209689.003    -4358192.19649  -3088386.02149  23209688.4574   23209694.5864
  20689450.586    -3400480.12849  -2645992.17849  20689450.1824   20689455.6284
  20706136.234   -22969800.74049 -17535555.92249  20706136.2704   20706141.0264
  21840767.339   -11213086.08649  -8356629.64949  21840767.6214   21840774.9874
  22898375.721    10883197.79749   8475867.15449  22898376.1444   22898385.9484
  22527341.952    -1543317.54849  -1088870.57749  22527342.3854   22527347.8704
  19671373.989    -4168959.27149  -3239766.58949  19671373.3724   19671378.6464
  19978096.057   -26919507.23949 -20632677.76749  19978096.1024   19978100.9764
 98  4 24 18 19 29.9950000  0  8  5  2  9 24 27 26  7  4
  23186633.678    -4479348.59849  -3182793.52449  23186632.7684   23186639.2424
  20690071.505    -3397217.61649  -2643449.98349  20690071.4424   20690076.3864
  20685626.320   -23077581.22149 -17619540.68749  20685626.2694   20685630.9864
  21813042.455   -11358781.17749  -8470158.17249  21813041.7354   21813050.1194
  22913149.445    10960832.84149   8536361.63649  22913151.1464   22913160.6514
  22532665.524    -1515342.98949  -1067072.28549  22532666.1004   22532672.4004
  19673783.031    -4156299.83749  -3229902.09949  19673782.6844   19673787.6744
  19957426.892   -27028124.51149 -20717314.56349  19957427.1514   19957431.9224
 98  4 24 18 19 59.9950000  0  8  5  2  9 24 27 26  7  4
  23163585.379    -4600467.97349  -3277172.18049  23163584.9644   23163591.7994
  20690746.592    -3393670.53149  -2640686.04449  20690746.2444   20690751.0594
  20665199.895   -23184923.14849 -17703183.72649  20665199.6404   20665204.2294
  21785360.098   -11504252.86849  -8583512.62449  21785360.9984   21785367.1484
  22927961.576    11038669.55449   8597013.26349  22927962.1524   22927971.0754
  22538033.125    -1487136.33749  -1045093.15349  22538032.2354   22538040.2484
  19676244.636    -4143364.41049  -3219822.55649  19676244.2204   19676249.1014
  19936859.751   -27136205.92049 -20801533.80549  19936860.0694   19936864.5664
 98  4 24 18 20 29.9950000  0  8  5  2  9 24 27 26  7  4
  23140534.474    -4721601.01449  -3371561.49049  23140532.6634   23140540.4404
  20691470.605    -3389865.94849  -2637721.45649  20691470.1234   20691475.5974
  20644851.614   -23291854.48649 -17786506.82949  20644851.7074   20644856.1544
  21757711.417   -11649547.78949  -8696729.33149  21757711.0204   21757718.0154
  22942802.138    11116655.81449   8657781.41049  22942804.1574   22942813.1094
  22543440.286    -1458721.68549  -1022951.92749  22543440.9714   22543446.1674
  19678749.927    -4130199.57349  -3209564.24749  19678749.5854   19678754.1564
  19916383.591   -27243809.09849 -20885380.40049  19916383.7944   19916388.2764
 98  4 24 18 20 59.9950000  0  7  5  2  9 24 26  7  4
  23117476.662    -4842770.75749  -3465979.38249  23117476.0444   23117482.9754
  20692241.238    -3385816.81649  -2634566.33449  20692240.9504   20692246.3084
  20624578.215   -23398392.17149 -17869523.17949  20624578.4814   20624582.6124
  21730090.663   -11794695.74049  -8809831.51349  21730090.5114   21730097.7344
  22548884.081    -1430115.44549  -1000661.42449  22548885.0524   22548889.0854
  19681294.291    -4116829.35549  -3199145.90649  19681293.8944   19681298.6904
  19895995.296   -27350950.60749 -20968867.25649  19895995.4494   19896000.0224
 98  4 24 18 21 29.9950000  0  7  5  2  9 24 26  7  4
  23094406.231    -4964006.66749  -3560448.84849  23094406.0254   23094411.7314
  20693052.649    -3381553.31249  -2631244.15449  20693052.3084   20693057.4094
  20604374.337   -23504564.64749 -17952254.95449  20604373.9094   20604378.3734
  21702491.636   -11939729.52749  -8922844.74149  21702490.9284   21702499.0844
  22554355.948    -1401360.81449   -978255.28549  22554357.1934   22554363.2974
  19683869.279    -4103297.96149  -3188601.96449  19683868.7214   19683873.5644
  19875688.138   -27457665.40049 -21052021.60749  19875688.4074   19875692.8564
 98  4 24 18 21 59.9950000  0  7  5  2  9 24 26  7  4
  23071332.075    -5085262.30449  -3654933.69749  23071332.0194   23071337.3224
  20693915.931    -3377016.93149  -2627709.32349  20693915.3804   20693920.3934
  20584253.229   -23610301.62549 -18034647.38349  20584252.9784   20584257.6524
  21674923.082   -12084602.74849  -9035732.84649  21674923.3634   21674930.0704
  22559865.753    -1372406.70249   -955693.71649  22559865.5804   22559871.5824
  19686484.130    -4089556.75349  -3177894.53949  19686483.2114   19686488.3934
  19855473.053   -27563896.31749 -21134798.92049  19855473.1624   19855477.8654
 98  4 24 18 22 29.9950000  0  7  5  2  9 24 26  7  4
  23048241.821    -5206602.06749  -3749484.08749  23048240.2654   23048247.5394
  20694822.378    -3372253.43049  -2623997.53349  20694821.6234   20694826.9614
  20564203.846   -23715661.49249 -18116745.96049  20564203.3384   20564208.2854
  21647371.772   -12229385.10749  -9148550.14549  21647371.2974   21647378.4834
  22565398.923    -1343330.10649   -933036.70149  22565399.1494   22565405.1614
  19689128.601    -4075659.89349  -3167065.82749  19689128.1904   19689133.2214
  19835342.259   -27669684.15549 -21217230.97349  19835342.4284   19835347.0484
 98  4 24 18 22 59.9950000  0  7  5  2  9 24 26  7  4
  23025154.934    -5327924.13149  -3844020.69449  23025154.4774   23025160.4564
  20695787.130    -3367183.50549  -2620046.98249  20695786.7154   20695791.9404
  20544242.025   -23820561.26049 -18198486.02449  20544241.9274   20544246.4304
  21619855.722   -12373982.01249  -9261222.94649  21619854.6964   21619863.7794
  22570969.750    -1314055.66249   -910225.53849  22570969.1434   22570975.4664
  19691820.455    -4061514.10049  -3156043.14049  19691819.6974   19691824.9304
  19815315.208   -27774926.75349 -21299238.16649  19815315.3634   19815320.0164
 98  4 24 18 23 29.9950000  0  7  5  2  9 24 26  7  4
  23002055.740    -5449310.80449  -3938607.64349  23002055.1394   23002061.4914
  20696792.596    -3361899.72349  -2615929.76949  20696791.8894   20696797.8984
  20524352.356   -23925081.95849 -18279930.70349  20524352.3774   20524356.8344
  21592358.444   -12518480.59449  -9373819.13649  21592357.5524   21592365.8834
  22576561.727    -1284669.38349   -887327.21149  22576562.6114   22576567.9234
  19694542.240    -4047210.65549  -3144897.60949  19694541.5434   19694546.7364
  19795373.667   -27879719.96449 -21380895.18349  19795373.7684   19795378.6644
 98  4 24 18 23 59.9950000  0  7  5  2  9 24 26  7  4
  22978951.259    -5570725.44749  -4033216.39449  22978950.4044   22978956.5274
  20697843.317    -3356378.18049  -2611627.30049  20697842.9324   20697847.9594
  20504539.309   -24029200.22449 -18361061.79949  20504538.8834   20504543.6134
  21564885.271   -12662852.58849  -9486316.69049  21564885.0814   21564892.2034
  22582181.351    -1255138.29549   -864316.04049  22582182.0714   22582187.4164
  19697299.456    -4032721.19949  -3133607.12949  19697298.9144   19697303.8844
  19775524.021   -27984030.25949 -21462175.89849  19775524.2994   19775529.0644
 98  4 24 18 24 29.9950000  0  7  5  2  9 24 26  7  4
  22955835.079    -5692201.31049  -4127872.84949  22955834.7864   22955840.1304
  20698930.305    -3350665.87049  -2607176.18749  20698930.0994   20698935.7204
  20484793.701   -24132964.00449 -18441916.67749  20484793.4134   20484798.1424
  21537426.524   -12807148.62749  -9598755.05149  21537426.2204   21537434.3944
  22587821.155    -1225501.02549   -841222.14849  22587820.6274   22587827.4324
  19700085.053    -4018082.83349  -3122200.61949  19700084.6754   19700089.6804
  19755754.228   -28087920.94549 -21543129.65349  19755754.1864   19755759.3274
 98  4 24 18 24 59.9950000  0  7  5  2  9 24 26  7  4
  22932709.630    -5813725.71549  -4222567.12949  22932709.6954   22932716.1184
  20700052.321    -3344769.41349  -2602581.56949  20700051.7424   20700057.2954
  20465117.191   -24236364.36549 -18522488.36549  20465116.4754   20465121.5294
  21509985.387   -12951352.54549  -9711121.63849  21509985.4074   21509992.5324
  22593484.191    -1195741.59649   -818033.05149  22593485.8654   22593490.9364
  19702897.533    -4003302.96249  -3110683.84049  19702896.8184   19702902.3174
  19736061.030   -28191409.12049 -21623769.76649  19736061.1194   19736066.1304
 98  4 24 18 25 29.9950000  0  7  5  2  9 24 26  7  4
  22909578.926    -5935278.14649  -4317283.24649  22909578.7594   22909584.5034
  20701214.346    -3338663.03749  -2597823.38749  20701213.9784   20701219.5224
  20445514.844   -24339375.09849 -18602756.45549  20445514.5754   20445519.3214
  21482565.807   -13095442.87049  -9823399.71149  21482565.0404   21482572.7764
  22599174.759    -1165837.66849   -794731.36449  22599175.0274   22599182.0984
  19705740.194    -3988364.37649  -3099043.38849  19705739.5104   19705744.9904
  19716449.817   -28294466.52549 -21704074.21849  19716449.9264   19716454.9074
 98  4 24 18 25 59.9940000  0  7  5  2  9 24 26  7  4
  22886448.719    -6056827.95649  -4411997.33149  22886448.3324   22886453.6774
  20702422.912    -3332312.03049  -2592874.58749  20702422.0214   20702428.1914
  20425995.210   -24441951.22649 -18682685.88949  20425995.2084   20425999.7914
  21455177.538   -13239368.49549  -9935549.45349  21455177.3204   21455185.0034
  22604896.488    -1135770.27049   -771302.31149  22604897.0154   22604902.4804
  19708622.015    -3973220.13849  -3087242.69449  19708621.4754   19708626.8484
  19696931.311   -28397036.97949 -21783999.22749  19696931.5784   19696936.4054
 98  4 24 18 26 29.9940000  0  7  5  2  9 24 26  7  4
  22863309.675    -6178424.07849  -4506747.50149  22863308.6114   22863315.6954
  20703673.930    -3325738.01549  -2587752.00249  20703673.5354   20703679.3804
  20406551.902   -24544126.37049 -18762302.86049  20406551.6884   20406556.6634
  21427812.831   -13383170.15049 -10047602.59149  21427812.1744   21427820.0644
  22610640.488    -1105585.52649   -747781.82449  22610641.3394   22610647.7014
  19711537.916    -3957897.01849  -3075302.60649  19711537.4674   19711542.7894
  19677499.960   -28499149.25549 -21863567.21349  19677500.0204   19677504.9394
 98  4 24 18 26 59.9940000  0  7  5  2  9 24 26  7  4
  22840155.006    -6300102.23749  -4601561.59349  22840154.0204   22840160.3924
  20704960.234    -3318978.54349  -2582484.92549  20704959.8854   20704965.8184
  20387177.517   -24645939.33349 -18841637.62049  20387177.3914   20387182.1744
  21400468.962   -13526862.75949 -10159570.75449  21400468.7644   21400476.0294
  22616396.503    -1075337.57549   -724212.08149  22616397.2044   22616403.8214
  19714477.999    -3942446.88849  -3063263.56149  19714477.7114   19714482.8844
  19658153.656   -28600814.62849 -21942786.96849  19658153.9334   19658158.5434
 98  4 24 18 27 29.9940000  0  7  5  2  9 24 26  7  4
  22816988.754    -6421841.71049  -4696423.47049  22816987.7684   22816993.8004
  20706284.574    -3312018.91649  -2577061.87349  20706284.0384   20706289.8774
  20367874.646   -24747376.63349 -18920679.65249  20367874.4444   20367879.1524
  21373150.416   -13670422.08849 -10271435.06749  21373149.9064   21373157.3364
  22622165.938    -1045019.63149   -700587.79749  22622166.4404   22622173.0284
  19717448.014    -3926839.51049  -3051101.97649  19717447.5754   19717452.8994
  19638900.233   -28701991.70749 -22021626.22449  19638900.5424   19638905.4714
 98  4 24 18 27 59.9940000  0  7  5  2  9 24 26  7  4
  22793802.742    -6543684.63549  -4791365.94649  22793802.3294   22793809.0294
  20707639.539    -3304898.81249  -2571513.77949  20707638.8904   20707644.7164
  20348634.893   -24848482.09549 -18999463.11549  20348634.6634   20348639.1584
  21345849.842   -13813887.37249 -10383226.09149  21345849.7264   21345856.3814
  22627940.833    -1014672.56649   -676940.82649  22627941.9424   22627947.6844
  19720440.647    -3911113.19149  -3038847.71249  19720440.0434   19720445.2524
  19619729.597   -28802734.00149 -22100126.69249  19619729.7144   19619734.8294
 98  4 24 18 28 29.9940000  0  7  5  2  9 24 26  7  4
  22770607.732    -6665574.84449  -4886345.26249  22770607.4764   22770612.9754
  20709034.600    -3297567.53649  -2565801.12749  20709034.0344   20709039.8444
  20329466.745   -24949211.41349 -19077953.47749  20329466.5334   20329471.3714
  21318576.176   -13957211.18049 -10494906.88849  21318576.1074   21318583.7794
  22633731.275     -984243.94749   -653230.31849  22633731.7744   22633737.6174
  19723462.712    -3895231.99349  -3026472.76649  19723462.3714   19723467.3744
  19600649.683   -28902999.49849 -22178255.62449  19600649.8424   19600654.8474
 98  4 24 18 28 59.9940000  0  7  5  2  9 24 26  7  4
  22747413.141    -6787463.11649  -4981323.09449  22747412.1144   22747418.4704
  20710480.751    -3289968.07549  -2559879.51849  20710480.2934   20710486.1774
  20310383.050   -25049496.87649 -19156097.98249  20310383.0644   20310387.8074
  21291342.694   -14100324.01149 -10606423.28449  21291341.4614   21291349.8534
  22639549.688     -953668.66749   -629405.51749  22639549.1264   22639556.7134
  19726527.268    -3879127.55649  -3013923.87149  19726526.7304   19726532.2074
  19581669.780   -29002739.49349 -22255975.08549  19581669.9824   19581674.9634
 98  4 24 18 29 29.9940000  0  7  5  2  9 24 26  7  4
  22724202.057    -6909438.15649  -5076368.52149  22724201.3434   22724207.4194
  20711964.863    -3282169.42849  -2553802.68449  20711964.4454   20711970.3564
  20291370.668   -25149407.65049 -19233950.51949  20291370.5864   20291375.1594
  21264131.082   -14243321.82249 -10717850.04549  21264130.4394   21264138.7554
  22645381.868     -923020.70649   -605524.08449  22645382.7884   22645388.8344
  19729619.548    -3862877.64949  -3001261.61849  19729618.8194   19729624.1734
  19562772.152   -29102047.08949 -22333357.60449  19562772.2354   19562777.3024
 98  4 24 18 29 59.9940000  0  7  5  2  9 24 26  7  4
  22700983.816    -7031450.62249  -5171443.11649  22700983.5564   22700990.2074
  20713502.620    -3274088.71849  -2547506.06149  20713502.3514   20713507.5654
  20272445.105   -25248862.01649 -19311447.41349  20272445.1084   20272449.8194
  21236954.438   -14386135.76949 -10829133.53949  21236954.4924   21236961.5694
  22651239.713     -892237.57249   -581537.31849  22651240.0434   22651247.2854
  19732750.067    -3846426.65249  -2988442.66849  19732749.6424   19732754.9414
  19543967.012   -29200868.71449 -22410361.44649  19543967.0334   19543972.2844
 98  4 24 18 30 29.9940000  0  7  5  2  9 24 26  7  4
  22677741.640    -7153588.56749  -5266615.49149  22677740.9174   22677747.1684
  20715077.638    -3265812.05049  -2541056.74449  20715077.6704   20715083.2254
  20253590.978   -25347941.04349 -19388651.83749  20253590.8014   20253595.5404
  21209797.669   -14528845.04249 -10940335.47349  21209797.4934   21209804.6844
  22657105.487     -861413.12749   -557518.37349  22657105.7524   22657111.5114
  19735901.075    -3829868.17849  -2975539.97649  19735900.5504   19735905.9064
  19525239.938   -29299280.15849 -22487045.66749  19525240.2274   19525244.9314
 98  4 24 18 30 59.9940000  0  7  5  2  9 24 26  7  4
  22654496.373    -7275743.02749  -5361800.72949  22654495.5194   22654501.7394
  20716707.490    -3257247.28349  -2534382.93349  20716707.1324   20716712.5864
  20234827.003   -25446546.38549 -19465487.15649  20234827.2114   20234831.8224
  21182679.615   -14671350.76849 -11051378.80049  21182678.4774   21182687.0244
  22662997.130     -830452.87049   -533393.60049  22662997.6034   22663003.7874
  19739087.630    -3813122.83949  -2962491.67349  19739087.1644   19739092.6004
  19506608.600   -29397188.37849 -22563337.76249  19506608.8164   19506613.6974
 98  4 24 18 31 29.9940000  0  7  5  2  9 24 26  7  4
  22631268.464    -7397806.51149  -5456915.09049  22631268.1694   22631275.4604
  20718406.292    -3248320.19549  -2527426.80549  20718406.1764   20718411.6534
  20216171.461   -25544582.01449 -19541878.54149  20216171.3064   20216175.8014
  21155618.031   -14813559.96449 -11162191.07349  21155618.3404   21155624.5164
  22668931.865     -799265.83849   -509092.12749  22668932.7444   22668938.3534
  19742322.858    -3796121.55249  -2949243.93549  19742322.5544   19742327.5894
  19488091.920   -29494494.10249 -22639160.38149  19488092.1954   19488097.0534
 98  4 24 18 31 59.9940000  0  7  5  2  9 24 26  7  4
  22608066.476    -7519733.87349  -5551923.36549  22608066.5114   22608071.2304
  20720179.518    -3239002.50249  -2520166.29949  20720179.8684   20720184.7434
  20197633.479   -25641999.78949 -19617788.48449  20197633.2494   20197638.0384
  21128622.079   -14955424.29249 -11272734.61649  21128622.0894   21128628.8964
  22674916.358     -767817.93549   -484587.35549  22674916.2124   22674923.1894
  19745613.281    -3778830.50649  -2935770.41049  19745612.8974   19745618.0294
  19469701.201   -29591138.26549 -22714467.49949  19469701.7864   19469706.4034
 98  4 24 18 32 29.9940000  0  7  5  2  9 24 26  7  4
  22584885.894    -7641548.89149  -5646844.10549  22584886.1394   22584891.5474
  20722016.105    -3229352.01249  -2512646.47349  20722015.6774   20722021.4864
  20179202.300   -25738856.49249 -19693261.22549  20179202.3994   20179206.6854
  21101680.822   -15097001.62349 -11383054.50949  21101680.5514   21101687.5364
  22680941.611     -736155.61549   -459915.51549  22680942.0414   22680947.8244
  19748948.368    -3761304.76949  -2922114.00549  19748948.0584   19748953.5584
  19451430.009   -29687154.23849 -22789285.12049  19451430.1254   19451434.5384
 98  4 24 18 32 59.9940000  0  7  5  2  9 24 26  7  4
  22561716.472    -7763305.12749  -5741719.03049  22561715.2104   22561721.7894
  20723905.490    -3219423.47349  -2504909.98749  20723904.8194   20723910.4994
  20160867.207   -25835208.54149 -19768340.73249  20160867.2724   20160871.4464
  21074783.429   -15238348.29649 -11493194.68449  21074782.9014   21074790.1164
  22686995.919     -704340.74149   -435124.81549  22686996.2894   22687003.5254
  19752317.133    -3743601.99949  -2908319.65449  19752316.8564   19752321.8924
  19433268.058   -29782596.18549 -22863655.44849  19433268.4284   19433272.9614
 98  4 24 18 33 29.9940000  0  7  5  2  9 24 26  7  4
  22538548.295    -7885054.67249  -5836588.75349  22538548.3284   22538553.7344
  20725845.371    -3209229.90049  -2496966.97849  20725845.0164   20725850.2444
  20142620.972   -25931093.40449 -19843056.19449  20142621.0344   20142625.0254
  21047924.119   -15379494.79049 -11603178.87349  21047923.7464   21047929.9204
  22693071.428     -672414.84649   -410247.59449  22693071.3744   22693078.1404
  19755717.547    -3725733.31449  -2894396.01549  19755717.2524   19755722.1034
  19415213.686   -29877472.70649 -22937585.18049  19415213.9974   19415218.2984
 98  4 24 18 33 59.9940000  0  7  5  2  9 24 26  7  4
  22515392.283    -8006740.30049  -5931408.66649  22515390.9794   22515397.4384
  20727851.356    -3198688.91049  -2488753.25949  20727851.0474   20727856.7544
  20124471.120   -26026471.85649 -19917377.04949  20124471.1194   20124475.2814
  21021114.116   -15520382.28749 -11712961.24749  21021113.9964   21021120.4204
  22699178.652     -640321.67949   -385240.03749  22699178.1764   22699184.9934
  19759162.025    -3707632.82249  -2880291.74349  19759161.5374   19759166.2774
  19397278.839   -29971721.28549 -23011025.60549  19397279.1534   19397283.4864
 98  4 24 18 34 29.9940000  0  7  5  2  9 24 26  7  4
  22492243.153    -8128389.58849  -6026200.25449  22492241.5454   22492248.5544
  20729921.471    -3187810.99549  -2480277.00749  20729921.2044   20729925.8504
  20106410.118   -26121383.32649 -19991334.02549  20106409.7924   20106414.1944
  20994352.373   -15661016.18049 -11822545.99849  20994352.0334   20994359.3044
  22705312.853     -608086.76549   -360122.01949  22705313.5194   22705320.0634
  19762647.090    -3689319.13849  -2866021.35149  19762646.7744   19762651.5624
  19379457.299   -30065374.24249 -23084001.91349  19379457.5114   19379461.7294
 98  4 24 18 34 59.9940000  0  7  5  2  9 24 26  7  4
  22469097.184    -8250022.42849  -6120979.03749  22469095.5594   22469102.8634
  20732054.752    -3176600.65449  -2471541.71849  20732054.3774   20732059.8724
  20088438.969   -26215822.39949 -20064922.89849  20088438.8234   20088442.8254
  20967639.944   -15801390.64849 -11931928.60649  20967640.2554   20967645.4434
  22711473.015     -575715.13749   -334897.46449  22711474.3734   22711480.0914
  19766176.081    -3670774.62949  -2851571.09249  19766175.6914   19766180.3184
  19361747.297   -30158440.89349 -23156521.35649  19361747.5414   19361751.6484
 98  4 24 18 35 29.9940000  0  7  5  2  9 24 26  7  4
  22445944.531    -8371690.48249  -6215785.25849  22445943.3074   22445949.4004
  20734237.738    -3165129.59249  -2462603.26049  20734237.7964   20734242.9764
  20070548.059   -26309839.76349 -20138183.17049  20070548.1094   20070552.1804
  20940965.888   -15941563.73949 -12041154.28749  20940965.7714   20940971.9844
  22717650.670     -543252.31149   -309601.86549  22717650.8184   22717656.9234
  19769740.401    -3652044.29749  -2836976.03649  19769740.0444   19769744.6854
  19344138.736   -30250974.68849 -23228625.58349  19344138.9014   19344143.2324
 98  4 24 18 35 59.9940000  0  7  5  2  9 24 26  7  4
  22422805.456    -8493287.17849  -6310535.87449  22422805.1454   22422810.4354
  20736484.515    -3153322.91349  -2453403.30349  20736484.3514   20736489.3334
  20052759.956   -26403317.25849 -20211022.76449  20052759.7434   20052763.9914
  20914347.275   -16081445.53749 -12150153.00449  20914347.4694   20914353.1214
  22723863.528     -510604.33249   -284161.99049  22723863.4174   22723870.3774
  19773355.186    -3633048.68349  -2822174.26649  19773354.7014   19773359.5144
  19326645.635   -30342901.72949 -23300257.02349  19326646.1614   19326650.2594
 98  4 24 18 36 29.9940000  0  7  5  2  9 24 26  7  4
  22399670.291    -8614863.37049  -6405270.51349  22399669.7414   22399676.0274
  20738781.165    -3141254.47749  -2443999.37549  20738781.0314   20738786.0094
  20035069.484   -26496281.49949 -20283462.41849  20035069.1704   20035073.4824
  20887772.741   -16221095.62749 -12258971.14849  20887772.2764   20887777.9824
  22730097.089     -477847.18349   -258637.04449  22730096.7914   22730103.7434
  19777010.867    -3613838.30249  -2807205.14749  19777010.3414   19777015.0374
  19309257.501   -30434277.40249 -23371458.81849  19309257.6894   19309261.7934
 98  4 24 18 36 59.9940000  0  8  5  2  9 24 26  7  4  8
  22376550.137    -8736360.67049  -6499943.67049  22376550.1974   22376554.6184
  20741132.854    -3128896.84249  -2434370.08749  20741132.1534   20741137.2154
  20017488.798   -26588668.97549 -20355452.64649  20017488.6814   20017492.6774
  20861249.717   -16360475.15549 -12367578.48449  20861249.2184   20861255.9784
  22736359.842     -444936.52949   -232992.47649  22736360.0554   22736366.7664
  19780714.542    -3594375.73949  -2792039.52349  19780714.0974   19780718.4844
  19291985.422   -30525042.93849 -23442185.18749  19291985.6264   19291989.8404
  22561254.808    -4416287.31349  -3409275.67949  22561253.0204   22561259.8484
 98  4 24 18 37 29.9940000  0  8  5  2  9 24 26  7  4  8
  22353437.890    -8857816.51049  -6594584.52649  22353437.4574   22353442.2544
  20743535.477    -3116271.12749  -2424531.91749  20743534.8704   20743540.0394
  20000012.164   -26680509.49649 -20427016.67749  20000012.2504   20000015.8864
  20834774.797   -16499601.48149 -12475988.52249  20834774.0964   20834780.6394
  22742644.144     -411913.33849   -207260.22349  22742644.7854   22742650.5534
  19784453.624    -3574726.75349  -2776728.63449  19784453.2284   19784457.6814
  19274823.935   -30615227.28749 -23512458.68749  19274824.1274   19274828.2184
  22533553.013    -4561861.23949  -3522709.86249  22533552.1064   22533557.8284
 98  4 24 18 37 59.9940000  0  8  5  2  9 24 26  7  4  8
  22330344.429    -8979173.43349  -6689148.31149  22330343.6954   22330350.3494
  20746005.323    -3103292.54149  -2414418.77149  20746005.1894   20746009.6514
  19982651.086   -26771742.87049 -20498107.60549  19982650.8794   19982654.6574
  20808363.872   -16638391.79249 -12584136.72149  20808363.4304   20808369.7064
  22748959.295     -378727.78949   -181401.46849  22748959.2234   22748965.6614
  19788236.634    -3554847.26949  -2761238.13349  19788236.1294   19788240.7284
  19257785.525   -30704764.83549 -23582228.18349  19257785.3334   19257789.7674
  22505906.886    -4707142.73649  -3635916.16249  22505906.3554   22505911.8884
 98  4 24 18 38 29.9940000  0  8  5  2  9 24 26  7  4  8
  22307259.677    -9100484.74649  -6783676.54649  22307258.4764   22307263.9254
  20748533.671    -3090006.11249  -2404065.76049  20748532.7104   20748538.1054
  19965391.042   -26862444.94849 -20568784.53449  19965390.9574   19965394.8084
  20782011.679   -16776873.13849 -12692044.17349  20782010.6834   20782016.7664
  22755295.125     -345433.25549   -155457.77249  22755295.3974   22755301.6324
  19792055.220    -3534780.67149  -2745601.83049  19792054.6164   19792058.8324
  19240862.212   -30793697.41949 -23651526.27849  19240862.3184   19240866.1894
  22478308.115    -4852174.82449  -3748928.12349  22478307.8514   22478313.0764
 98  4 24 18 38 59.9940000  0  8  5  2  9 24 26  7  4  8
  22284185.784    -9221738.42049  -6878159.87249  22284184.3504   22284190.5864
  20751125.835    -3076383.95649  -2393451.14749  20751125.4054   20751130.6754
  19948231.992   -26952616.26049 -20639047.88349  19948231.5874   19948235.7234
  20755724.088   -16915014.77949 -12799686.92549  20755723.4424   20755729.0474
  22761656.560     -312003.96449   -129409.08849  22761657.2334   22761663.4534
  19795910.807    -3514519.65049  -2729814.03349  19795910.3064   19795914.9384
  19224055.514   -30882017.25349 -23720346.90749  19224055.6534   19224059.6544
  22450758.564    -4996948.29349  -3861738.56549  22450758.0044   22450763.5094
 98  4 24 18 39 29.9940000  0  8  5  2  9 24 26  7  4  8
  22261107.383    -9343015.74949  -6972661.62649  22261107.1064   22261111.6964
  20753771.531    -3062480.90749  -2382617.65849  20753770.6544   20753776.5314
  19931159.157   -27042334.73649 -20708958.36749  19931159.0064   19931162.9814
  20729487.554   -17052888.49049 -12907120.89749  20729486.9254   20729493.3574
  22768028.199     -278521.43849   -103318.92049  22768028.3924   22768036.0324
  19799791.148    -3494128.35649  -2713924.72249  19799790.6404   19799795.3594
  19207348.252   -30969814.30649 -23788760.17049  19207348.2494   19207352.5724
  22423243.883    -5141538.47549  -3974406.19449  22423242.7524   22423249.2544
 98  4 24 18 39 59.9940000  0  8  5  2  9 24 26  7  4  8
  22238051.639    -9464173.74949  -7067070.40049  22238050.3984   22238056.8444
  20756495.093    -3048168.45349  -2371465.13249  20756494.7784   20756500.6124
  19914196.428   -27131474.16149 -20778417.64749  19914195.7894   19914200.1184
  20703324.069   -17190378.06949 -13014255.55349  20703323.5574   20703330.1714
  22774433.160     -244863.25649    -77091.87549  22774433.2184   22774440.6664
  19803724.011    -3473460.86649  -2697820.20149  19803723.2284   19803728.2184
  19190763.839   -31056965.91549 -23856670.49249  19190763.8214   19190768.0204
  22395789.191    -5285813.52249  -4086828.25449  22395787.8494   22395794.8954
 98  4 24 18 40 29.9940000  0  8  5  2  9 24 26  7  4  8
  22215002.476    -9585297.34849  -7161452.37449  22215002.2644   22215007.4494
  20759276.428    -3033551.81649  -2360075.59649  20759276.0124   20759281.9164
  19897328.638   -27220114.67749 -20847488.16449  19897328.2964   19897332.5774
  20677213.084   -17327591.48049 -13121175.00849  20677211.6644   20677219.4024
  22780854.143     -211121.00849    -50799.34649  22780854.2934   22780861.3234
  19807694.656    -3452594.84649  -2681560.98149  19807693.9494   19807699.1864
  19174285.502   -31143559.86349 -23924146.27249  19174285.4284   19174289.7484
  22368375.195    -5429874.38949  -4199083.42749  22368373.9574   22368379.9004
 98  4 24 18 40 59.9940000  0  8  5  2  9 24 26  7  4  8
  22191938.684    -9706497.89049  -7255894.30349  22191937.9114   22191944.0834
  20762096.423    -3018732.69549  -2348528.28249  20762095.8004   20762101.5474
  19880538.445   -27308347.42749 -20916240.94349  19880538.1204   19880542.5184
  20651131.634   -17464649.88149 -13227973.67949  20651131.2194   20651137.8744
  22787271.716     -177396.49549    -24520.60849  22787272.2504   22787279.7454
  19811682.165    -3431640.21449  -2665232.71149  19811681.6084   19811686.3364
  19157894.725   -31229693.69049 -23991263.51449  19157894.6954   19157898.9974
  22340983.632    -5573817.37149  -4311246.74349  22340983.2994   22340989.1284
 98  4 24 18 41 29.9940000  0  8  5  2  9 24 26  7  4  8
  22168865.445    -9827748.19149  -7350374.99649  22168864.4744   22168871.4794
  20764960.400    -3003682.38849  -2336800.82049  20764959.8974   20764965.8934
  19863832.048   -27396139.90749 -20984650.65949  19863831.9454   19863836.3304
  20625086.221   -17601518.72049 -13334624.64649  20625084.9214   20625091.8534
  22793691.427     -143660.87249      1766.76349  22793691.6764   22793698.3814
  19815691.029    -3410573.27149  -2648816.93049  19815689.9234   19815695.4534
  19141599.496   -31315325.20549 -24057989.34849  19141599.3864   19141603.7724
  22313623.859    -5717593.66049  -4423280.15549  22313622.5914   22313629.5354
 98  4 24 18 41 59.9940000  0  8  5  2  9 24 26  7  4  8
  22145785.056    -9949036.07549  -7444884.99249  22145784.1434   22145790.7314
  20767864.055    -2988423.44249  -2324910.78949  20767864.0774   20767869.1144
  19847209.188   -27483493.32849 -21052718.24749  19847208.8434   19847213.3254
  20599077.044   -17738197.13349 -13441127.21949  20599076.6964   20599082.5964
  22800113.689     -109911.75049     28064.66149  22800114.6694   22800121.1864
  19819719.908    -3389400.87449  -2632318.96849  19819719.1944   19819724.2244
  19125403.527   -31400435.20549 -24124308.79949  19125403.4594   19125408.0844
  22286298.002    -5861191.59249  -4535174.59949  22286297.0184   22286303.4334
 98  4 24 18 42 29.9940000  0  8  5  2  9 24 26  7  4  8
  22122710.307   -10070294.36849  -7539371.91249  22122709.5974   22122716.0764
  20770818.697    -2972896.97049  -2312812.29149  20770818.7414   20770824.3104
  19830684.403   -27570331.27149 -21120384.16749  19830684.1634   19830688.2864
  20573120.201   -17874600.68649 -13547415.63049  20573120.8454   20573126.4744
  22806553.391      -76071.41749     54433.61749  22806553.4624   22806561.2334
  19823781.295    -3368058.04449  -2615688.20349  19823780.5424   19823785.8424
  19109322.729   -31484940.16649 -24190156.79549  19109322.6214   19109327.2744
  22259022.817    -6004523.11849  -4646861.44149  22259021.6304   22259028.7464
 98  4 24 18 42 59.9940000  0  8  5  2  9 24 26  7  4  8
  22099630.861   -10191577.22749  -7633877.97949  22099630.3744   22099635.8944
  20773817.226    -2957139.84149  -2300534.05849  20773817.0264   20773822.1154
  19814249.958   -27656694.85349 -21187680.45549  19814249.5704   19814253.8874
  20547208.971   -18010764.68549 -13653517.36849  20547209.0334   20547215.5714
  22813002.395      -42181.88249     80840.91149  22813002.6874   22813009.9994
  19827863.722    -3346604.64449  -2598971.28349  19827863.1764   19827868.2834
  19093347.466   -31568890.46749 -24255572.59349  19093347.5214   19093351.9304
  22231789.985    -6147632.36149  -4758375.08949  22231790.1924   22231795.4784
 98  4 24 18 43 29.9940000  0  8  5  2  9 24 26  7  4  8
  22076549.023   -10312872.96149  -7728394.07649  22076548.3644   22076554.1924
  20776859.288    -2941153.80949  -2288077.46449  20776858.9304   20776864.5494
  19797907.448   -27742574.73649 -21254599.83049  19797906.9244   19797911.4514
  20521343.001   -18146690.72349 -13759433.68249  20521343.0004   20521349.2414
  22819459.876       -8248.06549    107282.73049  22819461.7154   22819467.2614
  19831966.429    -3325044.79149  -2582171.40849  19831965.8664   19831971.2344
  19077475.277   -31652299.17049 -24320566.36749  19077475.2194   19077479.8684
  22204596.179    -6290536.88449  -4869729.21149  22204594.6394   22204601.0604
 98  4 24 18 43 59.9940000  0  8  5  2  9 24 26  7  4  8
  22053472.256   -10434141.94149  -7822889.33549  22053471.8094   22053477.9204
  20779951.898    -2924902.08849  -2275413.84749  20779951.4394   20779957.5444
  19781666.935   -27827918.72349 -21321101.63049  19781666.7174   19781671.2744
  20495528.493   -18282346.38549 -13865139.31549  20495528.4114   20495534.2614
  22825933.348       25769.38349    133789.68349  22825933.0954   22825940.4504
  19836096.874    -3303339.16749  -2565257.95349  19836096.1664   19836101.7594
  19061713.952   -31735125.30649 -24385106.19649  19061714.2004   19061718.4694
  22177446.767    -6433207.89149  -4980901.38049  22177446.1544   22177452.2934
 98  4 24 18 44 29.9940000  0  8  5  2  9 24 26  7  4  8
  22030379.813   -10555493.53849  -7917448.95749  22030379.3364   22030385.9274
  20783083.334    -2908446.28449  -2262591.19649  20783083.0414   20783089.5834
  19765513.140   -27912807.27049 -21387248.53749  19765512.8204   19765517.2994
  20469750.676   -18417809.49549 -13970694.90449  20469750.4274   20469756.6794
  22832405.675       59781.50149    160292.49249  22832405.5254   22832413.0194
  19840238.080    -3281576.95349  -2548300.39849  19840237.2004   19840242.6154
  19046046.872   -31817456.29049 -24449260.19249  19046047.0764   19046051.5874
  22150325.764    -6575729.49249  -5091957.12649  22150325.2794   22150331.3334
 98  4 24 18 44 59.9940000  0  8  5  2  9 24 26  7  4  8
  22007282.575   -10676870.00049  -8012027.96749  22007281.1364   22007287.6844
  20786267.175    -2891715.24249  -2249554.07049  20786266.4174   20786273.1754
  19749455.822   -27997189.03049 -21453000.54749  19749455.6064   19749460.2624
  20444020.267   -18553023.46249 -14076056.35549  20444019.8404   20444027.0004
  22838886.008       93835.72049    186828.12549  22838886.6184   22838893.8524
  19844400.719    -3259701.98449  -2531254.98549  19844400.1784   19844405.5834
  19030484.824   -31899235.12249 -24512983.93749  19030484.8494   19030489.5714
  22123242.572    -6718052.59949  -5202858.20749  22123242.0584   22123248.0754
 98  4 24 18 45 29.9940000  0  8  5  2  9 24 26  7  4  8
  21984180.357   -10798272.35549  -8106627.15149  21984179.7294   21984186.6794
  20789499.764    -2874727.83149  -2236317.17549  20789499.3794   20789505.2944
  19733489.673   -28081091.60249 -21518379.16849  19733489.7094   19733494.1364
  20418338.335   -18687982.84149 -14181219.43649  20418338.1194   20418344.6564
  22845367.984      127898.50149    213370.40349  22845368.7304   22845375.5694
  19848582.904    -3237724.46449  -2514129.66349  19848582.4024   19848587.5854
  19015027.826   -31980461.93749 -24576277.53749  19015027.8204   19015032.3784
  22096198.680    -6860169.17349  -5313598.36849  22096197.5414   22096203.7464
 98  4 24 18 45 59.9930000  0  8  5  2  9 24 26  7  4  8
  21961057.718   -10919782.28849  -8201310.15849  21961057.3664   21961063.1654
  20792765.457    -2857566.55649  -2222944.80849  20792765.4384   20792770.8714
  19717597.613   -28164604.96649 -21583454.50849  19717597.5314   19717602.1594
  20392693.613   -18822746.36649 -14286229.90149  20392693.6324   20392700.4464
  22851834.187      161878.16449    239847.94449  22851834.3844   22851840.8734
  19852770.696    -3215717.18949  -2496981.15049  19852770.2034   19852775.4414
  18999664.730   -32061195.31249 -24639186.64249  18999664.7764   18999669.4264
  22069185.743    -7002122.71549  -5424211.47949  22069185.0114   22069190.7154
 98  4 24 18 46 29.9930000  0  8  5  2  9 24 26  7  4  8
  21937929.909   -11041319.50149  -8296014.42849  21937929.3984   21937935.6464
  20796079.953    -2840148.87349  -2209372.64649  20796079.5844   20796085.5274
  19701793.421   -28247656.56749 -21648170.03249  19701793.5224   19701797.8124
  20367098.593   -18957248.72449 -14391036.85249  20367098.7914   20367105.0404
  22858299.039      195850.49349    266319.74949  22858299.3494   22858306.8104
  19856981.611    -3193588.59249  -2479738.10349  19856980.9684   19856986.3904
  18984409.757   -32141360.67449 -24701653.13949  18984409.8674   18984414.4604
  22042218.803    -7143834.69849  -5534636.35449  22042218.0804   22042225.3484
 98  4 24 18 46 59.9930000  0  8  5  2  9 24 26  7  4  8
  21914812.129   -11162803.92149  -8390677.57049  21914811.8614   21914817.2794
  20799449.362    -2822442.66949  -2195575.65249  20799448.7114   20799455.5164
  19686087.857   -28330189.83249 -21712481.66149  19686087.8454   19686092.2854
  20341561.883   -19091444.67049 -14495605.05049  20341561.9604   20341567.7274
  22864772.251      229867.53549    292826.38949  22864773.0074   22864779.9124
  19861226.135    -3171283.63549  -2462357.62749  19861225.6704   19861231.0094
  18969271.109   -32220914.70149 -24763643.27149  18969271.3074   18969275.6494
  22015308.482    -7285248.82049  -5644829.12649  22015308.1994   22015313.1734
 98  4 24 18 47 29.9930000  0  8  5  2  9 24 26  7  4  8
  21891700.643   -11284255.25849  -8485314.91249  21891699.9614   21891706.6394
  20802868.524    -2804474.82949  -2181574.80349  20802867.9944   20802874.3884
  19670477.388   -28412223.63949 -21776404.10249  19670477.3524   19670481.7724
  20316077.526   -19225365.72549 -14599959.04849  20316077.0534   20316083.3794
  22871249.860      263906.98249    319350.51049  22871251.1624   22871257.9134
  19865497.668    -3148836.68949  -2444866.51749  19865497.2624   19865502.3534
  18954242.373   -32299891.34149 -24825183.49249  18954242.5914   18954246.9754
  21988451.952    -7426380.77749  -5754802.04449  21988451.6224   21988457.3404
 98  4 24 18 47 59.9930000  0  8  5  2  9 24 26  7  4  8
  21868599.746   -11405651.44849  -8579909.30049  21868599.5744   21868605.4374
  20806343.443    -2786214.57449  -2167346.11549  20806342.9784   20806349.2774
  19654970.261   -28493714.26849 -21839903.28449  19654970.3774   19654974.6114
  20290646.638   -19359005.74749 -14704094.06749  20290647.0974   20290652.1054
  22877738.965      298006.75849    345921.60749  22877739.1214   22877748.4914
  19869801.780    -3126218.76149  -2427242.17649  19869801.1734   19869806.1164
  18939325.887   -32378278.04949 -24886264.02649  18939326.1774   18939330.4394
  21961650.412    -7567223.94249  -5864549.92249  21961650.1164   21961656.1344
 98  4 24 18 48 29.9930000  0  8  5  2  9 24 26  7  4  8
  21845525.016   -11526910.06449  -8674396.47849  21845524.8184   21845529.4234
  20809889.437    -2767580.88149  -2152826.42149  20809889.2234   20809895.1184
  19639583.343   -28574573.12449 -21902910.17249  19639583.4094   19639587.6344
  20265284.988   -19492282.10949 -14807945.71149  20265284.8654   20265290.7064
  22884252.932      332237.16249    372594.51949  22884253.4914   22884261.0994
  19874151.575    -3103360.35249  -2409430.43649  19874150.7424   19874155.9384
  18924534.455   -32456007.68349 -24946832.55149  18924534.8074   18924539.1604
  21934913.806    -7707725.76649  -5974031.82249  21934913.4254   21934919.4424
 98  4 24 18 48 59.9930000  0  8  5  2  9 24 26  7  4  8
  21822476.712   -11648029.87449  -8768775.50049  21822476.7144   21822481.7814
  20813505.742    -2748577.68849  -2138018.81249  20813505.7704   20813511.3444
  19624315.319   -28654807.31149 -21965430.31549  19624315.1894   19624319.5074
  20239997.723   -19625167.28849 -14911492.53649  20239997.4914   20240003.1964
  22890790.716      366592.73249    399364.92449  22890790.8554   22890799.3514
  19878544.838    -3080273.81149  -2391440.94849  19878544.4104   19878549.5274
  18909868.488   -32533078.06749 -25006887.38149  18909868.7504   18909873.0354
  21908241.523    -7847889.62549  -6083250.36949  21908240.9804   21908247.1804
 98  4 24 18 49 29.9930000  0  8  5  2  9 24 26  7  4  8
  21799422.998   -11769178.32249  -8863176.84149  21799422.4344   21799427.6694
  20817162.890    -2729359.96149  -2123044.02149  20817162.4884   20817168.3364
  19609135.077   -28734580.33549 -22027591.10249  19609134.8384   19609139.2034
  20214758.459   -19757800.39149 -15014842.93949  20214758.0544   20214763.8924
  22897318.779      400897.42249    426095.71649  22897318.9564   22897326.5194
  19882951.220    -3057118.32849  -2373397.73249  19882950.7604   19882955.4654
  18895299.096   -32609640.94249 -25066546.74249  18895299.1974   18895303.6224
  21881600.977    -7987886.90049  -6192339.10949  21881600.3434   21881605.7084
 98  4 24 18 49 59.9930000  0  8  5  2  9 24 26  7  4  8
  21776381.236   -11890263.74249  -8957529.07349  21776380.4164   21776386.3854
  20820876.476    -2709845.40949  -2107837.93549  20820876.3474   20820881.7394
  19594060.813   -28813796.35649 -22089317.86749  19594060.7044   19594064.9394
  20189587.289   -19890075.76349 -15117914.58949  20189586.8204   20189593.2654
  22903853.480      435236.44449    452853.24449  22903854.6714   22903861.8954
  19887392.115    -3033781.48249  -2355213.19449  19887392.0054   19887396.5374
  18880846.864   -32685588.07649 -25125726.31649  18880847.1914   18880851.1964
  21855007.695    -8127635.85149  -6301234.35049  21855006.8344   21855012.2414
 98  4 24 18 50 29.9930000  0  8  5  2  9 24 26  7  4  8
  21753358.299   -12011250.16749  -9051804.16149  21753357.8844   21753362.6394
  20824654.052    -2689994.79949  -2092369.99449  20824653.3424   20824660.1824
  19579098.703   -28892423.14249 -22150585.48749  19579098.9024   19579102.7304
  20164493.884   -20021942.76249 -15220668.03449  20164493.5024   20164499.4504
  22910401.453      469645.45649    479665.31649  22910402.8584   22910410.6154
  19891873.415    -3010232.72249  -2336863.52949  19891873.0334   19891878.0964
  18866520.006   -32760876.40949 -25184392.53449  18866520.2604   18866524.3384
  21828473.043    -8267076.62849  -6409889.44949  21828472.4434   21828478.3734
 98  4 24 18 50 59.9930000  0  8  5  2  9 24 26  7  4  8
  21730345.383   -12132183.79949  -9146038.10549  21730344.5854   21730349.9664
  20828491.312    -2669830.49949  -2076657.60949  20828491.6154   20828496.6744
  19564239.396   -28970509.47749 -22211431.97449  19564239.3594   19564243.3704
  20139468.252   -20153453.31749 -15323143.72649  20139468.2364   20139474.2734
  22916957.723      504098.26849    506511.50849  22916957.7304   22916965.3954
  19896386.338    -2986517.81049  -2318384.38549  19896385.8394   19896390.4084
  18852312.743   -32835536.28149 -25242569.03649  18852313.1254   18852316.9604
  21801992.387    -8406233.77949  -6518323.56049  21801991.2364   21801996.7724
 98  4 24 18 51 29.9930000  0  8  5  2  9 24 26  7  4  8
  21707337.257   -12253092.14949  -9240252.35149  21707336.2644   21707341.5054
  20832387.950    -2649353.94249  -2060701.91449  20832387.4184   20832393.3564
  19549482.113   -29048059.78549 -22271860.77849  19549481.9854   19549486.0254
  20114504.204   -20284640.21049 -15425367.22049  20114503.8294   20114509.8274
  22923519.611      538580.30749    533380.48549  22923520.7874   22923528.2164
  19900928.436    -2962649.27149  -2299785.53849  19900928.0244   19900932.7884
  18838223.859   -32909573.99949 -25300260.74549  18838224.1094   18838228.1274
  21775567.345    -8545098.61249  -6626529.87849  21775566.6894   21775571.9024
 98  4 24 18 51 59.9930000  0  8  5  2  9 24 26  7  4  8
  21684320.733   -12374044.73249  -9334501.06849  21684320.1184   21684325.5314
  20836334.331    -2628615.86549  -2044542.43849  20836333.9464   20836339.6704
  19534816.554   -29125127.77349 -22331913.75049  19534816.3484   19534820.4204
  20089590.052   -20415564.90549 -15527386.40549  20089589.6074   20089595.7854
  22930077.937      573043.84349    560235.03549  22930078.2974   22930085.2594
  19905486.665    -2938695.71449  -2281120.44549  19905485.8894   19905490.6344
  18824242.064   -32983048.72049 -25357513.76049  18824242.1484   18824246.1874
  21749191.192    -8683706.02749  -6734535.61049  21749191.4584   21749196.2214
 98  4 24 18 52 29.9930000  0  8  5  2  9 24 26  7  4  8
  21661298.970   -12495024.60149  -9428771.03249  21661297.7964   21661302.8744
  20840334.643    -2607594.58449  -2028162.27949  20840333.8674   20840340.7124
  19520246.385   -29201694.21949 -22391575.90249  19520245.9854   19520250.3794
  20064729.418   -20546208.30249 -15629186.39249  20064729.3174   20064734.9944
  22936637.464      607514.05749    587094.81449  22936637.7564   22936644.9504
  19910060.517    -2914659.78249  -2262391.16149  19910059.9124   19910064.6414
  18810371.611   -33055938.54449 -25414311.01049  18810371.7114   18810375.9904
  21722871.068    -8822019.41449  -6842312.22449  21722870.9094   21722875.8424
 98  4 24 18 52 59.9930000  0  8  5  2  9 24 26  7  4  8
  21638300.419   -12615882.96949  -9522946.34049  21638299.0974   21638305.0814
  20844412.731    -2586164.47049  -2011463.55849  20844411.8544   20844417.9194
  19505799.163   -29277614.96249 -22450734.91149  19505799.0164   19505803.2464
  20039948.955   -20676430.44949 -15730658.14049  20039949.1324   20039954.4974
  22943224.671      642129.28449    614067.57149  22943224.7064   22943232.8864
  19914676.434    -2890403.14149  -2243489.89549  19914675.8474   19914680.9024
  18796640.601   -33128095.59149 -25470537.26549  18796640.6764   18796644.7334
  21696633.981    -8959896.39949  -6949748.78949  21696634.0934   21696638.2404
 98  4 24 18 53 29.9930000  0  8  5  2  9 24 26  7  4  8
  21615314.467   -12736674.91349  -9617069.88349  21615313.1404   21615319.4704
  20848550.812    -2564418.96449  -1994519.06149  20848548.8404   20848555.2174
  19491466.972   -29352931.26549 -22509422.93149  19491466.7184   19491471.0404
  20015240.750   -20806272.69449 -15831833.86049  20015240.0884   20015246.5854
  22949824.949      676813.38549    641093.98649  22949825.2074   22949832.6074
  19919322.559    -2865987.69849  -2224464.89849  19919322.0904   19919326.8164
  18783034.909   -33199593.93349 -25526250.24249  18783034.9854   18783039.1054
  21670467.536    -9097401.98849  -7056895.96749  21670465.7794   21670472.7854
 98  4 24 18 53 59.9930000  0  8  5  2  9 24 26  7  4  8
  21592354.247   -12857331.58549  -9711088.02049  21592353.6254   21592358.3214
  20852755.283    -2542324.49849  -1977302.65049  20852755.0484   20852760.2154
  19477260.010   -29427589.12249 -22567597.87749  19477259.7344   19477264.2054
  19990616.573   -20935673.54649 -15932665.64349  19990616.1544   19990621.8744
  22956447.404      711614.14849    668211.31649  22956447.6524   22956455.6394
  19924009.162    -2841359.49849  -2205274.11449  19924008.7764   19924013.8204
  18769563.371   -33270387.37349 -25581413.95149  18769563.3024   18769567.5414
  21644377.374    -9234506.08349  -7163730.27449  21644376.4004   21644381.8004
 98  4 24 18 54 29.9930000  0  8  5  2  9 24 26  7  4  8
  21569401.029   -12977951.44649  -9805077.47049  21569399.8954   21569406.0684
  20857003.611    -2519999.75949  -1959906.80449  20857003.7374   20857009.7864
  19463156.996   -29501701.20849 -22625347.54549  19463157.1374   19463161.1154
  19966052.122   -21064760.42949 -16033252.77149  19966052.1804   19966057.3724
  22963069.107      746410.61249    695325.29749  22963069.1084   22963077.2964
  19928715.266    -2816628.95649  -2186003.57849  19928715.0084   19928719.3984
  18756206.406   -33340578.60949 -25636108.40649  18756206.4684   18756210.5054
  21618340.753    -9371328.94149  -7270345.43549  21618339.1554   21618345.4684
 98  4 24 18 54 59.9930000  0  8  5  2  9 24 26  7  4  8
  21546458.004   -13098517.53549  -9899025.02649  21546457.5884   21546462.5614
  20861301.063    -2497417.07549  -1942309.97049  20861300.5124   20861306.6134
  19449161.281   -29575249.57449 -22682657.95049  19449161.2064   19449165.2744
  19941551.205   -21193513.59649 -16133579.85949  19941550.8324   19941556.7764
  22969691.226      781209.14249    722440.88049  22969692.0034   22969699.2184
  19933447.466    -2791761.40849  -2166626.28049  19933446.7224   19933451.7954
  18742966.040   -33410157.28049 -25690325.53949  18742966.1354   18742970.2914
  21592359.439    -9507861.78549  -7376734.61249  21592359.2614   21592363.5394
 98  4 24 18 55 29.9930000  0  8  5  2  9 24 26  7  4  8
  21523525.570   -13219028.13749  -9992929.33749  21523524.9044   21523530.4634
  20865652.784    -2474549.04749  -1924490.77449  20865652.9894   20865659.0644
  19435272.311   -29648236.59049 -22739530.94249  19435272.0314   19435276.0504
  19917115.811   -21321922.22349 -16233638.48049  19917115.4684   19917121.4234
  22976312.397      816002.86249    749552.74849  22976313.1894   22976319.8724
  19938208.946    -2766739.71849  -2147128.87749  19938208.7454   19938213.5324
  18729844.685   -33479110.53349 -25744055.33449  18729844.7284   18729848.6424
  21566432.415    -9644108.78349  -7482901.06149  21566432.0404   21566436.3484
 98  4 24 18 55 59.9930000  0  7  5  2  9 24  7  4  8
  21500599.614   -13339504.36449 -10086806.87649  21500599.3554   21500605.2944
  20870055.903    -2451410.72549  -1906460.99549  20870054.6624   20870061.6334
  19421482.052   -29720704.70549 -22795999.59549  19421481.7584   19421485.6104
  19892739.004   -21450023.05449 -16333457.25849  19892738.9234   19892744.3724
  19942995.982    -2741583.97749  -2127527.01649  19942995.2924   19943000.3884
  18716840.253   -33547449.32949 -25797306.33249  18716840.3314   18716844.3174
  21540556.539    -9780087.10649  -7588858.14749  21540556.3534   21540560.4054
 98  4 24 18 56 29.9930000  0  7  5  2  9 24  7  4  8
  21477685.392   -13459918.95549 -10180636.39149  21477684.6884   21477690.1654
  20874520.715    -2427947.77549  -1888178.23449  20874519.6514   20874525.9504
  19407796.961   -29792620.13549 -22852037.58549  19407796.7124   19407800.7764
  19868430.458   -21577765.18549 -16432996.53349  19868430.0724   19868435.7574
  19947812.718    -2716271.81149  -2107803.26549  19947812.1774   19947817.4394
  18703959.823   -33615136.47049 -25850049.54149  18703960.0784   18703964.0354
  21514740.968    -9915748.37849  -7694568.18749  21514740.0554   21514747.5224
 98  4 24 18 56 59.9930000  0  7  5  2  9 24  7  4  8
  21454777.145   -13580302.69549 -10274441.86849  21454776.4974   21454782.1274
  20879042.855    -2404184.01749  -1869661.08049  20879042.2304   20879047.9184
  19394212.058   -29864009.37049 -22907665.55249  19394211.8574   19394215.9474
  19844189.866   -21705150.02349 -16532257.39849  19844189.3944   19844195.0704
  19952653.757    -2690832.04749  -2087980.09249  19952653.0464   19952658.0024
  18691195.559   -33682212.84649 -25902316.83249  18691195.7244   18691199.9584
  21488980.987   -10051117.37449  -7800050.47449  21488979.9094   21488985.1604
 98  4 24 18 57 29.9930000  0  7  5  2  9 24  7  4  8
  21431908.103   -13700480.05649 -10368086.52049  21431907.8194   21431912.6214
  20883651.794    -2379964.20249  -1850788.58349  20883651.7794   20883656.6114
  19380760.312   -29934698.80649 -22962748.22049  19380760.1694   19380764.2194
  19820049.577   -21832007.82749 -16631107.58849  19820049.5354   19820055.1294
  19957548.215    -2665111.56749  -2067938.18249  19957547.2484   19957552.6924
  18678577.563   -33748520.78449 -25953985.34349  18678577.7004   18678581.7854
  21463310.779   -10186014.73749  -7905165.26449  21463309.9704   21463314.8934
 98  4 24 18 57 59.9930000  0  7  5  2  9 24  7  4  8
  21409075.961   -13820463.67949 -10461580.20449  21409076.6154   21409080.0804
  20888342.686    -2355313.68349  -1831580.46649  20888342.0924   20888347.4124
  19367443.158   -30004680.93349 -23017279.74549  19367443.2084   19367447.0304
  19796008.215   -21958345.95949 -16729552.84049  19796008.0994   19796013.9444
  19962491.420    -2639134.85149  -2047696.60449  19962490.9154   19962495.5084
  18666100.914   -33814086.02449 -26005075.12649  18666101.1774   18666104.9934
  21437731.074   -10320436.60149  -8009909.52449  21437730.6284   21437736.0924
 98  4 24 18 58 29.9930000  0  7  5  2  9 24  7  4  8
  21386279.355   -13940260.60249 -10554928.42149  21386278.8374   21386283.8134
  20893117.740    -2330220.68449  -1812027.56249  20893117.6664   20893123.7814
  19354262.909   -30073943.60949 -23071250.65249  19354262.6234   19354266.9844
  19772067.360   -22084155.66549 -16827586.32949  19772067.3034   19772072.7054
  19967482.870    -2612904.85649  -2027257.66349  19967482.4604   19967487.0884
  18653763.087   -33878921.80049 -26055596.49049  18653763.2784   18653767.3974
  21412244.275   -10454370.73249  -8114273.74949  21412243.4424   21412249.1344
 98  4 24 18 58 59.9930000  0  7  5  2  9 24  7  4  8
  21363495.002   -14059992.91049 -10648226.27749  21363494.5504   21363499.6284
  20897952.004    -2304816.62949  -1792232.28249  20897951.4894   20897957.7644
  19341197.910   -30142600.71049 -23124749.68349  19341197.6674   19341201.5454
  19748200.600   -22209576.32449 -16925316.66549  19748200.1954   19748205.7584
  19972501.794    -2586530.29449  -2006706.07649  19972500.7154   19972506.1104
  18641540.249   -33943153.45849 -26105647.11749  18641540.3204   18641544.5774
  21386828.891   -10587929.75049  -8218345.66449  21386827.4874   21386834.4914
 98  4 24 18 59 29.9930000  0  7  5  2  9 24  7  4  8
  21340734.031   -14179602.38049 -10741428.42249  21340733.9774   21340737.8224
  20902854.521    -2279054.39549  -1772157.89049  20902853.7554   20902859.6464
  19328258.553   -30210597.74749 -23177734.38049  19328258.2954   19328262.1664
  19724414.156   -22334574.66549 -17022717.92449  19724414.2124   19724419.4794
  19977557.303    -2559963.52149  -1986004.70749  19977556.6254   19977561.9534
  18629442.777   -34006726.14649 -26155184.26249  18629442.9454   18629446.8204
  21361494.692   -10721061.99049  -8322085.03049  21361494.1254   21361500.4614
 98  4 24 18 59 59.9930000  0  7  5  2  9 24  7  4  8
  21317998.122   -14299080.45149 -10834528.17349  21317997.4474   21318002.8664
  20907831.319    -2252901.55349  -1751779.13349  20907829.9804   20907837.5014
  19315446.243   -30277926.68849 -23230198.48049  19315446.1254   19315450.0864
  19700709.726   -22459142.05949 -17119783.38049  19700709.8024   19700715.1784
  19982651.218    -2533194.86549  -1965146.02849  19982650.5494   19982655.4754
  18617477.720   -34069602.95749 -26204179.16349  18617477.6884   18617481.8324
  21336244.193   -10853754.10349  -8425481.44249  21336243.5664   21336248.9984
 98  4 24 19  0 29.9930000  0  7  5  2  9 24  7  4  8
  21295276.755   -14418481.92349 -10927568.23949  21295276.2674   21295282.0314
  20912871.176    -2226417.05349  -1731141.94449  20912871.2314   20912877.3144
  19302746.338   -30344665.26949 -23282202.56749  19302746.3174   19302750.2454
  19677073.726   -22583349.96449 -17216568.71849  19677073.3864   19677079.1714
  19987771.635    -2506286.90249  -1944178.80549  19987770.6444   19987775.8274
  18605634.388   -34131839.93149 -26252675.50049  18605634.4774   18605638.3954
  21311063.120   -10986081.43349  -8528593.59849  21311062.5884   21311068.0134
 98  4 24 19  0 59.9930000  0  7  5  2  9 24  7  4  8
  21272550.896   -14537907.00549 -11020626.70149  21272550.0204   21272556.1384
  20917949.154    -2199732.39049  -1710348.77049  20917948.5164   20917954.9634
  19290134.432   -30410941.04349 -23333846.01749  19290133.9884   19290138.2324
  19653482.990   -22707319.82649 -17313168.56349  19653482.8074   19653488.1394
  19992895.944    -2479358.62149  -1923195.74349  19992895.4174   19992900.4414
  18593893.843   -34193536.80349 -26300750.97549  18593894.0054   18593897.8514
  21285926.401   -11118175.81949  -8631524.24349  21285925.7104   21285930.8424
 98  4 24 19  1 29.9930000  0  7  5  2  9 24  7  4  8
  21249829.397   -14657309.11749 -11113667.28049  21249828.6604   21249834.2284
  20923072.614    -2172808.45949  -1689369.17049  20923072.3284   20923078.6904
  19277614.966   -30476731.12449 -23385111.01349  19277614.7454   19277619.0154
  19629948.818   -22830992.60849 -17409536.91849  19629948.7394   19629954.4004
  19998029.630    -2452381.05349  -1902174.28749  19998029.3624   19998034.0324
  18582265.998   -34254641.42149 -26348364.95249  18582266.0454   18582269.9614
  21260840.735   -11250001.89949  -8734245.82649  21260840.0974   21260845.6854
 98  4 24 19  1 59.9930000  0  7  5  2  9 24  7  4  8
  21227105.374   -14776724.59549 -11206718.25849  21227105.2314   21227110.5644
  20928235.051    -2145680.36349  -1668230.47449  20928234.0054   20928241.1564
  19265184.216   -30542055.36749 -23436013.01649  19265184.2404   19265188.2324
  19606471.318   -22954367.80749 -17505673.39549  19606471.0634   19606476.4084
  20003168.510    -2425376.18849  -1881131.55049  20003167.7154   20003172.8814
  18570748.977   -34315163.81449 -26395525.25149  18570749.0984   18570752.9714
  21235803.688   -11381572.39949  -8836768.24249  21235802.9304   21235808.1964
 98  4 24 19  2 29.9930000  0  7  5  2  9 24  7  4  8
  21204403.858   -14896022.14449 -11299677.34349  21204402.7874   21204408.0834
  20933457.317    -2118237.64449  -1646846.61349  20933457.0494   20933463.3674
  19252868.185   -30606776.59349 -23486445.13049  19252868.1074   19252872.0204
  19583079.156   -23077294.23849 -17601460.18149  19583079.0364   19583084.6074
  20008340.371    -2398198.04749  -1859953.80249  20008340.0044   20008344.4224
  18559366.219   -34374980.73049 -26442135.81949  18559366.3084   18559370.1764
  21210842.489   -11512744.66449  -8938980.36049  21210841.3104   21210846.9274
 98  4 24 19  2 59.9930000  0  7  5  2  9 24  7  4  8
  21181722.939   -15015211.15649 -11392551.85349  21181722.4994   21181727.1214
  20938740.975    -2090472.27549  -1625211.34049  20938740.4424   20938745.8154
  19240668.802   -30670884.89349 -23536399.64449  19240668.6524   19240672.5234
  19559773.917   -23199763.92249 -17696891.06049  19559773.5914   19559778.9664
  20013546.572    -2370839.81249  -1838635.70849  20013546.2004   20013550.9594
  18548116.779   -34434097.07149 -26488200.48949  18548116.9264   18548120.8904
  21185959.739   -11643504.37449  -9040871.00749  21185959.0464   21185964.5994
 98  4 24 19  3 29.9930000  0  7  5  2  9 24  7  4  8
  21159043.128   -15134394.50749 -11485421.95349  21159043.3194   21159047.1314
  20944071.669    -2062460.07949  -1603383.74449  20944072.1614   20944077.4994
  19228572.294   -30734452.53549 -23585932.86649  19228572.2664   19228576.2264
  19536539.825   -23321859.67749 -17792030.56949  19536539.7354   19536545.3174
  20018769.841    -2343391.71149  -1817247.60349  20018769.3044   20018773.9034
  18536982.620   -34492607.59649 -26533793.09349  18536982.5744   18536986.5574
  21161141.385   -11773925.82249  -9142498.07849  21161141.0874   21161145.2604
 98  4 24 19  3 59.9930000  0  7  5  2  9 24  7  4  8
  21136348.823   -15253653.57649 -11578351.05749  21136348.0714   21136353.5554
  20949436.191    -2034269.64049  -1581417.25249  20949435.8974   20949442.8524
  19216567.473   -30797538.58649 -23635090.81649  19216567.4674   19216571.2984
  19513361.262   -23443663.90049 -17886942.90549  19513361.0714   19513366.5124
  20023997.300    -2315921.32849  -1795842.12149  20023996.7564   20024001.2704
  18525949.126   -34550589.01249 -26578973.40249  18525949.2524   18525953.3184
  21136373.561   -11904081.63549  -9243918.15149  21136373.0134   21136377.5454
 98  4 24 19  4 29.9930000  0  7  5  2  9 24  7  4  8
  21113651.335   -15372929.50349 -11671293.29149  21113649.7044   21113655.6234
  20954847.376    -2005834.30449  -1559259.91449  20954847.2414   20954852.7614
  19204660.555   -30860110.20749 -23683847.91849  19204660.3104   19204664.2444
  19490244.259   -23565144.55349 -17981603.10949  19490243.8954   19490249.6934
  20029237.973    -2288381.24749  -1774382.33349  20029237.2484   20029242.2774
  18515022.301   -34608009.92749 -26623716.95749  18515022.4174   18515026.2044
  21111662.644   -12033938.06849  -9345104.94549  21111662.1404   21111667.4284
 98  4 24 19  4 59.9930000  0  7  5  2  9 24  7  4  8
  21090964.381   -15492150.24549 -11764192.53449  21090964.3494   21090969.0324
  20960320.220    -1977074.91849  -1536850.06949  20960319.9224   20960326.1254
  19192862.962   -30922107.04549 -23732157.13949  19192862.7284   19192866.6674
  19467200.822   -23686238.65549 -18075962.11349  19467200.5284   19467205.9654
  20034500.981    -2260724.07949  -1752831.31249  20034500.4944   20034505.3764
  18504214.516   -34664805.16849 -26667972.97949  18504214.7194   18504218.4184
  21087020.889   -12163431.17849  -9446008.62649  21087020.5194   21087025.3714
 98  4 24 19  5 29.9930000  0  7  5  2  9 24  7  4  8
  21068309.190   -15611203.98749 -11856961.65049  21068308.8534   21068314.2904
  20965871.953    -1947900.66949  -1514116.97249  20965871.0304   20965877.1174
  19181194.498   -30983425.26549 -23779937.56149  19181194.2964   19181198.0744
  19444253.437   -23806827.96349 -18169927.75849  19444253.1544   19444258.6384
  20039803.052    -2232861.61449  -1731120.31349  20039802.2644   20039806.9224
  18493548.620   -34720854.85949 -26711648.04449  18493548.7934   18493552.4974
  21062468.922   -12292452.57549  -9546544.73649  21062467.6374   21062473.3544
 98  4 24 19  5 59.9930000  0  7  5  2  9 24  7  4  8
  21045695.326   -15730040.50849 -11949561.50449  21045694.9994   21045699.3444
  20971509.707    -1918274.41349  -1491031.67149  20971509.3164   20971515.8154
  19169663.036   -31044023.64249 -23827157.07149  19169662.6894   19169666.4834
  19421411.209   -23926864.82049 -18263462.92649  19421411.0074   19421416.5614
  20045152.914    -2204748.26249  -1709213.83049  20045152.3304   20045156.8664
  18483031.602   -34776122.40649 -26754713.65049  18483031.6534   18483035.5084
  21038015.118   -12420957.83249  -9646678.66149  21038014.2864   21038019.1544
 98  4 24 19  6 29.9920000  0  7  5  2  9 24  7  4  8
  21023117.154   -15848689.79649 -12042015.44749  21023117.0294   21023122.1464
  20977221.742    -1888257.87949  -1467642.26749  20977220.7524   20977227.7694
  19158259.277   -31103950.68549 -23873853.46449  19158259.1234   19158262.8484
  19398665.038   -24046397.04349 -18356604.87449  19398665.0944   19398670.1214
  20050539.279    -2176443.09849  -1687157.87649  20050538.9714   20050543.5194
  18472650.443   -34830675.75949 -26797222.74449  18472650.7104   18472654.3264
  21013652.382   -12548984.81949  -9746439.91349  21013650.8124   21013657.1864
 98  4 24 19  6 59.9920000  0  7  5  2  9 24  7  4  8
  21000571.473   -15967167.92749 -12134336.03249  21000571.7074   21000576.1244
  20983003.329    -1857876.33549  -1443968.43149  20983003.0294   20983009.5784
  19146983.179   -31163207.20549 -23920027.37249  19146983.1494   19146986.7094
  19376011.766   -24165440.55449 -18449366.00849  19376011.3364   19376016.6424
  20055957.820    -2147968.82049  -1664970.15049  20055957.0604   20055961.7714
  18462403.528   -34884523.78849 -26839182.23049  18462403.7144   18462407.4484
  20989379.071   -12676541.92749  -9845835.02449  20989379.5554   20989384.2354
 98  4 24 19  7 29.9920000  0  7  5  2  9 24  7  4  8
  20978049.057   -16085524.06949 -12226561.56449  20978048.7794   20978053.2384
  20988843.881    -1827184.59249  -1420052.86249  20988843.7664   20988849.9064
  19135827.798   -31221829.25949 -23965706.88749  19135827.5124   19135831.3804
  19353441.003   -24284050.36149 -18541789.18549  19353440.8324   19353446.0434
  20061400.522    -2119367.55249  -1642683.46549  20061399.9724   20061404.6784
  18452281.249   -34937716.95549 -26880631.43349  18452281.3414   18452285.1184
  20965184.635   -12803684.62449  -9944907.20949  20965183.8754   20965189.0704
 98  4 24 19  7 59.9920000  0  7  5  2  9 24  7  4  8
  20955525.233   -16203887.58449 -12318792.83549  20955524.6824   20955529.8414
  20994716.946    -1796321.63449  -1396003.87949  20994716.4904   20994722.3264
  19124766.616   -31279955.80649 -24011000.29949  19124766.1904   19124770.0684
  19330925.318   -24402370.97349 -18633987.02549  19330924.8594   19330930.4304
  20066842.467    -2090769.96749  -1620399.64749  20066841.3254   20066847.0964
  18442255.548   -34990402.24149 -26921684.89149  18442255.5324   18442259.3844
  20941042.828   -12930550.48149 -10043763.67549  20941042.5784   20941046.7664
 98  4 24 19  8 29.9920000  0  7  5  2  9 24  7  4  8
  20932999.721   -16322259.90649 -12411030.97349  20932998.2474   20933004.6564
  21000624.288    -1765278.49249  -1371814.49849  21000623.5714   21000630.5634
  19113798.341   -31337594.32249 -24055913.42649  19113798.0734   19113802.1614
  19308466.120   -24520394.62649 -18725953.45949  19308465.8174   19308471.1104
  20072282.407    -2062182.92649  -1598124.04949  20072281.3894   20072286.1914
  18432330.143   -35042560.44449 -26962327.63349  18432330.2134   18432334.0024
  20916954.608   -13057134.81449 -10142400.78949  20916953.6544   20916958.8844
 98  4 24 19  8 59.9920000  0  7  5  2  9 24  7  4  8
  20910470.838   -16440649.46949 -12503282.54249  20910470.2834   20910474.8294
  21006570.359    -1734031.61049  -1347466.37449  21006569.8344   21006575.9564
  19102922.797   -31394745.49049 -24100446.80449  19102922.6524   19102926.7074
  19286066.940   -24638102.65449 -18817673.96249  19286066.8544   19286072.3104
  20077721.222    -2033601.65149  -1575852.95049  20077720.4634   20077725.7394
  18422509.558   -35094167.84549 -27002541.17749  18422509.5824   18422513.7264
  20892921.719   -13183428.20149 -10240811.18549  20892921.6914   20892926.5604
 98  4 24 19  9 29.9920000  0  7  5  2  9 24  7  4  8
  20887938.349   -16559058.22349 -12595549.06549  20887937.3124   20887942.6464
  21012557.601    -1702568.63449  -1322949.87649  21012557.8594   21012563.7104
  19092140.927   -31451404.66649 -24144596.81149  19092140.6764   19092144.8874
  19263730.652   -24755480.36349 -18909137.06949  19263730.4874   19263735.6544
  20083163.098    -2005004.27749  -1553569.29949  20083161.9964   20083167.6554
  18412795.249   -35145216.51449 -27042319.34349  18412795.2874   18412799.2514
  20868947.214   -13309414.62749 -10338982.38449  20868946.7794   20868951.5444
 98  4 24 19  9 59.9920000  0  7  5  2  9 24  7  4  8
  20865405.720   -16677467.60449 -12687816.07249  20865404.6114   20865409.5694
  21018588.054    -1670878.54949  -1298256.41049  21018587.5254   21018594.1894
  19081454.558   -31507561.64049 -24188355.49449  19081454.2444   19081458.3344
  19241463.513   -24872494.60549 -19000316.95849  19241463.0724   19241468.4914
  20088612.586    -1976366.91449  -1531254.49449  20088611.7434   20088616.9634
  18403192.194   -35195680.72949 -27081642.09549  18403192.2454   18403196.2664
  20845037.023   -13435063.24549 -10436890.36349  20845036.1424   20845041.5104
 98  4 24 19 10 29.9920000  0  7  5  2  9 24  7  4  8
  20842875.855   -16795862.50349 -12780071.79549  20842875.2684   20842880.6474
  21024668.962    -1638923.15949  -1273356.20549  21024668.2754   21024675.3414
  19070868.140   -31563193.44249 -24231704.94849  19070867.8534   19070872.1554
  19219269.964   -24989122.11849 -19091195.49749  19219269.7964   19219275.3204
  20094074.337    -1947665.06749  -1508889.43549  20094073.3624   20094079.0264
  18393703.701   -35245542.80749 -27120495.64649  18393703.8444   18393707.6574
  20821194.578   -13560355.86849 -10534520.93649  20821193.4684   20821199.5734
 98  4 24 19 10 59.9920000  0  7  5  2  9 24  7  4  8
  20820354.836   -16914210.70349 -12872291.14049  20820354.6784   20820358.9744
  21030801.410    -1606696.97549  -1248244.99549  21030800.3804   21030808.1864
  19060390.790   -31618251.96149 -24274607.69649  19060390.7064   19060394.8144
  19197156.755   -25105327.62449 -19181745.20049  19197156.5654   19197162.0524
  20099555.452    -1918861.41549  -1486445.05949  20099555.3374   20099559.7534
  18384333.652   -35294782.45149 -27158864.18949  18384333.6814   18384337.6454
  20797423.605   -13685272.83649 -10631858.80449  20797422.8044   20797427.4104
 98  4 24 19 11 29.9920000  0  7  5  2  9 24  7  4  8
  20797841.031   -17032521.17449 -12964481.06149  20797840.1754   20797845.8664
  21036978.661    -1574235.10249  -1222950.14149  21036978.4134   21036985.5264
  19050021.385   -31672743.54949 -24317068.66649  19050021.4254   19050025.3994
  19175120.499   -25221128.53449 -19271979.63149  19175119.9014   19175126.0604
  20105055.398    -1889958.80549  -1463923.56549  20105054.6704   20105059.8774
  18375080.274   -35343408.89849 -27196754.91149  18375080.2574   18375084.2764
  20773722.602   -13809822.22449 -10728910.24549  20773721.3324   20773726.3864
 98  4 24 19 11 59.9920000  0  7  5  2  9 24  7  4  8
  20775335.127   -17150790.26849 -13056638.77249  20775334.8454   20775339.5414
  21043201.010    -1541536.67149  -1197470.95349  21043200.0964   21043206.9324
  19039758.509   -31726675.36749 -24359093.46049  19039758.3904   19039762.7034
  19153159.026   -25336536.66849 -19361908.00849  19153158.6944   19153164.2684
  20110570.358    -1860977.48249  -1441340.73849  20110569.3534   20110575.1474
  18365941.878   -35391431.26749 -27234174.92449  18365941.8634   18365945.9414
  20750090.995   -13934006.94549 -10825677.52549  20750090.7614   20750095.8814
 98  4 24 19 12 29.9920000  0  7  5  2  9 24  7  4  8
  20752844.308   -17268980.08549 -13148734.68949  20752844.2054   20752849.1864
  21049476.286    -1508560.08849  -1171775.02049  21049476.2514   21049482.2844
  19029609.925   -31780006.31349 -24400650.04349  19029609.8754   19029614.1194
  19131277.298   -25451525.36549 -19451509.54949  19131277.2624   19131282.8244
  20116104.086    -1831897.47749  -1418681.01949  20116103.6714   20116108.5894
  18356924.637   -35438816.86249 -27271098.75449  18356924.9154   18356928.6884
  20726537.418   -14057781.60249 -10922125.28249  20726536.6674   20726541.6774
 98  4 24 19 12 59.9920000  0  7  5  2  9 24  7  4  8
  20730374.638   -17387059.00549 -13240744.21749  20730374.2814   20730378.1894
  21055810.630    -1475273.78949  -1145837.74449  21055811.3754   21055816.2734
  19019583.388   -31832696.31649 -24441707.18749  19019583.4964   19019587.4334
  19109483.643   -25566051.66549 -19540750.78249  19109483.5504   19109489.1644
  20121664.621    -1802676.93049  -1395911.78549  20121664.5224   20121669.3444
  18348037.907   -35485517.10849 -27307488.54149  18348038.1384   18348041.9764
  20703074.617   -14181079.43249 -11018201.47649  20703074.1304   20703078.5054
 98  4 24 19 13 29.9920000  0  7  5  2  9 24  7  4  8
  20707925.304   -17505031.44949 -13332670.75949  20707924.5624   20707929.9694
  21062207.334    -1441659.61449  -1119644.98449  21062207.5074   21062215.0254
  19009674.852   -31884766.18149 -24482281.10649  19009674.9364   19009679.0364
  19087773.602   -25680138.67449 -19629649.70649  19087773.6294   19087778.8874
  20127249.242    -1773329.88649  -1373043.98049  20127248.8764   20127253.5524
  18339278.253   -35531549.44349 -27343357.88049  18339278.5324   18339282.4394
  20679703.020   -14303897.83949 -11113904.10249  20679702.3704   20679707.8174
 98  4 24 19 13 59.9920000  0  7  5  2  9 24  7  4  8
  20685493.404   -17622912.07149 -13424525.75349  20685493.4314   20685497.7224
  21068665.955    -1407720.10749  -1093198.71049  21068666.3264   21068671.9224
  18999881.357   -31936231.52349 -24522383.96449  18999881.4364   18999885.0384
  19066145.827   -25793793.56149 -19718211.90949  19066145.5224   19066150.6944
  20132852.521    -1743884.59549  -1350099.61749  20132851.7274   20132856.8874
  18330642.303   -35576932.02549 -27378720.91749  18330642.6204   18330646.4384
  20656415.874   -14426272.84149 -11209261.20649  20656415.3314   20656419.9594
 98  4 24 19 14 29.9920000  0  7  5  2  9 24  7  4  8
  20663083.792   -17740675.37049 -13516289.33349  20663083.4954   20663087.5714
  21075191.840    -1373427.35349  -1066477.20649  21075191.8184   21075198.8674
  18990208.700   -31987061.92649 -24561992.06849  18990208.5724   18990212.2644
  19044610.259   -25906963.81949 -19806396.48149  19044610.2314   19044615.5924
  20138484.552    -1714288.57949  -1327037.81249  20138484.2574   20138488.6574
  18322137.311   -35621626.41349 -27413547.70249  18322137.6884   18322141.4604
  20633216.512   -14548186.62049 -11304258.92249  20633215.6824   20633220.7354
 98  4 24 19 14 59.9920000  0  7  5  2  9 24  7  4  8
  20640702.914   -17858287.89849 -13607935.42149  20640701.8594   20640707.3084
  21081788.967    -1338759.97249  -1039463.78549  21081789.2614   21081795.4244
  18980660.301   -32037239.40049 -24601091.39849  18980660.1824   18980664.1714
  19023172.452   -26019620.34049 -19894180.74249  19023172.4924   19023177.6894
  20144149.840    -1684518.03949  -1303840.01649  20144149.8254   20144154.1254
  18313766.266   -35665616.70649 -27447825.84249  18313766.7034   18313770.3314
  20610105.819   -14669634.20749 -11398893.37149  20610104.8914   20610109.8414
 98  4 24 19 15 29.9920000  0  7  5  2  9 24  7  4  8
  20618357.665   -17975713.21849 -13699435.62849  20618356.8594   20618361.8824
  21088458.787    -1303710.61349  -1012152.72649  21088458.5644   21088465.4184
  18971239.154   -32086748.13749 -24639669.63349  18971239.0254   18971243.0214
  19001836.621   -26131741.20549 -19981547.60649  19001836.5024   19001841.6044
  20149847.242    -1654578.28849  -1280510.36349  20149846.4824   20149851.1994
  18305531.536   -35708890.87349 -27481545.95949  18305531.8244   18305535.5484
  20587082.486   -14790622.67449 -11493170.06549  20587082.2704   20587086.3914
 98  4 24 19 15 59.9920000  0  7  5  2  9 24  7  4  8
  20596046.763   -18092957.90049 -13790795.08849  20596046.6044   20596051.0254
  21095197.091    -1268300.87549   -984560.84649  21095196.3094   21095203.0784
  18961943.659   -32135596.65149 -24677733.40749  18961943.5104   18961947.2654
  18980602.278   -26243328.41149 -20068498.63349  18980602.1434   18980607.3084
  20155573.263    -1624488.31749  -1257063.66649  20155572.4284   20155577.5664
  18297432.842   -35751449.99849 -27514708.90649  18297432.9914   18297436.6414
  20564146.721   -14911150.81349 -11587088.05449  20564146.3484   20564150.8754
 98  4 24 19 16 29.9920000  0  7  5  2  9 24  7  4  8
  20573766.612   -18210040.95949 -13882028.60749  20573765.8784   20573770.7654
  21101997.706    -1232563.46749   -956713.61949  21101997.6414   21102003.1954
  18952768.917   -32183810.30349 -24715302.49249  18952768.5114   18952772.3814
  18959462.469   -26354419.06549 -20155062.73949  18959462.2774   18959467.3884
  20161321.061    -1594283.56349  -1233527.52249  20161320.3484   20161326.0964
  18289462.644   -35793333.77649 -27547345.60949  18289462.6484   18289466.4974
  20541300.440   -15031208.68849 -11680639.61049  20541299.8244   20541304.4924
 98  4 24 19 16 59.9920000  0  7  5  2  9 24  7  4  8
  20551491.624   -18327096.46449 -13973240.65749  20551491.2994   20551495.3034
  21108833.838    -1196639.75249   -928721.20949  21108833.2994   21108840.7814
  18943689.282   -32231523.68849 -24752481.75149  18943688.8174   18943692.8344
  18938386.752   -26465172.54149 -20241364.10249  18938386.5084   18938391.8494
  20167057.793    -1564136.86949  -1210036.61249  20167057.5974   20167062.5164
  18281592.214   -35834693.07149 -27579573.62049  18281592.3474   18281596.0474
  20518521.488   -15150912.75949 -11773915.47049  20518520.5144   20518525.9524
 98  4 24 19 17 29.9920000  0  7  5  2  9 24  7  4  8
  20529218.204   -18444143.50649 -14064446.11049  20529217.2294   20529222.4564
  21115703.785    -1160538.18049   -900590.20349  21115703.2234   21115709.1864
  18934704.906   -32278736.38049 -24789270.85949  18934704.4574   18934708.7584
  18917374.072   -26575594.44849 -20327407.10949  18917373.9944   18917379.4754
  20172783.054    -1534050.04249  -1186592.36249  20172782.2834   20172787.4184
  18273821.583   -35875527.60049 -27611392.72349  18273821.6964   18273825.6664
  20495811.670   -15270253.09349 -11866907.90049  20495810.8454   20495816.3564
 98  4 24 19 17 59.9920000  0  7  5  2  9 24  7  4  8
  20506961.325   -18561103.86849 -14155584.01149  20506961.0564   20506965.9764
  21122625.452    -1124164.92149   -872247.49849  21122625.1314   21122631.8784
  18925833.727   -32325354.42649 -24825596.61049  18925833.2984   18925837.7684
  18896440.545   -26685600.46849 -20413126.04549  18896440.4174   18896445.7664
  20178518.246    -1503911.28949  -1163107.64249  20178517.4934   20178522.7504
  18266167.107   -35915752.03549 -27642736.43249  18266167.0964   18266171.0694
  20473190.048   -15389130.34249 -11959539.49749  20473189.3464   20473194.4494
 98  4 24 19 18 29.9920000  0  7  5  2  9 24  7  4  8
  20484715.402   -18678006.47749 -14246676.92449  20484713.7584   20484720.4544
  21129592.984    -1087550.65349   -843717.02549  21129592.7874   21129600.8564
  18917069.903   -32371408.68149 -24861483.04149  18917069.7654   18917074.0494
  18875583.570   -26795204.01749 -20498531.37049  18875583.1664   18875588.7294
  20184261.215    -1473731.58449  -1139591.02149  20184260.7374   20184266.1144
  18258622.299   -35955399.96849 -27673630.91449  18258622.4594   18258626.3014
  20450650.003   -15507578.75549 -12051836.92449  20450649.6304   20450654.9254
 98  4 24 19 18 59.9920000  0  7  5  2  9 24  7  4  8
  20462465.152   -18794931.79349 -14337787.52549  20462464.4814   20462469.8894
  21136590.375    -1050779.35049   -815064.17849  21136590.2134   21136596.0034
  18908400.300   -32416967.70149 -24896983.58249  18908400.2174   18908404.5674
  18854792.436   -26904461.68049 -20583667.17449  18854792.1394   18854797.6554
  20190000.305    -1443572.37149  -1116090.36849  20189999.6044   20190004.7714
  18251174.640   -35994537.31849 -27704127.54549  18251174.6554   18251178.6444
  20428173.729   -15625692.21249 -12143873.35949  20428173.2304   20428178.3244
 98  4 24 19 19 29.9920000  0  7  5  2  9 24  7  4  8
  20440209.580   -18911885.26449 -14428920.07349  20440208.7884   20440213.2684
  21143615.413    -1013862.44349   -786297.88849  21143614.7704   21143622.4174
  18899824.808   -32462032.07349 -24932098.68349  18899824.5044   18899829.0034
  18834070.061   -27013358.19049 -20668521.56249  18834069.9454   18834075.3424
  20195740.331    -1413408.39949  -1092586.01049  20195739.4614   20195745.2814
  18243825.583   -36033156.62749 -27734220.50949  18243825.7524   18243829.8244
  20405759.127   -15743481.41549 -12235657.12649  20405758.5874   20405762.9044
 98  4 24 19 19 59.9920000  0  7  5  2  9 24  7  4  8
  20417947.088   -19028874.83149 -14520080.73949  20417946.9494   20417951.2744
  21150666.160     -976810.85849   -757426.64549  21150666.0694   21150672.2654
  18891336.723   -32506636.85949 -24966855.66049  18891336.5404   18891340.9884
  18813412.890   -27121911.76249 -20753108.72049  18813412.7154   18813418.1774
  20201477.223    -1383260.67249  -1069094.30849  20201476.5594   20201482.4894
  18236569.593   -36071286.88449 -27763932.39149  18236569.6664   18236573.9674
  20383403.578   -15860960.37949 -12327199.16049  20383403.0644   20383407.8634
 98  4 24 19 20 29.9920000  0  7  5  2  9 24  7  4  8
  20395686.234   -19145856.09749 -14611234.94049  20395685.5614   20395690.9644
  21157753.306     -939568.03849   -728406.37349  21157752.7434   21157760.5224
  18882943.171   -32550745.08749 -25001225.71449  18882943.0414   18882947.2814
  18792830.598   -27230071.94449 -20837389.34549  18792830.2244   18792835.8974
  20207217.044    -1353097.59249  -1045590.64549  20207216.9554   20207222.3054
  18229416.459   -36108876.49049 -27793222.98649  18229416.6474   18229421.0144
  20361116.350   -15978080.33449 -12418461.43249  20361115.9834   20361121.1724
 98  4 24 19 20 59.9920000  0  7  5  2  9 24  7  4  8
  20373422.984   -19262850.06349 -14702399.03449  20373423.0634   20373427.8124
  21164873.460     -902151.37549   -699250.65549  21164872.4544   21164881.1284
  18874640.379   -32594376.40249 -25035224.14449  18874640.3184   18874644.6044
  18772316.600   -27337873.46849 -20921390.49549  18772316.3564   18772322.2184
  20212953.571    -1322951.83649  -1022100.48249  20212952.9144   20212958.7664
  18222364.586   -36145934.12249 -27822099.05849  18222364.8694   18222368.9114
  20338892.781   -16094865.67149 -12509462.97249  20338892.4884   20338897.2514
 98  4 24 19 21 29.9920000  0  7  5  2  9 24  7  4  8
  20351137.613   -19379960.25849 -14793653.70549  20351137.0314   20351141.9604
  21172010.928     -864643.97149   -670024.22249  21172011.2324   21172018.6064
  18866404.708   -32637655.06449 -25068947.78249  18866404.7204   18866409.0694
  18751848.576   -27445433.24049 -21005203.26849  18751848.2664   18751853.9784
  20218665.717    -1292934.40849   -998710.30349  20218665.0394   20218670.3014
  18215394.037   -36182564.49449 -27850642.20249  18215394.1854   18215398.2564
  20316714.150   -16211414.95549 -12600280.57349  20316713.0024   20316718.6834
 98  4 24 19 21 59.9920000  0  7  5  2  9 24  7  4  8
  20328871.825   -19496967.61349 -14884828.23949  20328871.5954   20328876.8144
  21179209.182     -826817.34349   -640549.04949  21179209.4884   21179217.5334
  18858276.180   -32680370.72349 -25102232.71349  18858276.2074   18858280.7194
  18731468.337   -27552531.73449 -21088656.60949  18731467.9554   18731473.7944
  20224391.809    -1262843.57049   -975262.92949  20224391.1354   20224397.2524
  18208546.780   -36218546.89849 -27878680.43449  18208547.0754   18208551.3324
  20294623.501   -16327501.60349 -12690737.67949  20294623.4854   20294628.7134
 98  4 24 19 22 29.9920000  0  7  5  2  9 24  7  4  8
  20306583.987   -19614090.72349 -14976092.96749  20306583.5854   20306589.2524
  21186424.089     -788903.17449   -611005.65549  21186424.2044   21186431.0734
  18850218.120   -32722715.96749 -25135229.00649  18850217.9364   18850222.5984
  18711138.175   -27659367.01849 -21171904.84749  18711137.8894   18711143.7304
  20230092.020    -1232888.65449   -951921.47449  20230091.6294   20230097.2674
  18201786.577   -36254071.75349 -27906362.13449  18201786.6654   18201791.0684
  20272580.844   -16443336.30749 -12780998.45649  20272580.6144   20272585.3634
 98  4 24 19 22 59.9920000  0  7  5  2  9 24  7  4  8
  20284291.280   -19731239.58749 -15067377.77549  20284289.9984   20284295.5344
  21193669.438     -750828.88749   -581337.49849  21193670.1874   21193676.5904
  18842249.971   -32764588.72949 -25167857.13949  18842249.9924   18842254.4604
  18690876.392   -27765842.95349 -21254873.08049  18690876.3564   18690882.0534
  20235784.889    -1202972.55849   -928610.26449  20235784.1184   20235790.0784
  18195130.378   -36289050.26449 -27933618.11449  18195130.3434   18195134.7564
  20250603.573   -16558827.50049 -12870991.56549  20250603.3694   20250608.7034
 98  4 24 19 23 29.9920000  0  7  5  2  9 24  7  4  8
  20261962.629   -19848577.15249 -15158809.62349  20261961.4264   20261967.6594
  21200912.831     -712764.96849   -551677.41649  21200912.3344   21200920.1754
  18834341.119   -32806150.06349 -25200242.60149  18834341.1074   18834345.6014
  18670653.639   -27872114.08949 -21337681.72349  18670653.4664   18670659.2944
  20241439.113    -1173259.50249   -905457.28049  20241438.3844   20241443.9634
  18188542.864   -36323667.72349 -27960592.75649  18188543.2744   18188547.5154
  20228662.020   -16674130.62349 -12960838.11949  20228661.4094   20228666.8454
 98  4 24 19 23 59.9920000  0  7  5  2  9 24  7  4  8
  20239654.382   -19965807.71549 -15250158.08649  20239653.9294   20239659.1004
  21208205.709     -674440.81949   -521814.56949  21208205.0554   21208213.1864
  18826548.726   -32847099.36949 -25232151.15549  18826548.7224   18826553.1104
  18650524.843   -27977891.57749 -21420105.70749  18650524.7704   18650530.3654
  20247108.253    -1143468.17049   -882243.29149  20247107.5794   20247113.5494
  18182076.870   -36357646.68849 -27987069.87249  18182077.2904   18182081.3984
  20206809.714   -16788964.95149 -13050319.39449  20206808.8174   20206814.5454
 98  4 24 19 24 29.9920000  0  7  5  2  9 24  7  4  8
  20217335.040   -20083096.59049 -15341551.98349  20217334.6204   20217339.2984
  21215513.224     -636039.64549   -491891.72049  21215512.4664   21215520.0164
  18818840.077   -32887608.56549 -25263716.76249  18818840.0984   18818844.5604
  18630452.856   -28083370.47349 -21502297.01949  18630452.7064   18630458.3144
  20252759.169    -1113772.27249   -859103.66649  20252759.1774   20252764.7184
  18175695.237   -36391182.32349 -28013201.52749  18175695.4284   18175699.6744
  20185009.724   -16903524.62849 -13139586.64449  20185009.2894   20185014.3594
 98  4 24 19 24 59.9920000  0  7  5  2  9 24  7  4  8
  20195066.013   -20200120.92149 -15432739.74849  20195064.8384   20195070.8404
  21222899.375     -597225.61749   -461647.16649  21222899.2334   21222907.1594
  18811273.169   -32927372.90749 -25294701.97149  18811272.8874   18811277.6874
  18610495.376   -28188247.78649 -21584019.56849  18610495.4024   18610501.0434
  20258451.406    -1083859.56749   -835795.10649  20258450.8264   20258456.2394
  18169453.430   -36423983.27249 -28038760.70549  18169453.6894   18169457.9854
  20163322.238   -17017492.83449 -13228393.01549  20163321.2834   20163326.2504
 98  4 24 19 25 29.9920000  0  7  5  2  9 24  7  4  8
  20172832.810   -20316956.88149 -15523780.73249  20172832.1994   20172837.1314
  21230348.777     -558079.45349   -431143.79049  21230348.4764   21230356.1334
  18803829.878   -32966487.48649 -25325180.86949  18803829.7604   18803834.1764
  18590633.747   -28292621.29949 -21665349.54749  18590633.5824   18590639.2414
  20264164.246    -1053838.67149   -812402.23849  20264163.7614   20264169.6814
  18163333.822   -36456141.96449 -28063819.42149  18163334.1154   18163338.4714
  20141730.438   -17130958.45349 -13316807.76149  20141730.4704   20141735.2394
 98  4 24 19 25 59.9920000  0  7  5  2  9 24  7  4  8
  20150597.184   -20433805.67049 -15614831.70749  20150596.3224   20150601.2644
  21237821.537     -518810.20249   -400544.48649  21237820.8934   21237828.5044
  18796470.214   -33005162.76449 -25355317.45349  18796470.2744   18796474.7574
  18570829.406   -28396693.42849 -21746444.68349  18570829.3824   18570835.1724
  20269858.179    -1023916.70349   -789086.45349  20269857.3604   20269863.6914
  18157301.685   -36487841.13349 -28088520.06949  18157302.0814   18157306.3124
  20120195.884   -17244123.17049 -13404988.03849  20120195.1794   20120200.9424
 98  4 24 19 26 29.9920000  0  7  5  2  9 24  7  4  8
  20128374.423   -20550586.82649 -15705829.98149  20128373.8774   20128378.9794
  21245334.982     -479326.89049   -369778.39949  21245335.9404   21245342.9864
  18789210.608   -33043312.32849 -25385044.39449  18789210.7404   18789215.0514
  18551101.204   -28500365.69049 -21827228.23249  18551101.0304   18551106.6254
  20275551.424     -993998.42249   -765773.54449  20275550.3894   20275556.3284
  18151375.573   -36518982.93949 -28112786.40749  18151375.9044   18151380.1274
  20098739.719   -17356875.84749 -13492847.23549  20098739.3324   20098745.0334
 98  4 24 19 26 59.9920000  0  7  5  2  9 24  7  4  8
  20106162.361   -20667312.01249 -15796784.64549  20106161.5044   20106166.7944
  21252890.044     -439625.65849   -338842.53049  21252890.0504   21252897.7004
  18782051.299   -33080934.82749 -25414360.62649  18782051.4264   18782056.0494
  18531452.487   -28603620.12649 -21907686.19449  18531452.4524   18531458.2604
  20281241.986     -964094.53649   -742471.84249  20281241.6794   20281247.5544
  18145557.759   -36549555.85549 -28136609.44749  18145557.9824   18145562.1204
  20077366.073   -17469195.11049 -13580368.70549  20077365.8994   20077371.0324
 98  4 24 19 27 29.9920000  0  7  5  2  9 24  7  4  8
  20083939.227   -20784095.29149 -15887784.58149  20083938.4294   20083943.3304
  21260463.619     -399827.05249   -307830.77349  21260464.3374   21260471.6284
  18774971.096   -33118141.78449 -25443353.07149  18774971.1084   18774975.7934
  18511863.172   -28706563.02849 -21987901.41349  18511863.3244   18511868.7854
  20286908.452     -934317.35849   -719268.89549  20286908.2964   20286912.9914
  18139828.699   -36579662.08349 -28160068.84349  18139829.0384   18139833.1414
  20056053.386   -17581194.07649 -13667640.60649  20056052.6344   20056058.0154
 98  4 24 19 27 59.9910000  0  7  5  2  9 24  7  4  8
  20061743.591   -20900733.99149 -15978671.84649  20061743.1444   20061748.6394
  21268096.009     -359719.08849   -276577.97849  21268095.9444   21268103.9134
  18768009.172   -33154727.13749 -25471861.13749  18768009.2684   18768013.8394
  18492376.662   -28808965.36549 -22067695.41249  18492376.5144   18492382.1364
  20292595.187     -904433.47549   -695982.78449  20292595.1494   20292600.6934
  18134227.121   -36609098.74549 -28183006.49249  18134227.5064   18134231.4254
  20034843.656   -17692652.19149 -13754491.06449  20034843.1574   20034847.4804
 98  4 24 19 28 29.9910000  0  7  5  2  9 24  7  4  8
  20039589.019   -21017156.90249 -16069390.96949  20039588.6614   20039593.2274
  21275805.582     -319205.77949   -245009.30349  21275806.3964   21275813.0374
  18761181.947   -33190604.55849 -25499817.57749  18761182.0344   18761186.3234
  18473006.129   -28910758.06849 -22147014.36749  18473006.1444   18473011.6184
  20298319.249     -874353.65249   -672543.99749  20298318.8764   20298324.4104
  18128765.840   -36637798.07949 -28205369.60649  18128766.1564   18128770.0854
  20013750.654   -17803496.66949 -13840863.35049  20013750.5394   20013755.8194
 98  4 24 19 28 59.9910000  0  7  5  2  9 24  7  4  8
  20017492.279   -21133275.92249 -16159873.29249  20017491.6794   20017496.7634
  21283605.840     -278215.96549   -213069.33549  21283605.1674   21283611.8964
  18754503.415   -33225700.65049 -25527165.18449  18754503.4674   18754507.8314
  18453767.038   -29011860.05249 -22225795.09849  18453767.0834   18453772.5124
  20304095.978     -843996.81449   -648889.35349  20304095.6074   20304101.5014
  18123459.347   -36665683.86749 -28227098.78349  18123459.7704   18123463.7874
  19992786.916   -17913661.84149 -13926706.32949  19992786.6524   19992791.2474
 98  4 24 19 29 29.9910000  0  7  5  2  9 24  7  4  8
  19995407.078   -21249334.47749 -16250308.49549  19995406.1184   19995411.6324
  21291445.925     -237016.67749   -180966.13949  21291446.1494   21291453.7544
  18747923.636   -33260277.62049 -25554108.28249  18747923.5034   18747927.9104
  18434611.394   -29112523.55049 -22304234.15549  18434611.0644   18434616.7284
  20309879.634     -813603.77049   -625206.50149  20309879.5334   20309884.4664
  18118258.112   -36693016.73449 -28248397.11749  18118258.3714   18118262.4464
  19971903.386   -18023405.40749 -14012220.76549  19971902.6594   19971907.3374
 98  4 24 19 29 59.9910000  0  8  5  2 16  9 24  7  4  8
  19973329.104   -21365354.98649 -16340714.05549  19973328.8024   19973334.2644
  21299319.354     -195642.04349   -148726.31949  21299318.9984   21299327.5734
  22179772.308    -9301975.45049  -7236103.80849  22179770.7444   22179779.1294
  18741439.030   -33294354.46049 -25580661.67249  18741438.9324   18741443.2854
  18415535.385   -29212768.59149 -22382347.14449  18415535.3004   18415540.9764
  20315665.180     -783200.58849   -601515.75149  20315664.5984   20315670.2024
  18113157.543   -36719820.46849 -28269283.13649  18113157.7924   18113161.9164
  19951097.943   -18132738.30749 -14097415.20349  19951097.6624   19951102.8054
 98  4 24 19 30 29.9910000  0  8  5  2 16  9 24  7  4  8
  19951260.075   -21481328.26249 -16431082.80649  19951259.7304   19951264.3934
  21307226.404     -154091.11149   -116349.13149  21307226.8044   21307233.9014
  22169354.824    -9356719.85249  -7278761.75549  22169353.8264   22169362.0354
  18735051.742   -33327919.97149 -25606816.62149  18735051.8834   18735056.4104
  18396538.741   -29312596.54349 -22460135.12649  18396538.6814   18396544.1204
  20321450.704     -752797.71949   -577825.23249  20321450.9224   20321456.2104
  18108161.153   -36746076.71849 -28289742.54549  18108161.3314   18108165.5594
  19930373.801   -18241644.32949 -14182277.02049  19930373.0704   19930377.7994
 98  4 24 19 30 59.9910000  0  8  5  2 16  9 24  7  4  8
  19929217.785   -21597161.25849 -16521342.26249  19929217.6704   19929222.5674
  21315182.864     -112280.45049    -83769.54949  21315183.1164   21315190.5064
  22159032.504    -9410964.29849  -7321030.10949  22159031.9414   22159038.6714
  18728778.668   -33360885.26449 -25632503.87049  18728778.7564   18728783.1704
  18377640.077   -29411909.47149 -22537521.79449  18377640.0054   18377645.5534
  20327251.587     -722314.16749   -554071.86149  20327251.2774   20327257.0354
  18103285.176   -36771699.93449 -28309708.68649  18103285.3564   18103289.5854
  19909750.615   -18350020.14149 -14266725.67849  19909750.1374   19909754.6234
 98  4 24 19 31 29.9910000  0  8  5  2 16  9 24  7  4  8
  19907178.460   -21712978.81749 -16611589.67949  19907177.6484   19907182.6674
  21323166.917      -70324.51049    -51076.76749  21323166.8294   21323175.0554
  22148781.306    -9464834.32349  -7363006.72749  22148780.3284   22148788.0224
  18722595.619   -33393377.51649 -25657822.51049  18722595.5374   18722599.8384
  18358814.931   -29510836.15749 -22614607.49249  18358814.8974   18358820.3454
  20333040.597     -691892.94349   -530367.05049  20333040.3594   20333046.3634
  18098505.043   -36796819.61749 -28329282.45749  18098505.1364   18098509.3424
  19889207.797   -18457973.40749 -14350845.08349  19889207.3984   19889211.9804
 98  4 24 19 31 59.9910000  0  8  5  2 16  9 24  7  4  8
  19885167.308   -21828648.00349 -16701721.48149  19885166.3464   19885171.7474
  21331206.506      -28076.77949    -18156.62349  21331206.7534   21331214.9824
  22138626.078    -9518200.01049  -7404590.34449  22138625.6684   22138633.4934
  18716528.789   -33425258.72449 -25682665.01649  18716528.6674   18716533.2714
  18340088.590   -29609243.56349 -22691288.56049  18340088.3314   18340093.9354
  20338841.480     -661409.15349   -506613.49149  20338841.7634   20338847.0204
  18093846.688   -36821299.48649 -28348357.67749  18093847.0804   18093850.9424
  19868769.852   -18565375.59849 -14434535.08149  19868768.9574   19868773.7194
 98  4 24 19 32 29.9910000  0  8  5  2 16  9 24  7  4  8
  19863156.231   -21944316.81749 -16791852.99649  19863156.0634   19863160.7924
  21339274.589       14320.53049     14880.08649  21339274.2284   21339282.3424
  22128536.496    -9571220.81349  -7445905.21749  22128535.4044   22128543.6074
  18710547.634   -33456689.78849 -25707156.76249  18710547.6874   18710552.1424
  18321430.530   -29707292.11349 -22767689.99949  18321430.5384   18321435.7784
  20344622.108     -631031.85049   -482942.90849  20344621.3724   20344627.4614
  18089280.694   -36845293.96649 -28367054.67049  18089280.8814   18089284.9934
  19848405.637   -18672390.00349 -14517922.91649  19848405.3154   19848410.3774
 98  4 24 19 32 59.9910000  0  8  5  2 16  9 24  7  4  8
  19841171.489   -22059847.45549 -16881876.84149  19841171.4434   19841176.6664
  21347394.616       56990.89349     48129.54949  21347394.6764   21347402.4754
  22118540.648    -9623748.67849  -7486835.99449  22118539.5444   22118548.8464
  18704676.834   -33487541.09849 -25731196.75149  18704676.9124   18704681.3604
  18302864.069   -29804859.43849 -22843716.45849  18302863.9714   18302869.3744
  20350407.029     -600632.23149   -459254.93849  20350406.5574   20350412.6794
  18084829.195   -36868686.54449 -28385282.65649  18084829.3534   18084833.6664
  19828137.340   -18778900.31549 -14600917.93249  19828137.3964   19828142.3794
 98  4 24 19 33 29.9910000  0  8  5  2 16  9 24  7  4  8
  19819152.813   -22175556.44649 -16972039.66149  19819151.5974   19819157.0824
  21355506.905       99620.45549     81347.23049  21355507.2704   21355515.3354
  22108578.949    -9676098.05549  -7527627.67449  22108579.1794   22108586.5024
  18698857.468   -33518122.03449 -25755026.05449  18698857.5804   18698861.9484
  18284328.141   -29902266.21449 -22919617.80849  18284327.9534   18284333.3094
  20356135.800     -570527.10049   -435796.42749  20356135.2314   20356141.5554
  18080432.794   -36891789.58749 -28403285.02149  18080433.0474   18080437.2114
  19807902.311   -18885236.08949 -14683776.95249  19807901.9154   19807907.3974
 98  4 24 19 33 59.9910000  0  8  5  2 16  9 24  7  4  8
  19797131.463   -22291279.17449 -17062213.19249  19797131.2114   19797135.5674
  21363640.802      142363.78249    114653.54949  21363640.5494   21363649.4694
  22098681.670    -9728108.63649  -7568155.35349  22098680.9324   22098688.0384
  18693123.265   -33548255.41649 -25778506.62049  18693123.4504   18693127.7494
  18265854.329   -29999346.66649 -22995264.89149  18265854.2624   18265859.7494
  20361840.340     -540549.39749   -412437.22749  20361839.7124   20361846.2954
  18076123.344   -36914435.89649 -28420931.50349  18076123.5304   18076127.8224
  19787730.830   -18991237.89249 -14766375.73849  19787730.6494   19787734.6454
 98  4 24 19 34 29.9910000  0  8  5  2 16  9 24  7  4  8
  19775127.992   -22406908.13249 -17152313.65549  19775127.4644   19775132.6854
  21371813.091      185309.05249    148117.24849  21371813.3124   21371820.4854
  22088868.298    -9779677.93049  -7608339.16149  22088868.3054   22088876.0464
  18687493.686   -33577839.08949 -25801558.84149  18687493.6474   18687498.1784
  18247459.632   -30096011.38049 -23070588.02149  18247459.5674   18247464.8974
  20367541.008     -510592.26549   -389094.03749  20367540.6854   20367545.8754
  18071920.358   -36936522.75949 -28438142.05149  18071920.6804   18071924.9244
  19767644.467   -19096792.45749 -14848626.02049  19767643.5954   19767648.9904
 98  4 24 19 34 59.9910000  0  8  5  2 16  9 24  7  4  8
  19753155.227   -22522375.59149 -17242288.26749  19753154.8654   19753160.0014
  21380036.009      228520.28549    181788.17449  21380036.2594   21380044.4894
  22079151.554    -9830739.53349  -7648127.39749  22079150.5624   22079159.5654
  18681984.183   -33606791.61949 -25824119.26149  18681983.9724   18681988.4374
  18229160.607   -30192173.42249 -23145519.45749  18229160.4154   18229166.1584
  20373254.870     -480565.90749   -365696.91849  20373254.8494   20373260.2944
  18067835.778   -36957987.42449 -28454867.77149  18067836.0374   18067840.2824
  19747656.701   -19201828.87749 -14930472.56049  19747656.4024   19747661.6994
 98  4 24 19 35 29.9910000  0  8  5  2 16  9 24  7  4  8
  19731225.703   -22637615.89849 -17332085.88449  19731225.1674   19731230.6414
  21388322.012      272063.00149    215717.40349  21388321.3534   21388329.8304
  22069540.951    -9881243.31949  -7687480.95449  22069540.2354   22069548.8134
  18676606.928   -33635049.14349 -25846138.11649  18676607.2244   18676611.4374
  18210973.413   -30287747.60349 -23219992.82149  18210973.4454   18210978.8294
  20378995.361     -450399.71649   -342190.83949  20378994.2864   20379000.9194
  18063883.248   -36978758.09749 -28471052.71649  18063883.6044   18063887.7024
  19727782.031   -19306270.71649 -15011855.78949  19727781.2714   19727786.5914
 98  4 24 19 35 59.9910000  0  8  5  2 16  9 24  7  4  8
  19709292.236   -22752876.69249 -17421899.46049  19709291.4214   19709297.0974
  21396622.446      315681.56849    249705.73449  21396622.3674   21396630.6764
  22059990.737    -9931430.25949  -7726587.61549  22059991.2764   22059996.8974
  18671312.755   -33662870.39949 -25867817.01849  18671312.5894   18671317.1074
  18192853.638   -30382967.62249 -23294190.21549  18192853.5404   18192859.0734
  20384717.867     -420327.98249   -318758.35049  20384717.8934   20384723.3214
  18060016.697   -36999077.02049 -28486885.64149  18060016.8804   18060021.1814
  19707975.982   -19410351.93349 -15092958.00749  19707975.6924   19707980.6934
 98  4 24 19 36 29.9910000  0  8  5  2 16  9 24  7  4  8
  19687373.806   -22868058.57349 -17511651.54949  19687373.1454   19687378.3084
  21404959.528      359492.61549    283844.04949  21404959.3554   21404968.2264
  22050522.755    -9981184.70249  -7765357.28549  22050521.4924   22050530.9354
  18666119.451   -33690161.35649 -25889082.70449  18666119.6144   18666124.1534
  18174825.243   -30477707.32849 -23368013.33949  18174825.1304   18174830.5924
  20390444.675     -390233.72149   -295308.31449  20390444.6794   20390449.4404
  18056256.207   -37018838.47249 -28502284.18049  18056256.5244   18056260.8264
  19688258.706   -19513966.74049 -15173696.79849  19688258.4024   19688263.5564
 98  4 24 19 36 59.9910000  0  8  5  2 16  9 24  7  4  8
  19665452.173   -22983257.54949 -17601416.96649  19665452.1114   19665456.3164
  21413320.548      403429.13449    318080.13949  21413320.8664   21413328.6544
  22041120.951   -10030591.57849  -7803856.13949  22041120.1504   22041127.0624
  18661009.930   -33717012.22849 -25910005.47049  18661009.9524   18661014.2134
  18156877.370   -30572023.91649 -23441506.76949  18156877.2154   18156882.5734
  20396159.659     -360201.60249   -271906.70849  20396159.7724   20396165.3954
  18052582.697   -37038143.03549 -28517326.70049  18052582.9874   18052587.2594
  19668614.030   -19617200.24249 -15254138.45849  19668613.8124   19668619.0124
 98  4 24 19 37 29.9910000  0  8  5  2 16  9 24  7  4  8
  19643545.538   -23098377.72049 -17691120.97549  19643545.1374   19643550.2624
  21421724.021      447589.03549    352490.28249  21421724.6194   21421732.9804
  22031803.977   -10079552.68749  -7842007.60749  22031804.9394   22031810.4264
  18655998.138   -33743349.24649 -25930527.82949  18655998.1114   18656002.7484
  18139025.831   -30665834.18849 -23514605.66349  18139025.7744   18139031.2694
  20401879.942     -330141.55749   -248483.33149  20401879.3934   20401884.8844
  18049014.250   -37056895.31649 -28531938.87349  18049014.5874   18049018.6524
  19649061.435   -19719949.78349 -15334203.01449  19649061.3484   19649065.9384
 98  4 24 19 37 59.9910000  0  8  5  2 16  9 24  7  4  8
  19621670.118   -23213333.85449 -17780697.15049  19621669.5814   19621674.5994
  21430186.448      492059.14449    387142.15349  21430186.8604   21430195.0704
  22022590.210   -10127971.40049  -7879736.46749  22022589.4094   22022597.8864
  18651097.757   -33769101.08349 -25950594.19849  18651097.4344   18651102.2794
  18121284.345   -30759066.31349 -23587254.05249  18121284.4764   18121289.9654
  20407620.872     -299972.87249   -224975.29649  20407619.9694   20407626.8234
  18045566.675   -37075012.25249 -28546055.96649  18045566.8844   18045571.1314
  19629616.292   -19822134.67449 -15413827.57049  19629616.0004   19629620.9834
 98  4 24 19 38 29.9910000  0  8  5  2 16  9 24  7  4  8
  19599806.752   -23328226.29249 -17870223.70349  19599806.3164   19599811.1014
  21438688.202      536735.57649    421954.78749  21438688.5254   21438697.5044
  22013459.094   -10175955.66649  -7917126.77449  22013457.6404   22013466.4034
  18646289.988   -33794365.97349 -25970281.13749  18646289.9624   18646294.4844
  18103630.515   -30851837.83749 -23659543.53449  18103630.5074   18103635.8724
  20413359.392     -269816.82549   -201477.12849  20413358.8964   20413364.4324
  18042216.192   -37092619.16049 -28559775.64149  18042216.6134   18042220.7534
  19610258.222   -19923861.82149 -15493095.45849  19610257.3214   19610262.2904
 98  4 24 19 38 59.9910000  0  8  5  2 16  9 24  7  4  8
  19578010.821   -23442764.74749 -17959474.42449  19578010.6554   19578015.0594
  21447278.948      581879.52749    457131.71349  21447279.0184   21447287.5594
  22004462.919   -10223230.73049  -7953964.45649  22004462.0684   22004468.7904
  18641628.486   -33818862.72649 -25989369.52749  18641628.5194   18641632.9674
  18086111.762   -30943899.53849 -23731279.90749  18086111.7754   18086117.0454
  20419146.198     -239407.09749   -177781.27549  20419145.9694   20419151.2154
  18039014.565   -37109444.06149 -28572885.96249  18039014.9204   18039018.7764
  19591042.137   -20024842.88749 -15571781.97749  19591042.1844   19591046.1334
 98  4 24 19 39 29.9910000  0  8  5  2 16  9 24  7  4  8
  19556305.656   -23556826.20149 -18048353.45349  19556305.6214   19556310.3564
  21455976.657      627585.08849    492746.25449  21455977.4064   21455985.6814
  21995626.227   -10269667.82549  -7990149.18949  21995625.8654   21995631.9424
  18637135.367   -33842474.37649 -26007768.21849  18637135.5604   18637139.6424
  18068744.828   -31035163.52349 -23802394.67949  18068744.9784   18068750.1534
  20425001.205     -208638.93849   -153806.12549  20425001.7564   20425006.8814
  18035986.386   -37125357.37749 -28585285.95149  18035986.7164   18035990.6854
  19571989.848   -20124963.36949 -15649797.92249  19571989.3844   19571994.1864
 98  4 24 19 39 59.9910000  0  8  5  2 16  9 24  7  4  8
  19534671.779   -23670513.00849 -18136940.55649  19534671.4284   19534675.8874
  21464760.223      673742.06149    528712.53749  21464760.2764   21464769.3074
  21986930.296   -10315365.34049  -8025757.62349  21986929.5754   21986938.1224
  18632794.349   -33865286.86549 -26025544.19449  18632794.3254   18632798.7624
  18051510.993   -31125728.10949 -23872964.47149  18051511.0794   18051516.1394
  20430902.821     -177626.25349   -129640.43349  20430902.1214   20430908.0004
  18033112.235   -37140461.41049 -28597055.33249  18033112.5764   18033116.4444
  19553082.091   -20224324.67749 -15727222.29749  19553081.8334   19553086.9644
 98  4 24 19 40 29.9910000  0  8  5  2 16  9 24  7  4  8
  19513078.047   -23783988.88349 -18225363.29149  19513076.8684   19513082.2994
  21473596.820      720177.57949    564895.89049  21473597.7084   21473604.4984
  21978339.958   -10360507.95949  -8060933.66849  21978340.4324   21978347.1564
  18628574.239   -33887463.98649 -26042825.07249  18628574.1464   18628578.5424
  18034377.855   -31215763.38349 -23943121.80349  18034377.7604   18034382.8034
  20436817.655     -146543.99649   -105420.52649  20436817.4464   20436822.8844
  18030357.744   -37154936.61549 -28608334.71249  18030358.0834   18030361.8484
  19534286.257   -20323097.81549 -15804188.35049  19534285.5364   19534289.7924
 98  4 24 19 40 59.9910000  0  8  5  2 16  9 24  7  4  8
  19491523.207   -23897260.47349 -18313626.83549  19491522.7204   19491528.0544
  21482485.591      766887.61649    601293.14649  21482485.5654   21482493.9634
  21969852.756   -10405108.08849  -8095686.98549  21969852.4384   21969859.0354
  18624471.995   -33909021.56249 -26059623.19049  18624471.9664   18624476.1344
  18017344.725   -31305273.14149 -24012869.64149  18017344.5424   18017349.7904
  20442746.302     -115388.95149    -81143.90349  20442746.1114   20442752.0404
  18027723.309   -37168780.93849 -28619122.49549  18027723.5374   18027727.4184
  19515600.184   -20421293.72149 -15880704.62449  19515600.0714   19515604.7754
 98  4 24 19 41 29.9910000  0  8  5  2 16  9 24  7  4  8
  19470038.173   -24010165.13549 -18401604.46849  19470037.6734   19470042.4244
  21491459.264      814043.90549    638038.13749  21491458.8034   21491467.2544
  21961499.446   -10449004.90749  -8129892.27049  21961498.0314   21961506.2354
  18620517.380   -33929803.46949 -26075816.88849  18620517.3744   18620521.5744
  18000447.832   -31394066.89749 -24082059.56049  18000447.5194   18000452.8884
  20448719.639      -83998.95749    -56684.20949  20448719.4164   20448724.8374
  18025239.747   -37181832.33249 -28629292.41349  18025240.1764   18025243.8784
  19497053.569   -20518756.87049 -15956649.91949  19497053.2914   19497058.5504
 98  4 24 19 41 59.9910000  0  8  5  2 16  9 24  7  4  8
  19448595.241   -24122848.73849 -18489409.85649  19448594.7784   19448599.6394
  21500491.608      861508.57949    675023.41749  21500491.4894   21500500.5304
  21953248.463   -10492364.55049  -8163678.97449  21953247.8934   21953254.9814
  18616682.101   -33949958.09849 -26091521.80249  18616681.8894   18616686.1954
  17983663.440   -31482269.28649 -24150788.66849  17983663.3994   17983668.5874
  20454708.849      -52525.55849    -32159.52949  20454707.7404   20454712.9254
  18022876.334   -37194252.29149 -28638970.30049  18022876.6724   18022880.4944
  19478618.765   -20615632.68349 -16032137.54449  19478618.0934   19478622.7824
 98  4 24 19 42 29.9910000  0  8  5  2 16  9 24  7  4  8
  19427202.630   -24235267.56749 -18577008.91249  19427202.2184   19427206.8054
  21509591.889      909329.89549    712286.60049  21509591.4804   21509600.7944
  21945108.001   -10535142.92649  -8197012.73249  21945107.4784   21945114.1044
  18612974.136   -33969443.63449 -26106705.34349  18612973.9964   18612978.0754
  17967000.224   -31569835.07849 -24219021.72749  17967000.0954   17967005.4424
  20460724.842      -20911.52049     -7525.24749  20460724.4554   20460730.7964
  18020640.414   -37206002.34449 -28648126.18149  18020640.6404   18020644.6334
  19460305.503   -20711869.44049 -16107127.20849  19460304.7314   19460309.9804
 98  4 24 19 42 59.9910000  0  8  5  2 16  9 24  7  4  8
  19405843.775   -24347509.22049 -18664469.91549  19405842.9344   19405848.0554
  21518746.167      957435.29649    749771.15549  21518746.6624   21518754.6894
  21937067.136   -10577397.99649  -8229938.73349  21937066.3554   21937073.0244
  18609379.357   -33988334.32349 -26121425.36949  18609379.2154   18609383.4794
  17950446.228   -31656826.98349 -24286807.60049  17950446.1254   17950451.4054
  20466752.781       10765.30049     17157.94049  20466752.4424   20466758.6024
  18018518.476   -37217153.18449 -28656815.14449  18018518.5294   18018522.5794
  19442102.133   -20807528.55449 -16181666.75549  19442102.5034   19442106.0494
 98  4 24 19 43 29.9910000  0  8  5  2 16  9 24  7  4  8
  19384479.758   -24459777.86549 -18751951.95149  19384479.2144   19384483.6034
  21527912.182     1005602.35349    787303.75049  21527911.9474   21527921.2154
  21929089.122   -10619322.41449  -8262607.08049  21929088.0984   21929096.0994
  18605858.456   -34006836.90249 -26135842.97349  18605858.4224   18605862.7024
  17933962.958   -31743446.96849 -24354303.66849  17933962.8164   17933968.0324
  20472752.250       42292.29549     41724.39949  20472751.6194   20472756.7224
  18016472.287   -37227905.68049 -28665193.70949  18016472.3864   18016476.4304
  19423972.492   -20902800.49749 -16255904.62249  19423972.2844   19423977.0274
 98  4 24 19 43 59.9910000  0  8  5  2 16  9 24  7  4  8
  19363107.646   -24572088.85949 -18839466.98449  19363107.1304   19363111.3914
  21537084.987     1053805.16749    824864.22349  21537085.0564   21537093.3564
  21921171.455   -10660929.66649  -8295028.27849  21921170.7894   21921177.7324
  18602409.117   -34024963.47549 -26149967.58249  18602408.9804   18602413.0834
  17917544.171   -31829728.29349 -24421535.84449  17917544.0824   17917549.2574
  20478722.162       73664.37049     66170.12949  20478721.4764   20478728.0484
  18014499.437   -37238273.03949 -28673272.16349  18014499.6914   18014503.6164
  19405915.308   -20997691.47249 -16329845.61949  19405914.7954   19405919.6754
 98  4 24 19 44 29.9910000  0  8  5  2 16  9 24  7  4  8
  19341783.210   -24684149.20149 -18926786.70749  19341782.5334   19341787.7234
  21546319.719     1102333.47549    862678.32149  21546318.9644   21546329.4094
  21913373.986   -10701905.25949  -8326957.28749  21913372.8284   21913379.2264
  18599084.565   -34042433.67449 -26163580.73549  18599084.5824   18599088.7644
  17901242.663   -31915393.29149 -24488287.76449  17901242.6884   17901247.5974
  20484721.897      105193.22549     90738.03049  20484721.0134   20484726.9204
  18012658.718   -37247945.89849 -28680809.45249  18012658.7864   18012662.9244
  19387988.365   -21091898.06249 -16403253.33349  19387987.8354   19387992.4594
 98  4 24 19 44 59.9910000  0  8  5  2 16  9 24  7  4  8
  19320479.982   -24796098.55849 -19014019.94749  19320479.4304   19320484.0244
  21555587.524     1151035.50549    900627.78949  21555587.2874   21555594.8284
  21905669.518   -10742392.78049  -8358505.96749  21905669.9604   21905675.7824
  18595857.374   -34059392.88349 -26176795.71149  18595857.4664   18595861.5384
  17885031.732   -32000582.23149 -24554668.73149  17885031.6504   17885036.6834
  20490724.412      136736.51749    115317.18949  20490724.5974   20490730.4664
  18010923.787   -37257063.12349 -28687913.77749  18010924.1874   18010928.0864
  19370164.489   -21185563.12549 -16476239.07849  19370163.7654   19370168.7984
 98  4 24 19 45 29.9910000  0  8  5  2 16  9 24  7  4  8
  19299224.388   -24907797.38949 -19101057.97749  19299223.6654   19299228.5334
  21564912.059     1200035.37549    938809.32949  21564912.5424   21564921.8274
  21898080.611   -10782272.82449  -8389581.29049  21898080.9544   21898088.6204
  18592753.345   -34075704.94149 -26189506.41449  18592753.2354   18592757.6074
  17868933.668   -32085178.10149 -24620587.56349  17868933.4554   17868938.5144
  20496755.766      168431.14149    140014.25349  20496755.4314   20496760.4154
  18009317.734   -37265503.17949 -28694490.43549  18009317.9294   18009321.9004
  19352467.277   -21278562.63349 -16548706.19649  19352466.4764   19352471.7374
 98  4 24 19 45 59.9910000  0  8  5  2 16  9 24  7  4  8
  19278026.562   -25019192.61049 -19187859.42849  19278026.3904   19278030.6104
  21574308.320     1249412.14449    977284.55549  21574308.4274   21574316.1544
  21890616.120   -10821498.58649  -8420146.77849  21890615.7324   21890621.9454
  18589782.837   -34091315.05849 -26201670.15949  18589782.8014   18589786.9904
  17852957.293   -32169134.35249 -24686007.99949  17852957.2754   17852962.3744
  20502825.603      200328.08549    164868.97449  20502824.7304   20502830.5374
  18007847.532   -37273229.04149 -28700510.58749  18007847.8964   18007851.7984
  19334903.941   -21370858.55849 -16620625.10049  19334903.1954   19334908.3974
 98  4 24 19 46 29.9910000  0  8  5  2 16  9 24  7  4  8
  19256817.460   -25130647.18749 -19274707.12649  19256816.6734   19256821.6474
  21583707.786     1298806.19449   1015773.25049  21583708.0904   21583717.9284
  21883206.929   -10860433.93149  -8450485.98149  21883206.2724   21883214.1584
  18586880.174   -34106568.72549 -26213556.14149  18586880.1214   18586884.3924
  17837034.883   -32252807.31249 -24751207.68549  17837034.8184   17837039.6524
  20508862.329      232051.04749    189588.11749  20508862.3104   20508866.9534
  18006441.852   -37280616.07849 -28706266.71449  18006442.1104   18006445.8884
  19317402.800   -21462827.67649 -16692289.33849  19317402.0614   19317407.2214
 98  4 24 19 46 59.9910000  0  8  5  2 16  9 24  7  4  8
  19235609.724   -25242094.31249 -19361549.02549  19235608.9654   19235614.0874
  21593123.330     1348284.42349   1054327.52549  21593122.1134   21593132.1304
  21875863.300   -10899024.86149  -8480556.80049  21875863.3054   21875868.1014
  18584059.824   -34121389.65049 -26225104.93249  18584059.6734   18584064.0084
  17821180.676   -32336121.58449 -24816127.87649  17821180.4144   17821185.3054
  20514874.427      263644.19049    214206.10949  20514873.6884   20514879.5534
  18005108.457   -37287623.04749 -28711726.68849  18005108.6934   18005112.5614
  19299972.735   -21554423.03449 -16763662.33449  19299971.9474   19299977.3114
 98  4 24 19 47 29.9910000  0  8  5  2 16  9 24  7  4  8
  19214439.280   -25353345.47849 -19448238.22749  19214438.7614   19214443.7084
  21602591.423     1398039.04949   1093097.19049  21602591.3274   21602600.8014
  21868619.607   -10937090.57649  -8510218.37549  21868617.6214   21868626.3804
  18581354.444   -34135606.62149 -26236183.10449  18581354.1964   18581358.6044
  17805428.843   -32418897.97249 -24880628.93749  17805428.6584   17805433.6274
  20520893.835      295276.18949    238854.36449  20520893.4914   20520899.3204
  18003881.585   -37294070.32449 -28716750.53249  18003881.6724   18003885.5544
  19282645.712   -21645476.91849 -16834613.39849  19282645.2324   19282649.5644
 98  4 24 19 47 59.9910000  0  8  5  2 16  9 24  7  4  8
  19193340.262   -25464221.32849 -19534634.97749  19193339.6074   19193344.4644
  21612146.033     1448248.34649   1132221.13849  21612146.8524   21612154.3124
  21861509.510   -10974454.19349  -8539332.86149  21861509.1824   21861516.4294
  18578793.862   -34149062.67549 -26246668.35749  18578793.7894   18578798.0584
  17789813.585   -32500956.61349 -24944570.72049  17789813.3984   17789818.6124
  20526951.392      327108.60649    263658.81249  20526951.6074   20526955.5094
  18002797.343   -37299767.95149 -28721190.24049  18002797.6534   18002801.4774
  19265455.114   -21735814.13349 -16905006.02149  19265454.5334   19265459.4584
 98  4 24 19 48 29.9910000  0  8  5  2 16  9 24  7  4  8
  19172285.016   -25574867.20549 -19620852.52749  19172284.7034   19172289.4554
  21621754.529     1498740.88149   1171565.79049  21621754.6914   21621763.4114
  21854502.953   -11011273.68249  -8568023.35149  21854502.0134   21854509.9344
  18576346.231   -34161925.05749 -26256691.01049  18576346.3134   18576350.6824
  17774307.076   -32582443.73249 -25008067.16149  17774306.9634   17774312.0544
  20533017.687      358986.78849    288498.90549  20533017.4584   20533023.3374
  18001828.482   -37304859.46949 -28725157.65549  18001828.7534   18001832.6384
  19248373.609   -21825578.03849 -16974951.91149  19248373.4684   19248377.9184
 98  4 24 19 48 59.9900000  0  8  5  2 16  9 24  7  4  8
  19151273.358   -25685284.12249 -19706891.66349  19151272.8204   19151277.4984
  21631414.283     1549502.79049   1211120.35749  21631414.4834   21631424.4394
  21847597.333   -11047562.74149  -8596300.52449  21847596.7444   21847604.2614
  18574002.603   -34174241.05649 -26266287.90849  18574002.5664   18574006.8384
  17758908.516   -32663363.69049 -25071121.66149  17758908.3044   17758913.5904
  20539090.646      390900.52749    313366.71549  20539089.9644   20539096.2654
  18000974.068   -37309349.49649 -28728656.37449  18000974.3754   18000978.1594
  19231402.227   -21914763.31949 -17044446.92649  19231401.8584   19231406.6944
 98  4 24 19 49 29.9900000  0  8  5  2 16  9 24  7  4  8
  19130300.102   -25795499.42249 -19792773.69949  19130299.5794   19130303.9744
  21641118.728     1600499.15149   1250857.59049  21641119.2154   21641127.6204
  21840788.785   -11083341.66249  -8624180.16949  21840788.4274   21840795.8344
  18571757.255   -34186040.43249 -26275482.24749  18571757.0904   18571761.4934
  17743611.937   -32743747.60549 -25133758.46649  17743611.8134   17743616.7954
  20545166.362      422828.39549    338245.53049  20545166.3674   20545171.9244
  18000232.661   -37313245.63549 -28731692.32149  18000232.9884   18000236.8294
  19214539.082   -22003379.66549 -17113498.60649  19214538.8624   19214543.2744
 98  4 24 19 49 59.9900000  0  8  5  2 16  9 24  7  4  8
  19109356.756   -25905557.34749 -19878533.10449  19109356.1684   19109360.7374
  21650857.428     1651675.09349   1290734.77849  21650857.5234   21650866.4824
  21834071.234   -11118642.60249  -8651687.37449  21834070.0184   21834076.8464
  18569603.896   -34197356.46549 -26284299.95449  18569603.8314   18569607.9244
  17728411.052   -32823628.78449 -25196003.52449  17728410.7774   17728415.8354
  20551237.412      454731.62849    363105.14549  20551237.0454   20551242.4364
  17999593.109   -37316606.40649 -28734311.10249  17999593.4414   17999597.0544
  19197778.582   -22091456.39649 -17182129.81749  19197777.8254   19197782.5264
 98  4 24 19 50 29.9900000  0  8  5  2 16  9 24  7  4  8
  19088433.969   -26015507.22749 -19964208.31749  19088433.4434   19088437.9944
  21660619.578     1702974.28349   1330707.99149  21660620.7144   21660628.9984
  21827439.463   -11153493.06749  -8678843.53449  21827437.8594   21827445.2784
  18567539.647   -34208204.17149 -26292752.73149  18567539.4904   18567544.0894
  17713301.060   -32903032.09849 -25257876.22549  17713301.1174   17713306.0634
  20557301.544      486598.73249    387936.59749  20557301.4864   20557306.8414
  17999043.838   -37319492.84449 -28736560.27349  17999043.9514   17999047.9324
  19181114.633   -22179025.86949 -17250365.75849  19181114.1314   19181118.7844
 98  4 24 19 50 59.9900000  0  8  5  2 16  9 24  7  4  8
  19067528.650   -26125365.27349 -20049811.97249  19067528.1654   19067532.9574
  21670403.012     1754385.94749   1370768.85749  21670401.6234   21670412.1034
  21820894.436   -11187887.42349  -8705644.31549  21820893.4504   21820901.4664
  18565567.399   -34218568.25849 -26300828.65949  18565567.2154   18565571.5704
  17698281.466   -32981960.77349 -25319379.07649  17698281.3654   17698286.3424
  20563358.154      518426.14949    412737.14549  20563357.4444   20563362.8844
  17998582.237   -37321918.35149 -28738450.27849  17998582.5414   17998586.3264
  19164548.515   -22266081.37249 -17318201.19849  19164548.4394   19164552.7564
 98  4 24 19 51 29.9900000  0  8  5  2 16  9 24  7  4  8
  19046629.664   -26235190.24449 -20135389.85849  19046629.6934   19046633.7714
  21680198.192     1805859.46049   1410877.90249  21680198.6914   21680207.7374
  21814427.565   -11221870.68149  -8732124.76349  21814426.4174   21814434.2564
  18563680.691   -34228482.70449 -26308554.22349  18563680.5914   18563684.8694
  17683341.170   -33060472.45549 -25380557.00249  17683341.1184   17683346.1404
  20569396.932      550160.05749    437464.80649  20569396.8534   20569402.1724
  17998196.887   -37323943.48049 -28740028.30349  17998197.1574   17998201.0014
  19148070.435   -22352674.38249 -17385676.26949  19148070.0774   19148074.3634
 98  4 24 19 51 59.9900000  0  8  5  2 16  9 24  7  4  8
  19025726.911   -26345035.03749 -20220983.17849  19025726.5744   19025731.0184
  21689998.809     1857361.31249   1451009.01949  21689997.5874   21690009.1024
  21808027.070   -11255505.55649  -8758333.74049  21808027.0774   21808034.1284
  18561869.315   -34238001.82249 -26315971.72949  18561869.2454   18561873.7014
  17668469.532   -33138623.31549 -25441453.76249  17668469.4334   17668474.5084
  20575410.454      581761.03149    462088.89449  20575409.6104   20575415.4004
  17997875.941   -37325630.00249 -28741342.47149  17997876.1404   17997880.2524
  19131668.572   -22438866.62049 -17452839.03449  19131668.0124   19131672.8554
 98  4 24 19 52 29.9900000  0  7  5 16  9 24  7  4  8
  19004807.878   -26454965.19449 -20306643.03449  19004807.8654   19004811.9424
  21801677.372   -11288873.75949  -8784334.91449  21801676.3044   21801683.9114
  18560117.254   -34247208.93649 -26323146.12849  18560117.2584   18560121.8154
  17653651.796   -33216491.06849 -25502129.92749  17653651.7714   17653656.8014
  20581383.996      613152.52949    486549.76249  20581383.7254   20581389.0204
  17997609.470   -37327030.17549 -28742433.51849  17997609.4144   17997613.5014
  19115330.557   -22524723.39049 -17519740.41349  19115329.8924   19115334.9554
 98  4 24 19 52 59.9900000  0  7  5 16  9 24  7  4  8
  18983866.851   -26565010.97349 -20392392.97549  18983866.4934   18983870.9904
  21795366.433   -11322037.61649  -8810176.85949  21795366.6624   21795372.2474
  18558408.690   -34256187.67049 -26330142.55849  18558408.7414   18558412.9254
  17638876.092   -33294137.63749 -25562633.73649  17638875.9004   17638880.9844
  20587300.996      644246.40449    510778.70449  20587300.2794   20587306.7214
  17997388.812   -37328189.71249 -28743337.05249  17997388.9174   17997393.0024
  19099045.264   -22610302.65549 -17586425.54149  19099044.4174   19099049.3824
 98  4 24 19 53 29.9900000  0  7  5 16  9 24  7  4  8
  18962910.074   -26675139.43749 -20478207.34349  18962909.7114   18962914.3954
  21789096.789   -11354984.49849  -8835849.73049  21789096.4424   21789103.3004
  18556744.573   -34264932.65949 -26336956.85449  18556744.4734   18556749.1064
  17624146.093   -33371544.34149 -25622950.63949  17624145.9884   17624150.9424
  20593165.741      675065.48849    534793.52749  20593165.8984   20593170.6724
  17997218.499   -37329084.60849 -28744034.37749  17997218.7254   17997222.7994
  19082814.676   -22695594.82149 -17652886.96649  19082814.1934   19082819.0994
 98  4 24 19 53 59.9900000  0  7  5 16  9 24  7  4  8
  18941931.031   -26785384.75449 -20564112.76249  18941930.5944   18941934.8004
  21782860.966   -11387753.69049  -8861384.15049  21782860.4004   21782866.3384
  18555118.709   -34273476.78449 -26343614.63149  18555118.7594   18555123.1414
  17609456.068   -33448740.81749 -25683103.72449  17609456.0974   17609461.0314
  20598972.694      705581.32449    558572.05349  20598972.8184   20598978.1414
  17997091.241   -37329753.39549 -28744555.51249  17997091.4334   17997095.4634
  19066633.211   -22780628.82149 -17719147.21449  19066632.8954   19066637.7934
 98  4 24 19 54 29.9900000  0  7  5 16  9 24  7  4  8
  18920952.200   -26895629.15949 -20650017.48049  18920951.5684   18920956.1184
  21776683.634   -11420215.33849  -8886678.91249  21776682.0674   21776689.4024
  18553553.689   -34281700.91449 -26350023.06149  18553553.6324   18553558.2914
  17594829.521   -33525603.72949 -25742996.89049  17594829.2834   17594834.2404
  20604742.929      735903.86149    582199.94149  20604743.1634   20604748.6844
  17997028.782   -37330081.48649 -28744811.17049  17997029.0464   17997033.0564
  19050526.113   -22865272.09849 -17785103.00549  19050525.5564   19050530.6234
 98  4 24 19 54 59.9900000  0  7  5 16  9 24  7  4  8
  18899968.127   -27005901.14649 -20735943.68549  18899967.7454   18899972.6024
  21770560.319   -11452393.33649  -8911752.68349  21770559.9154   21770567.6124
  18552046.633   -34289620.58049 -26356194.25149  18552046.6054   18552051.1054
  17580260.903   -33602162.09849 -25802652.75149  17580260.8694   17580266.0114
  20610474.046      766020.81449    605667.65249  20610473.1864   20610479.4624
  17997024.821   -37330102.29349 -28744827.39049  17997024.8494   17997029.0374
  19034487.886   -22949553.51149 -17850776.83049  19034487.2894   19034491.6474
 98  4 24 19 55 29.9900000  0  7  5 16  9 24  7  4  8
  18878970.850   -27116242.57149 -20821924.00449  18878970.5214   18878974.8824
  21764489.515   -11484295.76249  -8936611.69149  21764489.5074   21764496.4274
  18550596.781   -34297239.49949 -26362131.08749  18550596.6294   18550601.3534
  17565745.904   -33678438.97349 -25862089.26749  17565745.8474   17565750.8734
  20616166.639      795935.65749    628977.85749  20616165.8254   20616172.5074
  17997075.432   -37329836.29049 -28744620.12149  17997075.6944   17997079.7244
  19018515.785   -23033487.39349 -17916179.85049  19018515.2164   19018520.2404
 98  4 24 19 55 59.9900000  0  8  5 16  9 24 30  7  4  8
  18857966.132   -27226623.01049 -20907934.72949  18857965.6524   18857970.4164
  21758479.023   -11515880.97949  -8961223.54349  21758478.6094   21758485.5494
  18549209.792   -34304528.20249 -26367810.62049  18549209.7594   18549214.3404
  17551290.334   -33754403.45449 -25921282.36149  17551290.1554   17551295.1914
  21762653.682    -7145724.96249  -4582632.87949  21762653.0994   21762658.5444
  20621826.525      825678.30049    652153.88449  20621826.0874   20621832.4824
  17997187.727   -37329246.08649 -28744160.23249  17997188.2964   17997192.0794
  19002616.435   -23117039.14049 -17981285.10949  19002616.1434   19002620.9774
 98  4 24 19 56 29.9900000  0  8  5 16  9 24 30  7  4  8
  18836959.028   -27337015.97549 -20993955.21449  18836958.5654   18836963.2944
  21752532.714   -11547128.70849  -8985572.40049  21752531.5664   21752538.4094
  18547886.015   -34311484.88749 -26373231.43749  18547885.9964   18547890.2494
  17536896.319   -33830044.45349 -25980223.39149  17536896.2494   17536901.3484
  21736461.437    -7283365.44649  -4689885.12849  21736461.1014   21736467.2694
  20627455.158      855256.52549    675201.78549  20627453.8214   20627460.8574
  17997366.952   -37328304.35849 -28743426.42749  17997367.2124   17997371.0694
  18986789.296   -23200211.41249 -18046094.66749  18986788.6604   18986793.2304
 98  4 24 19 56 59.9900000  0  8  5 16  9 24 30  7  4  8
  18815977.661   -27447273.46249 -21079870.12649  18815977.5604   18815981.6154
  21746677.825   -11577895.87849  -9009546.82449  21746676.8594   21746684.8134
  18546652.643   -34317966.54349 -26378282.10249  18546652.7994   18546656.8864
  17522592.165   -33905213.21049 -26038796.43549  17522592.0724   17522597.1084
  21710260.818    -7421050.29449  -4797171.96249  21710260.5594   21710266.5914
  20633079.892      884814.85449    698234.19349  20633079.4564   20633086.0734
  17997639.787   -37326870.69749 -28742309.29349  17997640.1134   17997644.0524
  18971061.247   -23282862.78849 -18110498.33449  18971060.8284   18971065.7504
 98  4 24 19 57 29.9900000  0  8  5 16  9 24 30  7  4  8
  18795019.164   -27557410.99949 -21165691.57449  18795018.5294   18795023.1554
  21740911.191   -11608199.89949  -9033160.31049  21740910.9814   21740916.7914
  18545506.143   -34323991.48449 -26382976.88349  18545506.1534   18545510.4154
  17508376.487   -33979916.92849 -26097007.11349  17508376.4834   17508381.2604
  21684050.590    -7558785.18049  -4904497.77649  21684050.6944   21684056.4214
  20638695.006      914322.57449    721227.16249  20638694.8694   20638701.4724
  17998000.855   -37324973.25649 -28740830.77549  17998001.0934   17998005.0154
  18955430.559   -23365002.62749 -18174503.40149  18955430.2494   18955434.8574
 98  4 24 19 57 59.9900000  0  8  5 16  9 24 30  7  4  8
  18774071.503   -27667491.70849 -21251468.74249  18774070.6214   18774075.9504
  21735214.732   -11638135.35249  -9056486.61749  21735214.0244   21735220.4024
  18544431.043   -34329640.97049 -26387379.10249  18544431.2174   18544435.3414
  17494233.439   -34054239.32249 -26154920.65749  17494233.5944   17494238.3754
  21657812.517    -7696666.82949  -5011937.95049  21657812.5884   21657818.8144
  20644283.473      943689.83049    744110.67949  20644283.2104   20644289.1574
  17998432.681   -37322704.02749 -28739062.55349  17998432.8844   17998436.8304
  18939881.099   -23446715.61149 -18238175.85049  18939880.4044   18939885.4524
 98  4 24 19 58 29.9900000  0  8  5 16  9 24 30  7  4  8
  18753162.677   -27777368.24249 -21337086.80849  18753162.2564   18753166.8764
  21729612.912   -11667573.45049  -9079425.38949  21729611.2334   21729618.4444
  18543456.878   -34334760.33549 -26391368.23649  18543456.8624   18543461.3004
  17480190.023   -34128037.93349 -26212426.05649  17480189.8464   17480194.8904
  21631573.497    -7834553.58649  -5119382.10549  21631573.8234   21631579.5274
  20649871.947      973057.35149    766994.40549  20649872.5114   20649877.6754
  17998957.828   -37319944.45449 -28736912.24449  17998958.0314   17998961.9914
  18924440.382   -23527857.12449 -18301402.99849  18924440.0134   18924443.9214
 98  4 24 19 58 59.9900000  0  8  5 16  9 24 30  7  4  8
  18732278.773   -27887113.72949 -21422602.76049  18732278.2044   18732282.6244
  21724089.868   -11696597.20749  -9102041.28449  21724089.8364   21724097.8784
  18542571.794   -34339411.44449 -26394992.49949  18542571.6954   18542576.3824
  17466233.781   -34201378.26849 -26269574.35849  17466233.8484   17466238.6254
  21605318.397    -7972524.77949  -5226892.06749  21605318.6894   21605324.5124
  20655447.072     1002354.87549    789823.58449  20655446.7624   20655452.7654
  17999558.391   -37316788.41749 -28734453.00549  17999558.6654   17999562.4364
  18909098.327   -23608479.96749 -18364225.99049  18909097.7744   18909102.7724
 98  4 24 19 59 29.9900000  0  8  5 16  9 24 30  7  4  8
  18711438.698   -27996629.03249 -21507939.34549  18711438.4314   18711442.7804
  21718660.728   -11725127.37949  -9124272.58449  21718661.3744   21718666.5234
  18541790.868   -34343515.27849 -26398190.31149  18541791.0954   18541795.5084
  17452379.134   -34274184.87149 -26326306.76449  17452378.8804   17452383.8514
  21579059.456    -8110516.15949  -5334417.74349  21579059.8984   21579065.5274
  20661021.726     1031649.65749    812650.63349  20661020.7734   20661026.5504
  18000250.730   -37313150.14249 -28731617.99549  18000251.2454   18000255.0424
  18893870.259   -23688504.06749 -18426582.42549  18893870.0864   18893873.9844
 98  4 24 19 59 59.9900000  0  8  5 16  9 24 30  7  4  8
  18690645.909   -28105895.95149 -21593082.39349  18690645.5454   18690650.0514
  21713328.799   -11753146.77249  -9146105.86049  21713329.4454   21713335.9544
  18541112.499   -34347080.20149 -26400968.19349  18541112.5154   18541116.9644
  17438627.119   -34346452.19649 -26382618.95349  17438627.0404   17438631.9834
  21552796.869    -8248527.18349  -5441958.73849  21552796.4894   21552802.6654
  20666597.448     1060950.32349    835482.25449  20666597.7224   20666602.9784
  18001038.392   -37309011.08749 -28728392.76749  18001038.6504   18001042.8144
  18878757.108   -23767924.18849 -18488468.23349  18878756.4994   18878761.3674
 98  4 24 20  0 29.9900000  0  8  5 16  9 24 30  7  4  8
  18669888.628   -28214976.20149 -21678079.98149  18669888.1854   18669892.5554
  21708082.075   -11780718.35249  -9167590.19249  21708081.2184   21708089.2564
  18540520.773   -34350189.72949 -26403391.22349  18540520.8154   18540525.3054
  17424968.181   -34418230.33549 -26438549.96249  17424968.2264   17424973.2484
  21526518.029    -8386623.37649  -5549566.09349  21526518.4814   21526523.9554
  20672161.947     1090191.71849    858267.68649  20672162.1404   20672167.5384
  18001909.931   -37304430.96749 -28724823.85149  18001910.1774   18001914.1154
  18863748.623   -23846794.42049 -18549925.55849  18863748.1094   18863752.6654
 98  4 24 20  0 59.9900000  0  8  5 16  9 24 30  7  4  8
  18649157.606   -28323918.18349 -21762969.82449  18649157.2374   18649161.7824
  21702914.546   -11807873.64849  -9188750.14549  21702914.5654   21702920.9994
  18540002.743   -34352912.09849 -26405512.56749  18540002.6534   18540007.3344
  17411394.211   -34489561.64749 -26494132.79149  17411394.2534   17411399.2354
  21500214.889    -8524847.23449  -5657272.93349  21500215.3214   21500220.2834
  20677704.718     1119318.92049    880964.15449  20677704.1634   20677710.5344
  18002860.289   -37299436.85149 -28720932.33949  18002860.5494   18002864.4594
  18848836.608   -23925157.62649 -18610987.79049  18848835.8924   18848840.8374
 98  4 24 20  1 29.9900000  0  8  5 16  9 24 30  7  4  8
  18628468.951   -28432637.68549 -21847686.31249  18628468.2004   18628473.0174
  21697846.942   -11834503.97749  -9209501.03449  21697846.9634   21697853.4264
  18539572.674   -34355172.21249 -26407273.72049  18539572.7514   18539577.0224
  17397922.271   -34560357.11949 -26549298.09049  17397922.0594   17397927.3544
  21473906.046    -8663100.84549  -5765002.96049  21473906.3444   21473912.2854
  20683245.829     1148437.54549    903653.92849  20683245.3474   20683252.1574
  18003909.434   -37293923.56049 -28716636.28049  18003909.6134   18003913.7194
  18834037.059   -24002929.88049 -18671589.55249  18834036.5484   18834041.4674
 98  4 24 20  1 59.9900000  0  8  5 16  9 24 30  7  4  8
  18607817.581   -28541161.16849 -21932250.05249  18607817.2964   18607821.7254
  21692877.518   -11860618.65449  -9229850.15249  21692876.2244   21692883.2124
  18539228.065   -34356983.08849 -26408684.81049  18539228.1994   18539232.8104
  17384552.555   -34630615.25249 -26604044.67649  17384552.4254   17384557.7524
  21447591.349    -8801385.18149  -5872756.92549  21447591.5514   21447596.6774
  20688790.697     1177575.70849    926358.93649  20688790.0094   20688795.7454
  18005054.236   -37287907.45749 -28711948.41449  18005054.4604   18005058.6754
  18819349.583   -24080112.65349 -18731731.96449  18819349.1164   18819354.1944
 98  4 24 20  2 29.9900000  0  8  5 16  9 24 30  7  4  8
  18587201.981   -28649496.80449 -22016667.42249  18587201.3184   18587205.9814
  21688003.531   -11886231.38449  -9249808.10549  21688003.4284   21688008.7534
  18538970.319   -34358337.44849 -26409740.17949  18538970.2284   18538975.0804
  17371285.962   -34700331.44349 -26658368.97749  17371285.8294   17371291.0724
  21421271.625    -8939695.68149  -5980531.28449  21421272.1424   21421277.1834
  20694340.623     1206740.71149    949084.85349  20694340.0964   20694346.3524
  18006291.624   -37281404.85249 -28706881.46249  18006291.9434   18006295.9364
  18804773.374   -24156710.84349 -18791418.86349  18804772.9674   18804777.4084
 98  4 24 20  2 59.9900000  0  8  5 16  9 24 30  7  4  8
  18566620.104   -28757655.03649 -22100946.55449  18566619.8474   18566624.1534
  21683227.054   -11911331.93049  -9269366.96449  21683227.0744   21683232.5654
  18538801.191   -34359226.23649 -26410432.76649  18538801.2654   18538805.9484
  17358119.615   -34769521.07349 -26712282.96849  17358119.5144   17358124.5554
  21394949.355    -9078019.96749  -6088316.40149  21394950.0944   21394954.7004
  20699896.592     1235937.39749    971835.45849  20699895.7004   20699903.0084
  18007621.082   -37274418.38849 -28701437.47749  18007621.3434   18007625.6424
  18790306.698   -24232733.56349 -18850657.35049  18790306.3624   18790311.3424
 98  4 24 20  3 29.9900000  0  8  5 16  9 24 30  7  4  8
  18546072.604   -28865632.76649 -22185085.03649  18546072.4014   18546076.8594
  21678548.579   -11935917.58749  -9288524.62849  21678548.1834   21678556.8914
  18538723.084   -34359636.84549 -26410752.74249  18538722.8694   18538727.4884
  17345054.243   -34838179.90749 -26765783.35249  17345054.1394   17345059.2544
  21368625.027    -9216354.84049  -6196109.75049  21368625.3784   21368631.3084
  20705462.227     1265184.77649    994625.56149  20705461.9474   20705468.6304
  18009038.986   -37266967.29749 -28695631.44049  18009039.3614   18009043.3334
  18775947.899   -24308189.56549 -18909454.24049  18775947.3224   18775952.1084
 98  4 24 20  3 59.9900000  0  8  5 16  9 24 30  7  4  8
  18525559.041   -28973432.11749 -22269084.52749  18525558.8924   18525563.3524
  21673960.313   -11960028.91749  -9307312.68249  21673958.4814   21673965.7574
  18538734.038   -34359579.25249 -26410707.89249  18538734.1414   18538738.5364
  17332083.939   -34906339.06149 -26818894.37649  17332083.8584   17332089.0474
  21342294.226    -9354724.05049  -6303929.87149  21342294.5174   21342299.6784
  20711027.795     1294432.02249   1017415.55749  20711027.3244   20711033.0684
  18010538.142   -37259089.13149 -28689492.62349  18010538.4444   18010542.6714
  18761691.808   -24383105.82849 -18967830.55449  18761691.2314   18761696.1754
 98  4 24 20  4 29.9900000  0  8  5 16  9 24 30  7  4  8
  18505083.664   -29081030.92549 -22352927.74549  18505083.2474   18505087.6594
  21669467.139   -11983640.52049  -9325711.33249  21669466.3014   21669474.0054
  18538838.614   -34359029.76949 -26410279.74549  18538838.7694   18538843.0844
  17319208.429   -34974000.36549 -26871617.46449  17319208.5814   17319213.6824
  21315959.320    -9493114.95149  -6411766.88749  21315959.4584   21315965.2244
  20716589.930     1323661.16149   1040191.43949  20716589.6434   20716595.5124
  18012121.283   -37250769.77049 -28683010.01249  18012121.7684   18012125.6254
  18747539.790   -24457475.09749 -19025780.62949  18747539.4984   18747543.7584
 98  4 24 20  4 59.9900000  0  8  5 16  9 24 30  7  4  8
  18484651.028   -29188405.24149 -22436596.03549  18484650.7734   18484655.2004
  21665074.158   -12006725.31049  -9343699.47949  21665073.9214   21665080.1864
  18539042.089   -34357960.59649 -26409446.64849  18539042.2384   18539046.5034
  17306429.905   -35041151.87249 -26923943.30449  17306430.1984   17306434.9784
  21289625.095    -9631501.81049  -6519600.75449  21289624.8194   21289631.4504
  20722149.557     1352876.84649   1062956.85649  20722149.9244   20722155.6904
  18013790.818   -37241996.38049 -28676173.61149  18013791.0124   18013795.2534
  18733495.814   -24531276.67049 -19083288.35149  18733495.4814   18733500.4124
 98  4 24 20  5 29.9900000  0  8  5 16  9 24 30  7  4  8
  18464261.271   -29295554.13749 -22520088.67949  18464261.0484   18464265.3804
  21660775.246   -12029316.11849  -9361302.68649  21660773.7284   21660780.5564
  18539342.605   -34356381.66749 -26408216.33749  18539342.7804   18539346.9904
  17293747.608   -35107797.97349 -26975875.32349  17293747.7484   17293752.5774
  21263287.256    -9769907.92549  -6627449.64149  21263287.1834   21263292.3594
  20727703.775     1382064.00149   1085700.02949  20727703.5794   20727710.1244
  18015544.032   -37232783.23149 -28668994.54349  18015544.3184   18015548.3254
  18719560.132   -24604509.26049 -19140352.71249  18719559.5394   18719564.4124
 98  4 24 20  5 59.9900000  0  9  5 16  9 24 30  7  4  8 10
  18443910.636   -29402497.69049 -22603421.31249  18443910.1174   18443914.5284
  21656563.699   -12051448.23049  -9378548.47249  21656563.3834   21656570.7684
  18539735.441   -34354317.49849 -26406607.91649  18539735.5084   18539740.1974
  17281157.272   -35173960.79749 -27027430.76149  17281157.3044   17281162.1834
  21236942.461    -9908350.63649  -6735327.04249  21236942.7704   21236947.5764
  20733247.351     1411195.15949   1108399.58349  20733247.4014   20733253.1844
  18017381.369   -37223128.04549 -28661471.02549  18017381.8964   18017385.6594
  18705734.522   -24677163.49049 -19196966.39949  18705734.1004   18705738.8224
  21649516.734    -7388823.84049  -5717955.07849  21649515.7424   21649524.5214
 98  4 24 20  6 29.9900000  0  9  5 16  9 24 30  7  4  8 10
  18423594.417   -29509260.35049 -22686612.98549  18423594.2914   18423598.3084
  21652440.730   -12073114.75849  -9395431.49549  21652440.3674   21652447.5144
  18540215.927   -34351792.78049 -26404640.63349  18540215.8064   18540220.3604
  17268660.971   -35239629.52149 -27078601.18849  17268661.0554   17268665.7554
  21210591.128   -10046828.45949  -6843231.80449  21210593.0224   21210596.4244
  20738783.800     1440288.95849   1131070.02149  20738783.7894   20738787.9694
  18019306.055   -37213014.12749 -28653590.06049  18019306.6544   18019310.2914
  18692019.769   -24749235.47349 -19253126.39149  18692019.4044   18692024.2994
  21624005.872    -7522883.24749  -5822416.68049  21624003.4944   21624013.8654
 98  4 24 20  6 59.9900000  0  9  5 16  9 24 30  7  4  8 10
  18403318.970   -29615808.65349 -22769637.62549  18403318.6984   18403322.9404
  21648408.722   -12094303.27049  -9411942.02149  21648408.7884   21648414.4514
  18540785.474   -34348800.00349 -26402308.62549  18540785.3814   18540789.9034
  17256266.320   -35304763.86549 -27129355.21149  17256266.3154   17256271.1454
  21184239.010   -10185310.29549  -6951139.68849  21184238.6874   21184243.9184
  20744321.093     1469386.95249   1153743.72549  20744320.4464   20744326.0674
  18021325.106   -37202403.99649 -28645322.43349  18021325.3964   18021328.9604
  18678420.664   -24820699.45749 -19308812.61349  18678420.4894   18678424.7204
  21598475.208    -7657047.43949  -5926959.94549  21598474.6074   21598484.2724
 98  4 24 20  7 29.9900000  0  9  5 16  9 24 30  7  4  8 10
  18383079.122   -29722169.97649 -22852516.56949  18383078.8394   18383083.1864
  21644462.441   -12115041.00749  -9428101.25949  21644461.3014   21644467.5534
  18541434.766   -34345388.38849 -26399650.24849  18541434.9124   18541439.2174
  17243965.894   -35369403.28249 -27179723.57649  17243966.0414   17243970.6964
  21157877.871   -10323838.97949  -7059084.06749  21157877.4264   21157882.7444
  20749855.078     1498467.93249   1176404.17149  20749854.7644   20749861.3624
  18023435.941   -37191311.45649 -28636678.90049  18023436.2654   18023440.1744
  18664932.732   -24891579.28049 -19364043.64149  18664932.3464   18664936.8534
  21572918.502    -7791347.81349  -6031609.30849  21572916.1314   21572928.0884
 98  4 24 20  7 59.9900000  0  9  5 16  9 24 30  7  4  8 10
  18362875.059   -29828343.36849 -22935249.07649  18362875.0164   18362878.9074
  21640606.829   -12135302.60349  -9443889.52349  21640606.1504   21640612.4304
  18542163.608   -34341558.65049 -26396666.06249  18542163.5874   18542168.2584
  17231760.575   -35433542.93349 -27229702.51749  17231760.5304   17231765.0914
  21131513.879   -10462382.68749  -7167040.16349  21131514.0674   21131517.5824
  20755385.344     1527529.49149   1199049.49049  20755385.4264   20755390.5914
  18025638.489   -37179737.20049 -28627660.00749  18025638.9004   18025642.4484
  18651555.321   -24961878.12249 -19418821.96449  18651554.7674   18651559.5014
  21547341.017    -7925757.06449  -6136343.53549  21547339.4874   21547348.6594
 98  4 24 20  8 29.9900000  0  9  5 16  9 24 30  7  4  8 10
  18342709.386   -29934315.01949 -23017824.38149  18342708.7874   18342713.1684
  21636846.617   -12155062.59849  -9459286.93349  21636846.5734   21636850.4454
  18542974.156   -34337299.30349 -26393347.11749  18542974.0764   18542978.5034
  17219651.135   -35497178.55449 -27279288.70649  17219651.3434   17219655.8154
  21105150.121   -10600925.17249  -7274995.29049  21105149.3894   21105154.2894
  20760911.902     1556571.33749   1221679.43749  20760912.5194   20760918.2534
  18027928.749   -37167702.20549 -28618282.09349  18027929.0144   18027932.5894
  18638286.950   -25031604.03549 -19473153.84749  18638286.4934   18638290.5314
  21521746.094    -8060258.21049  -6241149.38749  21521745.1864   21521753.2304
 98  4 24 20  8 59.9890000  0  8  5  9 24 30  7  4  8 10
  18322580.689   -30040092.26549 -23100248.20249  18322580.1224   18322584.3714
  18543865.956   -34332613.34749 -26389695.74749  18543866.1094   18543870.1494
  17207630.897   -35560345.78549 -27328509.91849  17207630.8654   17207635.4224
  21078781.611   -10739492.41649  -7382969.73149  21078782.6424   21078785.7464
  20766428.183     1585558.81349   1244267.01549  20766428.5814   20766434.4764
  18030294.876   -37155268.51449 -28608593.50549  18030295.1264   18030298.6084
  18625125.276   -25100769.13449 -19527048.73449  18625124.7044   18625129.6204
  21496127.177    -8194885.56049  -6346053.55649  21496125.0724   21496135.1434
 98  4 24 20  9 29.9890000  0  8  5  9 24 30  7  4  8 10
  18302482.544   -30145708.72249 -23182546.72949  18302481.9754   18302486.3204
  18544838.209   -34327504.37149 -26385714.74749  18544837.7364   18544842.3764
  17195695.612   -35623066.17749 -27377382.93549  17195695.5584   17195700.1904
  21052404.642   -10878104.01349  -7490978.72349  21052405.0734   21052410.9534
  20771931.790     1614480.36349   1266803.21949  20771931.8114   20771936.9904
  18032730.381   -37142469.78149 -28598620.46749  18032730.4904   18032734.3194
  18612068.876   -25169381.12849 -19580512.62649  18612068.4134   18612072.5064
  21470480.490    -8329658.75849  -6451071.41649  21470479.7764   21470488.6974
 98  4 24 20  9 59.9890000  0  8  5  9 24 30  7  4  8 10
  18282431.176   -30251079.08949 -23264653.50149  18282430.8074   18282434.9654
  18545906.250   -34321891.74749 -26381341.29749  18545906.1364   18545910.5444
  17183865.088   -35685235.67649 -27425826.69349  17183865.0284   17183869.8454
  21026037.731   -11016662.61949  -7598946.41649  21026038.3274   21026043.3454
  20777437.557     1643413.20249   1289348.22649  20777436.8104   20777443.5464
  18035248.462   -37129237.05749 -28588309.26049  18035248.4174   18035252.3664
  18599131.358   -25237368.22549 -19633489.59349  18599130.6604   18599135.0844
  21444821.750    -8464495.37549  -6556138.68849  21444820.7794   21444829.6474
 98  4 24 20 10 29.9890000  0  8  5  9 24 30  7  4  8 10
  18262420.647   -30356234.64149 -23346592.88249  18262419.8704   18262424.3514
  18547061.966   -34315818.20849 -26376608.69249  18547061.5664   18547066.2914
  17172131.996   -35746893.27149 -27473871.55849  17172131.6614   17172136.3944
  20999667.691   -11155237.60449  -7706926.87849  20999668.6724   20999671.1584
  20782940.289     1672330.14049   1311880.84749  20782940.4304   20782945.9464
  18037841.628   -37115609.57549 -28577690.44649  18037841.4724   18037845.5404
  18586305.458   -25304768.60049 -19686009.36549  18586304.9094   18586309.7604
  21419142.387    -8599440.65649  -6661290.64949  21419140.4084   21419150.5884
 98  4 24 20 10 59.9890000  0  8  5  9 24 30  7  4  8 10
  18242458.611   -30461135.56649 -23428333.85349  18242457.9794   18242462.6064
  18548310.957   -34309254.40749 -26371494.06749  18548310.5924   18548315.1984
  17160503.617   -35808000.47249 -27521487.55349  17160503.3114   17160508.3894
  20973298.048   -11293810.53349  -7814905.74949  20973298.6574   20973304.0054
  20788448.560     1701276.18149   1334436.15449  20788447.6474   20788454.0804
  18040520.335   -37101532.80749 -28566721.54749  18040520.2384   18040524.3264
  18573596.895   -25371552.14349 -19738048.49049  18573596.4074   18573600.7724
  21393450.304    -8734452.28349  -6766494.31449  21393448.9734   21393458.1844
 98  4 24 20 11 29.9890000  0  8  5  9 24 30  7  4  8 10
  18222543.210   -30565791.31249 -23509883.78049  18222542.8264   18222547.3814
  18549648.153   -34302227.03849 -26366018.21849  18549648.0264   18549652.3804
  17148981.860   -35868547.40049 -27568666.97249  17148981.5074   17148986.5544
  20946928.571   -11432382.54549  -7922883.89049  20946929.5124   20946933.6814
  20793959.015     1730233.94949   1357000.59349  20793958.2824   20793965.9494
  18043288.594   -37086985.29349 -28555385.83449  18043288.5814   18043292.5814
  18561001.491   -25437741.21349 -19789624.39449  18561001.0164   18561005.5124
  21367747.216    -8869521.20549  -6871742.62749  21367745.4884   21367755.9404
 98  4 24 20 11 59.9890000  0  8  5  9 24 30  7  4  8 10
  18202676.449   -30670191.68549 -23591234.70649  18202676.1504   18202680.2644
  18551071.268   -34294748.50249 -26360190.81149  18551071.4404   18551076.1494
  17137564.530   -35928545.54349 -27615418.76449  17137564.3014   17137569.2974
  20920554.605   -11570978.42149  -8030880.63549  20920555.4814   20920558.3144
  20799467.481     1759180.98549   1379556.65849  20799466.3694   20799473.7654
  18046144.953   -37071974.65049 -28543689.23649  18046145.0344   18046149.0094
  18548517.964   -25503342.39149 -19840742.19149  18548517.4194   18548522.0584
  21342031.210    -9004658.53549  -6977044.26049  21342029.7704   21342040.1724
 98  4 24 20 12 29.9890000  0  8  5  9 24 30  7  4  8 10
  18182857.517   -30774340.89849 -23672389.92949  18182857.1104   18182861.3304
  18552580.261   -34286818.62649 -26354011.71049  18552580.2064   18552584.8594
  17126246.426   -35988022.18249 -27661764.18549  17126246.2964   17126251.4064
  20894172.946   -11709614.33849  -8138908.57849  20894172.8754   20894178.4634
  20804973.293     1788114.11349   1402101.90149  20804972.3574   20804979.6134
  18049087.011   -37056513.79049 -28531641.82149  18049087.1674   18049091.1504
  18536148.747   -25568342.93849 -19891391.96849  18536148.1924   18536153.0344
  21316301.201    -9139869.52249  -7082403.28549  21316300.4124   21316310.2464
 98  4 24 20 12 59.9890000  0  8  5  9 24 30  7  4  8 10
  18163086.245   -30878239.52949 -23753349.88949  18163085.7074   18163090.2834
  18554176.132   -34278432.41449 -26347477.02849  18554176.0014   18554180.5594
  17115030.110   -36046964.33849 -27707693.13149  17115030.1314   17115035.0674
  20867788.520   -11848265.05549  -8246948.06149  20867789.2504   20867792.6044
  20810475.421     1817027.89749   1424632.05049  20810475.4684   20810481.3264
  18052114.050   -37040606.57849 -28519246.60249  18052114.3514   18052118.5034
  18523894.534   -25632739.14849 -19941570.83349  18523894.0554   18523898.4604
  21290558.021    -9275149.83049  -7187816.32549  21290555.8854   21290567.1534
 98  4 24 20 13 29.9890000  0  8  5  9 24 30  7  4  8 10
  18143363.573   -30981882.61149 -23834110.72349  18143363.0514   18143367.6484
  18555857.669   -34269595.51249 -26340591.15549  18555857.6274   18555862.1624
  17103915.017   -36105374.21649 -27753207.31249  17103914.7564   17103920.0074
  20841404.197   -11986915.20149  -8354987.08949  20841404.2464   20841409.4474
  20815974.146     1845923.46249   1447148.00849  20815973.9014   20815980.2424
  18055222.318   -37024272.41649 -28506518.69149  18055222.6294   18055226.5774
  18511757.875   -25696517.64349 -19991268.36349  18511757.4374   18511762.3444
  21264799.740    -9410509.98449  -7293291.59049  21264798.4664   21264807.3974
 98  4 24 20 13 59.9890000  0  8  5  9 24 30  7  4  8 10
  18123690.209   -31085266.63049 -23914669.69649  18123689.7414   18123694.1524
  18557624.026   -34260313.33849 -26333358.31949  18557623.9144   18557628.5614
  17092897.142   -36163273.47349 -27798323.61149  17092897.1744   17092902.3124
  20815019.600   -12125567.20449  -8463027.57649  20815019.3624   20815025.5634
  20821472.143     1874815.38749   1469661.14049  20821472.2454   20821479.1304
  18058405.580   -37007544.24649 -28493483.76349  18058406.0064   18058409.8524
  18499738.626   -25759678.92049 -20040484.94149  18499738.0684   18499743.1564
  21239022.708    -9545968.14149  -7398843.22849  21239021.1124   21239031.4664
 98  4 24 20 14 29.9890000  0  8  5  9 24 30  7  4  8 10
  18104067.105   -31188386.41549 -23995022.76549  18104066.7354   18104071.3374
  18559478.560   -34250567.77049 -26325764.39349  18559478.9104   18559483.0964
  17081980.398   -36220641.23249 -27843025.75349  17081980.1114   17081985.1084
  20788643.114   -12264176.17349  -8571034.51649  20788643.1424   20788647.5354
  20826974.550     1903730.81349   1492192.56649  20826973.1074   20826980.0174
  18061668.346   -36990398.19749 -28480123.21449  18061668.5574   18061672.5084
  18487838.081   -25822216.62449 -20089215.62249  18487837.7764   18487841.8784
  21213231.798    -9681499.46549  -7504451.87549  21213231.3464   21213240.3844
 98  4 24 20 14 59.9890000  0  8  5  9 24 30  7  4  8 10
  18084489.058   -31291269.80449 -24075191.63449  18084488.7294   18084492.9884
  18561415.244   -34240390.48849 -26317834.06949  18561415.1504   18561419.9024
  17071161.896   -36277492.59849 -27887325.51249  17071161.9514   17071166.9224
  20762273.872   -12402747.26449  -8679011.95149  20762273.7874   20762278.9234
  20832475.245     1932637.03949   1514716.83649  20832474.7784   20832483.0064
  18065007.395   -36972851.37349 -28466450.37649  18065007.6454   18065011.8314
  18476049.598   -25884165.32849 -20137487.33749  18476049.0674   18476053.8254
  21187424.274    -9817118.00249  -7610128.47049  21187423.1124   21187432.4804
 98  4 24 20 15 29.9890000  0  8  5  9 24 30  7  4  8 10
  18064954.967   -31393921.96649 -24155180.32449  18064954.3724   18064959.0504
  18563431.317   -34229795.77949 -26309578.47949  18563431.2844   18563436.0564
  17060436.775   -36333853.42249 -27931243.03349  17060436.8454   17060441.7784
  20735910.611   -12541286.64349  -8786964.67049  20735910.5784   20735916.3314
  20837971.831     1961521.68349   1537224.27949  20837972.0124   20837978.2974
  18068422.873   -36954902.98149 -28452464.63049  18068423.3314   18068427.2724
  18464371.979   -25945531.70549 -20185305.30249  18464371.4624   18464376.4994
  21161600.945    -9952819.40549  -7715869.62749  21161600.1294   21161609.5794
 98  4 24 20 15 59.9890000  0  8  5  9 24 30  7  4  8 10
  18045462.412   -31496355.89849 -24234998.96649  18045462.1374   18045466.3464
  18565527.700   -34218779.19649 -26300994.15349  18565527.8824   18565532.6774
  17049804.359   -36389727.23149 -27974781.05849  17049804.1664   17049809.3474
  20709553.220   -12679795.82549  -8894893.85549  20709552.7354   20709558.4994
  20843460.648     1990364.84849   1559699.42049  20843459.8034   20843466.6324
  18071916.173   -36936545.53249 -28438160.13349  18071916.3634   18071920.4354
  18452802.624   -26006329.02949 -20232679.84349  18452801.9014   18452807.0404
  21135767.590   -10088574.18849  -7821652.36649  21135766.6834   21135775.5164
 98  4 24 20 16 29.9890000  0  8  5  9 24 30  7  4  8 10
  18026009.191   -31598583.37049 -24314656.72349  18026008.8444   18026013.3514
  18567701.722   -34207354.82949 -26292092.07549  18567701.6484   18567706.8354
  17039262.836   -36445123.12949 -28017946.68349  17039262.8644   17039267.8304
  20683200.371   -12818280.67749  -9002804.09149  20683200.5584   20683204.6764
  20848935.675     2019136.23749   1582118.62349  20848935.3624   20848940.9904
  18075487.868   -36917776.09049 -28423534.60049  18075488.1504   18075492.1264
  18441340.507   -26066562.91749 -20279615.34349  18441339.9964   18441345.0974
  21109926.365   -10224370.23949  -7927467.24549  21109924.6634   21109934.1324
 98  4 24 20 16 59.9890000  0  8  5  9 24 30  7  4  8 10
  18006608.495   -31700534.66449 -24394099.28049  18006608.1354   18006612.5204
  18569959.535   -34195490.06849 -26282846.83449  18569959.6844   18569963.9194
  17028821.279   -36499994.02949 -28060703.22549  17028821.1524   17028826.3264
  20656857.286   -12956714.38649  -9110674.47249  20656857.7354   20656862.7394
  20854406.213     2047884.07349   1604519.46149  20854405.6454   20854413.2834
  18079143.957   -36898563.18949 -28408563.52149  18079144.3594   18079148.3544
  18429996.239   -26126177.33549 -20326068.13949  18429996.2094   18430000.5174
  21084087.502   -10360153.54549  -8033272.17649  21084086.6914   21084095.6034
 98  4 24 20 17 29.9890000  0  8  5  9 24 30  7  4  8 10
  17987257.592   -31802224.48649 -24473338.09449  17987257.4914   17987261.6054
  18572294.383   -34183220.48549 -26273286.14249  18572294.3484   18572299.2624
  17018475.717   -36554360.25949 -28103066.51249  17018475.6444   17018480.6714
  20630517.739   -13095129.34149  -9218530.23649  20630518.2094   20630522.0834
  20859870.398     2076598.20849   1626894.04449  20859870.2624   20859876.8184
  18082876.360   -36878949.47049 -28393280.11349  18082876.7754   18082880.8364
  18418765.768   -26185193.95349 -20372055.11349  18418765.2044   18418770.1344
  21058245.243   -10495954.50349  -8139090.84349  21058244.2214   21058253.6104
 98  4 24 20 17 59.9890000  0  8  5  9 24 30  7  4  8 10
  17967958.317   -31903642.77549 -24552365.32449  17967958.0814   17967962.4614
  18574708.518   -34170534.11949 -26263400.69249  18574708.3374   18574713.3504
  17008230.978   -36608196.55249 -28145016.86349  17008230.8374   17008235.8964
  20604183.256   -13233517.79149  -9326365.35049  20604183.7804   20604188.5644
  20865334.303     2105311.06549   1649267.61049  20865333.9204   20865339.9864
  18086686.298   -36858928.22049 -28377679.15049  18086686.3884   18086690.6184
  18407652.214   -26243595.91349 -20417563.13549  18407651.8684   18407656.5224
  21032398.639   -10631778.48949  -8244927.45849  21032397.7644   21032406.1344
 98  4 24 20 18 29.9890000  0  8  5  9 24 30  7  4  8 10
  17948708.997   -32004798.60549 -24631188.04149  17948708.6784   17948713.1114
  18577196.677   -34157458.73949 -26253212.10949  18577196.8244   18577201.3924
  16998084.641   -36661515.85049 -28186564.36149  16998084.6014   16998089.3794
  20577849.629   -13371901.64749  -9434196.87149  20577849.8014   20577854.9284
  20870797.784     2134021.57049   1671639.35449  20870796.7684   20870803.8874
  18090568.030   -36838529.46649 -28361784.02849  18090568.2504   18090572.2684
  18396653.362   -26301395.29349 -20462601.62049  18396652.8424   18396657.8914
  21006539.771   -10767666.74249  -8350814.11949  21006538.7464   21006547.3444
 98  4 24 20 18 59.9890000  0  8  5  9 24 30  7  4  8 10
  17929519.022   -32105642.39249 -24709767.61349  17929518.7524   17929522.8764
  18579770.294   -34143934.56849 -26242673.82449  18579770.4234   18579775.2804
  16988048.758   -36714254.73049 -28227659.58949  16988048.7194   16988053.8144
  20551525.958   -13510233.39549  -9541987.81249  20551525.5054   20551530.4614
  20876274.315     2162800.71449   1694064.59649  20876274.7864   20876281.8064
  18094530.898   -36817704.41449 -28345556.72949  18094531.2674   18094535.4844
  18385780.531   -26358532.40349 -20507124.04949  18385780.0594   18385784.6854
  20980678.473   -10903567.48749  -8456710.51449  20980677.1794   20980686.5964
 98  4 24 20 19 29.9890000  0  8  5  9 24 30  7  4  8 10
  17910377.449   -32206231.86949 -24788149.01849  17910376.8844   17910381.4684
  18582427.399   -34129971.41249 -26231793.46849  18582427.3334   18582432.1294
  16978118.814   -36766436.88149 -28268320.99749  16978118.6934   16978123.8864
  20525208.884   -13648530.39049  -9649751.65449  20525209.4234   20525214.9124
  20881757.156     2191613.12449   1716515.75949  20881756.7014   20881763.2454
  18098570.655   -36796475.37949 -28329014.64149  18098570.8504   18098574.9704
  18375027.104   -26415041.95349 -20551157.46949  18375026.5644   18375031.8104
  20954808.538   -11039513.63149  -8562642.27249  20954807.2794   20954816.5854
 98  4 24 20 19 59.9890000  0  8  5  9 24 30  7  4  8 10
  17891282.652   -32306575.59449 -24866338.92749  17891282.4134   17891286.8504
  18585171.080   -34115553.23349 -26220558.55549  18585171.0044   18585176.0024
  16968291.884   -36818077.56949 -28308560.49049  16968291.9464   16968296.9734
  20498897.040   -13786799.83049  -9757494.03149  20498897.2394   20498902.1664
  20887241.035     2220431.06949   1738971.23049  20887241.1344   20887247.4534
  18102688.069   -36774838.13549 -28312154.46649  18102688.3204   18102692.5254
  18364389.749   -26470941.49349 -20594715.56049  18364389.5084   18364394.0864
  20928931.780   -11175495.62949  -8668601.96949  20928930.6634   20928939.0044
 98  4 24 20 20 29.9890000  0  8  5  9 24 30  7  4  8 10
  17872237.587   -32406658.16849 -24944325.34149  17872237.4084   17872241.8004
  18588001.614   -34100678.89049 -26208968.18849  18588001.7044   18588006.6324
  16958566.812   -36869183.17349 -28348383.03249  16958566.8584   16958571.8204
  20472589.235   -13925048.00449  -9865219.84149  20472589.9114   20472593.6944
  20892722.010     2249233.36949   1761414.51149  20892722.0594   20892728.5334
  18106881.773   -36752800.02149 -28294981.92949  18106882.0864   18106886.2504
  18353867.685   -26526235.32149 -20637801.66949  18353867.3024   18353872.1244
  20903050.123   -11311503.51949  -8774581.83149  20903048.2314   20903058.0924
 98  4 24 20 20 59.9890000  0  8  5  9 24 30  7  4  8 10
  17853241.441   -32506483.47549 -25022111.29049  17853241.1784   17853245.5524
  18590918.555   -34085350.16149 -26197023.75249  18590918.5354   18590923.1844
  16948941.350   -36919765.11649 -28387797.53049  16948941.3924   16948946.4514
  20446286.051   -14063271.96249  -9972926.77549  20446285.9414   20446291.6014
  20898197.487     2278007.17849   1783835.56949  20898197.1094   20898204.1354
  18111152.397   -36730357.77649 -28277494.48249  18111152.5704   18111156.7874
  18343458.826   -26580934.19749 -20680424.18049  18343458.3584   18343463.1104
  20877162.165   -11447544.56249  -8880587.53349  20877159.9834   20877170.0004
 98  4 24 20 21 29.9890000  0  8  5  9 24 30  7  4  8 10
  17834295.466   -32606045.22949 -25099691.87049  17834294.9254   17834299.6144
  18593919.203   -34069581.71449 -26184736.68349  18593918.9484   18593924.1014
  16939411.445   -36969845.23749 -28426820.99549  16939411.4394   16939416.3714
  20419989.062   -14201463.20849 -10080608.21849  20419989.6154   20419993.8314
  20903665.313     2306740.80849   1806225.33649  20903664.6644   20903671.9734
  18115499.074   -36707515.82249 -28259695.57249  18115499.4114   18115503.5514
  18333159.001   -26635060.22049 -20722600.30249  18333158.5684   18333163.6334
  20851266.421   -11583626.40249  -8986625.02549  20851264.6904   20851274.0644
 98  4 24 20 21 59.9890000  0  8  5  9 24 30  7  4  8 10
  17815407.944   -32705299.78049 -25177033.07349  17815407.4904   17815412.0474
  18596997.881   -34053403.09049 -26172129.98849  18596997.9064   18597002.7844
  16929974.829   -37019434.77949 -28465462.18849  16929974.8124   16929979.7814
  20393698.766   -14339619.16349 -10188262.16349  20393698.9864   20393703.1124
  20909129.019     2335452.94749   1828598.34949  20909126.7034   20909135.3154
  18119922.392   -36684271.09449 -28241582.81049  18119922.7294   18119926.9124
  18322972.103   -26688592.62049 -20764313.87249  18322972.0104   18322976.5044
  20825364.304   -11719741.79949  -9092688.67149  20825362.7714   20825371.3934
 98  4 24 20 22 29.9890000  0  8  5  9 24 30  7  4  8 10
  17796576.742   -32804258.16149 -25254143.49449  17796576.5964   17796580.9004
  18600146.124   -34036859.01249 -26159238.52749  18600145.9074   18600151.0874
  16920629.018   -37068547.38349 -28503731.74549  16920628.8724   16920634.0324
  20367413.975   -14477746.49649 -10295893.81149  20367414.1434   20367419.1504
  20914589.261     2364146.32549   1850956.75249  20914589.0414   20914596.8104
  18124419.337   -36660639.38249 -28223168.49949  18124419.7054   18124424.1564
  18312898.329   -26741530.76249 -20805564.37849  18312897.9954   18312903.1674
  20799452.465   -11855908.37749  -9198792.23749  20799451.0504   20799459.1604
 98  4 24 20 22 59.9890000  0  8  5  9 24 30  7  4  8 10
  17777799.674   -32902932.17349 -25331032.33049  17777799.3064   17777803.7704
  18603361.292   -34019963.43949 -26146073.17649  18603361.5114   18603366.3044
  16911373.314   -37117186.36549 -28541632.24449  16911373.2304   16911378.2504
  20341136.182   -14615836.93249 -10403496.70949  20341136.5544   20341141.7484
  20920048.749     2392836.18649   1873312.40149  20920048.4424   20920055.6964
  18128988.289   -36636629.41449 -28204459.44849  18128988.6024   18128992.7154
  18302937.539   -26793875.02849 -20846352.12449  18302937.0604   18302942.1614
  20773532.906   -11992115.54349  -9304927.40949  20773531.2344   20773539.2294
 98  4 24 20 23 29.9890000  0  8  5  9 24 30  7  4  8 10
  17759082.031   -33001293.93849 -25407677.85649  17759081.7044   17759086.1884
  18606644.091   -34002712.43249 -26132630.86449  18606643.9084   18606648.8444
  16902209.775   -37165341.04349 -28579155.36549  16902209.5044   16902214.5574
  20314869.414   -14753869.52349 -10511054.52749  20314870.4184   20314874.9264
  20925511.264     2421541.95149   1895680.44449  20925510.5704   20925518.0844
  18133629.719   -36612238.47049 -28185453.53449  18133630.0194   18133634.0974
  18293095.149   -26845597.15749 -20886655.08749  18293094.8144   18293099.7284
  20747611.721   -12128330.77949  -9411068.90249  20747610.1284   20747618.7604
 98  4 24 20 23 59.9890000  0  8  5  9 24 30  7  4  8 10
  17740423.577   -33099344.72449 -25484081.06249  17740423.2514   17740427.7794
  18609996.192   -33985097.00949 -26118904.59049  18609996.0984   18610001.1394
  16893140.652   -37212999.43249 -28616291.76749  16893140.5424   16893145.6054
  20288614.449   -14891840.40849 -10618564.26649  20288614.5044   20288619.3134
  20930974.750     2450252.33749   1918052.09249  20930974.2884   20930981.1054
  18138342.264   -36587473.96749 -28166156.53249  18138342.7874   18138346.9554
  18283373.560   -26896684.43449 -20926463.36449  18283373.0244   18283378.1504
  20721690.018   -12264548.93649  -9517212.67049  20721688.9334   20721696.2214
 98  4 24 20 24 29.9890000  0  8  5  9 24 30  7  4  8 10
  17721818.966   -33197112.51049 -25560263.75149  17721818.5804   17721823.1584
  18613424.035   -33967083.58649 -26104868.19249  18613423.8354   18613428.8584
  16884167.874   -37260151.72349 -28653033.81249  16884167.8444   16884172.8454
  20262372.593   -15029742.42249 -10726020.33949  20262373.0714   20262376.8834
  20936436.703     2478954.73749   1940417.51149  20936435.4274   20936443.6724
  18143123.620   -36562347.85049 -28146577.75849  18143123.9074   18143128.1464
  18273770.314   -26947149.87449 -20965787.09149  18273770.1924   18273774.7264
  20695769.583   -12400760.40449  -9623351.24349  20695768.3984   20695776.4274
 98  4 24 20 24 59.9890000  0  8  5  9 24 30  7  4  8 10
  17703268.277   -33294597.09249 -25636225.75649  17703268.1424   17703272.3984
  18616928.666   -33948666.78549 -26090517.46649  18616928.7384   18616933.7494
  16875291.303   -37306798.39649 -28689381.86749  16875291.3494   16875296.3614
  20236143.437   -15167577.55249 -10833424.29449  20236143.1204   20236148.2034
  20941896.675     2507647.15249   1962775.15249  20941896.1474   20941902.9194
  18147970.517   -36536877.40549 -28126730.67049  18147970.8914   18147975.3764
  18264284.080   -26997000.32849 -21004631.60749  18264283.7694   18264288.4424
  20669850.852   -12536963.45049  -9729483.26449  20669849.6614   20669857.5854
 98  4 24 20 25 29.9890000  0  8  5  9 24 30  7  4  8 10
  17684770.223   -33391804.99549 -25711972.16849  17684769.8694   17684774.2554
  18620511.542   -33929838.81249 -26075846.34849  18620511.5584   18620516.4484
  16866511.349   -37352937.21949 -28725334.19049  16866511.3274   16866516.3514
  20209926.738   -15305347.10749 -10940777.14849  20209926.0594   20209931.2914
  20947351.647     2536312.79149   1985111.91749  20947352.2204   20947359.4464
  18152883.683   -36511058.71649 -28106612.22649  18152884.1304   18152888.2504
  18254913.798   -27046241.59849 -21043001.43849  18254913.2474   18254918.3484
  20643933.623   -12673158.16449  -9835608.80949  20643932.2734   20643939.9724
 98  4 24 20 25 59.9890000  0  8  5  9 24 30  7  4  8 10
  17666320.908   -33488756.45749 -25787518.75549  17666320.3714   17666325.1024
  18624173.929   -33910592.81249 -26060849.49749  18624173.9734   18624178.5924
  16857830.699   -37398554.24049 -28760879.91849  16857830.6874   16857835.7194
  20183719.241   -15443067.96249 -11048092.06349  20183718.8024   20183724.3394
  20952803.029     2564959.78649   2007434.17149  20952802.3574   20952810.7314
  18157863.151   -36484891.49949 -28086222.19949  18157863.4134   18157867.7844
  18245657.086   -27094885.88949 -21080906.08649  18245657.0044   18245661.5914
  20618018.341   -12809342.89649  -9941726.58549  20618017.6734   20618025.7274
